<?xml version="1.0" encoding="UTF-8" standalone="no" ?>
<gpx xmlns="http://www.topografix.com/GPX/1/1" xmlns:xsi="http://www.w3.org/2001/XMLSchema-instance" xsi:schemaLocation="http://www.topografix.com/GPX/1/1 http://www.topografix.com/GPX/1/1/gpx.xsd" version="1.1" creator="VisuGPX - https://www.visugpx.com">
  <metadata>
    <name>Aérotrain-Yvette</name>
    <desc><![CDATA[Randonnée de 24 km en boucle à partir de la gare de Saint-Rémy-lès-Chevreuse]]></desc>
  </metadata>
  <trk>
    <name><![CDATA[Aerotrain-yvette_R]]></name>
    <trkseg>
      <trkpt lat="48.70318" lon="2.07101">
        <ele>81.36</ele>
        <time>2021-11-07T08:37:02Z</time>
      </trkpt>
      <trkpt lat="48.70318" lon="2.07101">
        <ele>79.3</ele>
        <time>2021-11-07T08:37:07Z</time>
      </trkpt>
      <trkpt lat="48.70317" lon="2.07102">
        <ele>78.62</ele>
        <time>2021-11-07T08:37:24Z</time>
      </trkpt>
      <trkpt lat="48.70317" lon="2.07101">
        <ele>79.01</ele>
        <time>2021-11-07T08:37:46Z</time>
      </trkpt>
      <trkpt lat="48.70317" lon="2.07102">
        <ele>79.2</ele>
        <time>2021-11-07T08:38:04Z</time>
      </trkpt>
      <trkpt lat="48.70316" lon="2.07102">
        <ele>79.02</ele>
        <time>2021-11-07T08:38:21Z</time>
      </trkpt>
      <trkpt lat="48.70316" lon="2.07102">
        <ele>78.98</ele>
        <time>2021-11-07T08:38:44Z</time>
      </trkpt>
      <trkpt lat="48.70317" lon="2.071">
        <ele>78.84</ele>
        <time>2021-11-07T08:39:07Z</time>
      </trkpt>
      <trkpt lat="48.70318" lon="2.07102">
        <ele>78.8</ele>
        <time>2021-11-07T08:39:27Z</time>
      </trkpt>
      <trkpt lat="48.70318" lon="2.07102">
        <ele>79.14</ele>
        <time>2021-11-07T08:39:47Z</time>
      </trkpt>
      <trkpt lat="48.70318" lon="2.07103">
        <ele>79.36</ele>
        <time>2021-11-07T08:40:07Z</time>
      </trkpt>
      <trkpt lat="48.70319" lon="2.07104">
        <ele>79.25</ele>
        <time>2021-11-07T08:40:21Z</time>
      </trkpt>
      <trkpt lat="48.70318" lon="2.07103">
        <ele>79.39</ele>
        <time>2021-11-07T08:40:33Z</time>
      </trkpt>
      <trkpt lat="48.70317" lon="2.07103">
        <ele>79.18</ele>
        <time>2021-11-07T08:40:50Z</time>
      </trkpt>
      <trkpt lat="48.70316" lon="2.07102">
        <ele>79.5</ele>
        <time>2021-11-07T08:41:15Z</time>
      </trkpt>
      <trkpt lat="48.70316" lon="2.07101">
        <ele>79.53</ele>
        <time>2021-11-07T08:41:34Z</time>
      </trkpt>
      <trkpt lat="48.70315" lon="2.07103">
        <ele>79.43</ele>
        <time>2021-11-07T08:41:50Z</time>
      </trkpt>
      <trkpt lat="48.70315" lon="2.07101">
        <ele>79.56</ele>
        <time>2021-11-07T08:42:14Z</time>
      </trkpt>
      <trkpt lat="48.70314" lon="2.071">
        <ele>79.41</ele>
        <time>2021-11-07T08:42:33Z</time>
      </trkpt>
      <trkpt lat="48.70314" lon="2.07104">
        <ele>79.03</ele>
        <time>2021-11-07T08:42:42Z</time>
      </trkpt>
      <trkpt lat="48.7031" lon="2.07095">
        <ele>78.7</ele>
        <time>2021-11-07T08:42:59Z</time>
      </trkpt>
      <trkpt lat="48.70305" lon="2.07077">
        <ele>78.97</ele>
        <time>2021-11-07T08:43:13Z</time>
      </trkpt>
      <trkpt lat="48.70303" lon="2.07067">
        <ele>79.06</ele>
        <time>2021-11-07T08:43:24Z</time>
      </trkpt>
      <trkpt lat="48.70299" lon="2.07049">
        <ele>78.28</ele>
        <time>2021-11-07T08:43:36Z</time>
      </trkpt>
      <trkpt lat="48.70297" lon="2.07036">
        <ele>78.14</ele>
        <time>2021-11-07T08:43:44Z</time>
      </trkpt>
      <trkpt lat="48.70295" lon="2.07023">
        <ele>77.93</ele>
        <time>2021-11-07T08:43:52Z</time>
      </trkpt>
      <trkpt lat="48.70292" lon="2.07004">
        <ele>77.46</ele>
        <time>2021-11-07T08:44:04Z</time>
      </trkpt>
      <trkpt lat="48.7029" lon="2.06987">
        <ele>77.37</ele>
        <time>2021-11-07T08:44:15Z</time>
      </trkpt>
      <trkpt lat="48.70284" lon="2.06975">
        <ele>77.61</ele>
        <time>2021-11-07T08:44:28Z</time>
      </trkpt>
      <trkpt lat="48.70282" lon="2.06971">
        <ele>77.83</ele>
        <time>2021-11-07T08:44:44Z</time>
      </trkpt>
      <trkpt lat="48.70278" lon="2.06965">
        <ele>78</ele>
        <time>2021-11-07T08:45:00Z</time>
      </trkpt>
      <trkpt lat="48.70272" lon="2.06957">
        <ele>78.85</ele>
        <time>2021-11-07T08:45:09Z</time>
      </trkpt>
      <trkpt lat="48.70264" lon="2.06955">
        <ele>78.96</ele>
        <time>2021-11-07T08:45:23Z</time>
      </trkpt>
      <trkpt lat="48.70261" lon="2.0695">
        <ele>78.34</ele>
        <time>2021-11-07T08:45:29Z</time>
      </trkpt>
      <trkpt lat="48.7026" lon="2.06947">
        <ele>78.3</ele>
        <time>2021-11-07T08:45:31Z</time>
      </trkpt>
      <trkpt lat="48.70259" lon="2.0693">
        <ele>78.79</ele>
        <time>2021-11-07T08:45:42Z</time>
      </trkpt>
      <trkpt lat="48.70257" lon="2.06911">
        <ele>78</ele>
        <time>2021-11-07T08:45:54Z</time>
      </trkpt>
      <trkpt lat="48.70256" lon="2.06894">
        <ele>79</ele>
        <time>2021-11-07T08:46:05Z</time>
      </trkpt>
      <trkpt lat="48.70256" lon="2.06878">
        <ele>78.44</ele>
        <time>2021-11-07T08:46:15Z</time>
      </trkpt>
      <trkpt lat="48.70256" lon="2.06865">
        <ele>78.53</ele>
        <time>2021-11-07T08:46:24Z</time>
      </trkpt>
      <trkpt lat="48.70254" lon="2.0685">
        <ele>78.7</ele>
        <time>2021-11-07T08:46:36Z</time>
      </trkpt>
      <trkpt lat="48.70249" lon="2.06829">
        <ele>79.16</ele>
        <time>2021-11-07T08:46:53Z</time>
      </trkpt>
      <trkpt lat="48.70247" lon="2.06808">
        <ele>79.48</ele>
        <time>2021-11-07T08:47:09Z</time>
      </trkpt>
      <trkpt lat="48.70244" lon="2.06782">
        <ele>79.01</ele>
        <time>2021-11-07T08:47:25Z</time>
      </trkpt>
      <trkpt lat="48.70239" lon="2.06751">
        <ele>79.03</ele>
        <time>2021-11-07T08:47:44Z</time>
      </trkpt>
      <trkpt lat="48.70237" lon="2.06731">
        <ele>79.34</ele>
        <time>2021-11-07T08:47:58Z</time>
      </trkpt>
      <trkpt lat="48.70233" lon="2.0671">
        <ele>79.42</ele>
        <time>2021-11-07T08:48:14Z</time>
      </trkpt>
      <trkpt lat="48.70228" lon="2.06686">
        <ele>79.35</ele>
        <time>2021-11-07T08:48:32Z</time>
      </trkpt>
      <trkpt lat="48.70228" lon="2.0666">
        <ele>79.44</ele>
        <time>2021-11-07T08:48:49Z</time>
      </trkpt>
      <trkpt lat="48.70226" lon="2.06632">
        <ele>79.51</ele>
        <time>2021-11-07T08:49:05Z</time>
      </trkpt>
      <trkpt lat="48.70222" lon="2.06608">
        <ele>79.28</ele>
        <time>2021-11-07T08:49:25Z</time>
      </trkpt>
      <trkpt lat="48.70217" lon="2.06586">
        <ele>79.49</ele>
        <time>2021-11-07T08:49:42Z</time>
      </trkpt>
      <trkpt lat="48.70211" lon="2.06561">
        <ele>79.36</ele>
        <time>2021-11-07T08:49:58Z</time>
      </trkpt>
      <trkpt lat="48.70203" lon="2.0654">
        <ele>79.32</ele>
        <time>2021-11-07T08:50:17Z</time>
      </trkpt>
      <trkpt lat="48.70194" lon="2.0651">
        <ele>78.87</ele>
        <time>2021-11-07T08:50:35Z</time>
      </trkpt>
      <trkpt lat="48.70184" lon="2.06485">
        <ele>79.18</ele>
        <time>2021-11-07T08:50:55Z</time>
      </trkpt>
      <trkpt lat="48.70179" lon="2.06462">
        <ele>79.34</ele>
        <time>2021-11-07T08:51:11Z</time>
      </trkpt>
      <trkpt lat="48.70172" lon="2.06433">
        <ele>78.81</ele>
        <time>2021-11-07T08:51:29Z</time>
      </trkpt>
      <trkpt lat="48.70163" lon="2.06405">
        <ele>78.76</ele>
        <time>2021-11-07T08:51:44Z</time>
      </trkpt>
      <trkpt lat="48.70155" lon="2.06391">
        <ele>79.22</ele>
        <time>2021-11-07T08:51:56Z</time>
      </trkpt>
      <trkpt lat="48.70144" lon="2.06368">
        <ele>79.27</ele>
        <time>2021-11-07T08:52:13Z</time>
      </trkpt>
      <trkpt lat="48.70138" lon="2.0636">
        <ele>79.79</ele>
        <time>2021-11-07T08:52:20Z</time>
      </trkpt>
      <trkpt lat="48.70128" lon="2.06337">
        <ele>79.51</ele>
        <time>2021-11-07T08:52:35Z</time>
      </trkpt>
      <trkpt lat="48.70112" lon="2.06309">
        <ele>79.68</ele>
        <time>2021-11-07T08:52:55Z</time>
      </trkpt>
      <trkpt lat="48.70102" lon="2.0629">
        <ele>80</ele>
        <time>2021-11-07T08:53:10Z</time>
      </trkpt>
      <trkpt lat="48.70091" lon="2.06267">
        <ele>80.1</ele>
        <time>2021-11-07T08:53:28Z</time>
      </trkpt>
      <trkpt lat="48.70078" lon="2.0625">
        <ele>79.38</ele>
        <time>2021-11-07T08:53:45Z</time>
      </trkpt>
      <trkpt lat="48.70065" lon="2.06231">
        <ele>80.81</ele>
        <time>2021-11-07T08:54:01Z</time>
      </trkpt>
      <trkpt lat="48.70053" lon="2.06213">
        <ele>80</ele>
        <time>2021-11-07T08:54:15Z</time>
      </trkpt>
      <trkpt lat="48.7004" lon="2.06196">
        <ele>80.25</ele>
        <time>2021-11-07T08:54:31Z</time>
      </trkpt>
      <trkpt lat="48.70025" lon="2.0618">
        <ele>80.49</ele>
        <time>2021-11-07T08:54:48Z</time>
      </trkpt>
      <trkpt lat="48.70012" lon="2.06166">
        <ele>80.79</ele>
        <time>2021-11-07T08:55:05Z</time>
      </trkpt>
      <trkpt lat="48.69999" lon="2.06151">
        <ele>80.56</ele>
        <time>2021-11-07T08:55:23Z</time>
      </trkpt>
      <trkpt lat="48.69998" lon="2.0615">
        <ele>80.59</ele>
        <time>2021-11-07T08:55:25Z</time>
      </trkpt>
      <trkpt lat="48.69992" lon="2.06145">
        <ele>80.76</ele>
        <time>2021-11-07T08:55:42Z</time>
      </trkpt>
      <trkpt lat="48.69981" lon="2.06132">
        <ele>80.72</ele>
        <time>2021-11-07T08:55:55Z</time>
      </trkpt>
      <trkpt lat="48.69965" lon="2.06115">
        <ele>81.27</ele>
        <time>2021-11-07T08:56:14Z</time>
      </trkpt>
      <trkpt lat="48.69952" lon="2.06101">
        <ele>80.64</ele>
        <time>2021-11-07T08:56:25Z</time>
      </trkpt>
      <trkpt lat="48.69938" lon="2.06088">
        <ele>81.26</ele>
        <time>2021-11-07T08:56:38Z</time>
      </trkpt>
      <trkpt lat="48.69923" lon="2.0607">
        <ele>81.25</ele>
        <time>2021-11-07T08:56:55Z</time>
      </trkpt>
      <trkpt lat="48.69906" lon="2.06056">
        <ele>80.95</ele>
        <time>2021-11-07T08:57:12Z</time>
      </trkpt>
      <trkpt lat="48.69892" lon="2.06047">
        <ele>81.54</ele>
        <time>2021-11-07T08:57:27Z</time>
      </trkpt>
      <trkpt lat="48.69891" lon="2.06046">
        <ele>81.42</ele>
        <time>2021-11-07T08:57:28Z</time>
      </trkpt>
      <trkpt lat="48.6987" lon="2.06028">
        <ele>81.78</ele>
        <time>2021-11-07T08:57:45Z</time>
      </trkpt>
      <trkpt lat="48.69855" lon="2.06015">
        <ele>81.63</ele>
        <time>2021-11-07T08:58:01Z</time>
      </trkpt>
      <trkpt lat="48.69831" lon="2.06006">
        <ele>82.86</ele>
        <time>2021-11-07T08:58:15Z</time>
      </trkpt>
      <trkpt lat="48.69811" lon="2.0599">
        <ele>82.69</ele>
        <time>2021-11-07T08:58:31Z</time>
      </trkpt>
      <trkpt lat="48.69791" lon="2.05985">
        <ele>82.6</ele>
        <time>2021-11-07T08:58:48Z</time>
      </trkpt>
      <trkpt lat="48.69783" lon="2.05979">
        <ele>82.68</ele>
        <time>2021-11-07T08:58:57Z</time>
      </trkpt>
      <trkpt lat="48.6976" lon="2.05974">
        <ele>82.7</ele>
        <time>2021-11-07T08:59:12Z</time>
      </trkpt>
      <trkpt lat="48.6974" lon="2.05967">
        <ele>83.09</ele>
        <time>2021-11-07T08:59:29Z</time>
      </trkpt>
      <trkpt lat="48.69726" lon="2.05953">
        <ele>83.56</ele>
        <time>2021-11-07T08:59:46Z</time>
      </trkpt>
      <trkpt lat="48.69712" lon="2.05945">
        <ele>83.75</ele>
        <time>2021-11-07T09:00:04Z</time>
      </trkpt>
      <trkpt lat="48.69706" lon="2.05942">
        <ele>83.64</ele>
        <time>2021-11-07T09:00:11Z</time>
      </trkpt>
      <trkpt lat="48.69688" lon="2.05931">
        <ele>84.74</ele>
        <time>2021-11-07T09:00:28Z</time>
      </trkpt>
      <trkpt lat="48.69668" lon="2.05925">
        <ele>84.29</ele>
        <time>2021-11-07T09:00:45Z</time>
      </trkpt>
      <trkpt lat="48.69641" lon="2.05921">
        <ele>84.76</ele>
        <time>2021-11-07T09:01:03Z</time>
      </trkpt>
      <trkpt lat="48.69625" lon="2.05915">
        <ele>85.16</ele>
        <time>2021-11-07T09:01:19Z</time>
      </trkpt>
      <trkpt lat="48.69606" lon="2.05913">
        <ele>85.81</ele>
        <time>2021-11-07T09:01:34Z</time>
      </trkpt>
      <trkpt lat="48.69591" lon="2.05909">
        <ele>86.09</ele>
        <time>2021-11-07T09:01:48Z</time>
      </trkpt>
      <trkpt lat="48.69578" lon="2.05905">
        <ele>85.98</ele>
        <time>2021-11-07T09:02:03Z</time>
      </trkpt>
      <trkpt lat="48.69561" lon="2.05902">
        <ele>85.86</ele>
        <time>2021-11-07T09:02:19Z</time>
      </trkpt>
      <trkpt lat="48.69546" lon="2.05903">
        <ele>87.03</ele>
        <time>2021-11-07T09:02:35Z</time>
      </trkpt>
      <trkpt lat="48.69525" lon="2.05906">
        <ele>87.13</ele>
        <time>2021-11-07T09:02:50Z</time>
      </trkpt>
      <trkpt lat="48.69509" lon="2.05906">
        <ele>86.21</ele>
        <time>2021-11-07T09:03:04Z</time>
      </trkpt>
      <trkpt lat="48.69507" lon="2.05911">
        <ele>86.47</ele>
        <time>2021-11-07T09:03:20Z</time>
      </trkpt>
      <trkpt lat="48.695" lon="2.05914">
        <ele>87.05</ele>
        <time>2021-11-07T09:03:44Z</time>
      </trkpt>
      <trkpt lat="48.695" lon="2.05914">
        <ele>86.64</ele>
        <time>2021-11-07T09:04:08Z</time>
      </trkpt>
      <trkpt lat="48.695" lon="2.05912">
        <ele>86.65</ele>
        <time>2021-11-07T09:04:27Z</time>
      </trkpt>
      <trkpt lat="48.695" lon="2.0591">
        <ele>87.23</ele>
        <time>2021-11-07T09:04:49Z</time>
      </trkpt>
      <trkpt lat="48.69504" lon="2.05904">
        <ele>87.06</ele>
        <time>2021-11-07T09:05:12Z</time>
      </trkpt>
      <trkpt lat="48.695" lon="2.05909">
        <ele>87.32</ele>
        <time>2021-11-07T09:05:35Z</time>
      </trkpt>
      <trkpt lat="48.69499" lon="2.0591">
        <ele>87.34</ele>
        <time>2021-11-07T09:05:57Z</time>
      </trkpt>
      <trkpt lat="48.69501" lon="2.05912">
        <ele>87.68</ele>
        <time>2021-11-07T09:06:17Z</time>
      </trkpt>
      <trkpt lat="48.69502" lon="2.05911">
        <ele>87.16</ele>
        <time>2021-11-07T09:06:42Z</time>
      </trkpt>
      <trkpt lat="48.69497" lon="2.05913">
        <ele>87.97</ele>
        <time>2021-11-07T09:07:00Z</time>
      </trkpt>
      <trkpt lat="48.69487" lon="2.05917">
        <ele>87.86</ele>
        <time>2021-11-07T09:07:17Z</time>
      </trkpt>
      <trkpt lat="48.69472" lon="2.05921">
        <ele>88.69</ele>
        <time>2021-11-07T09:07:33Z</time>
      </trkpt>
      <trkpt lat="48.69454" lon="2.05926">
        <ele>89.18</ele>
        <time>2021-11-07T09:07:50Z</time>
      </trkpt>
      <trkpt lat="48.69442" lon="2.05934">
        <ele>89.05</ele>
        <time>2021-11-07T09:08:05Z</time>
      </trkpt>
      <trkpt lat="48.69419" lon="2.05944">
        <ele>89.45</ele>
        <time>2021-11-07T09:08:23Z</time>
      </trkpt>
      <trkpt lat="48.69406" lon="2.05951">
        <ele>89.72</ele>
        <time>2021-11-07T09:08:39Z</time>
      </trkpt>
      <trkpt lat="48.69391" lon="2.05965">
        <ele>90.62</ele>
        <time>2021-11-07T09:08:57Z</time>
      </trkpt>
      <trkpt lat="48.69373" lon="2.05977">
        <ele>90.36</ele>
        <time>2021-11-07T09:09:13Z</time>
      </trkpt>
      <trkpt lat="48.69358" lon="2.05984">
        <ele>90.7</ele>
        <time>2021-11-07T09:09:28Z</time>
      </trkpt>
      <trkpt lat="48.69335" lon="2.05998">
        <ele>90.81</ele>
        <time>2021-11-07T09:09:46Z</time>
      </trkpt>
      <trkpt lat="48.69319" lon="2.06006">
        <ele>90.5</ele>
        <time>2021-11-07T09:10:03Z</time>
      </trkpt>
      <trkpt lat="48.69306" lon="2.06011">
        <ele>91.15</ele>
        <time>2021-11-07T09:10:18Z</time>
      </trkpt>
      <trkpt lat="48.693" lon="2.06015">
        <ele>91.38</ele>
        <time>2021-11-07T09:10:33Z</time>
      </trkpt>
      <trkpt lat="48.69296" lon="2.06016">
        <ele>91.76</ele>
        <time>2021-11-07T09:10:38Z</time>
      </trkpt>
      <trkpt lat="48.69284" lon="2.06021">
        <ele>91.64</ele>
        <time>2021-11-07T09:11:01Z</time>
      </trkpt>
      <trkpt lat="48.6927" lon="2.0603">
        <ele>91.74</ele>
        <time>2021-11-07T09:11:19Z</time>
      </trkpt>
      <trkpt lat="48.69255" lon="2.06039">
        <ele>92.25</ele>
        <time>2021-11-07T09:11:37Z</time>
      </trkpt>
      <trkpt lat="48.69239" lon="2.0605">
        <ele>92.56</ele>
        <time>2021-11-07T09:11:51Z</time>
      </trkpt>
      <trkpt lat="48.69221" lon="2.06059">
        <ele>92.19</ele>
        <time>2021-11-07T09:12:08Z</time>
      </trkpt>
      <trkpt lat="48.69202" lon="2.06068">
        <ele>93.56</ele>
        <time>2021-11-07T09:12:29Z</time>
      </trkpt>
      <trkpt lat="48.69184" lon="2.06076">
        <ele>93.79</ele>
        <time>2021-11-07T09:12:45Z</time>
      </trkpt>
      <trkpt lat="48.69164" lon="2.06085">
        <ele>94.35</ele>
        <time>2021-11-07T09:13:04Z</time>
      </trkpt>
      <trkpt lat="48.69145" lon="2.06089">
        <ele>95.08</ele>
        <time>2021-11-07T09:13:23Z</time>
      </trkpt>
      <trkpt lat="48.69123" lon="2.06095">
        <ele>95.67</ele>
        <time>2021-11-07T09:13:40Z</time>
      </trkpt>
      <trkpt lat="48.69104" lon="2.06098">
        <ele>96.16</ele>
        <time>2021-11-07T09:13:56Z</time>
      </trkpt>
      <trkpt lat="48.69095" lon="2.061">
        <ele>96.3</ele>
        <time>2021-11-07T09:14:04Z</time>
      </trkpt>
      <trkpt lat="48.69091" lon="2.06101">
        <ele>96.67</ele>
        <time>2021-11-07T09:14:06Z</time>
      </trkpt>
      <trkpt lat="48.69069" lon="2.06101">
        <ele>96.67</ele>
        <time>2021-11-07T09:14:24Z</time>
      </trkpt>
      <trkpt lat="48.69055" lon="2.06102">
        <ele>97.99</ele>
        <time>2021-11-07T09:14:38Z</time>
      </trkpt>
      <trkpt lat="48.6904" lon="2.06104">
        <ele>98.11</ele>
        <time>2021-11-07T09:14:50Z</time>
      </trkpt>
      <trkpt lat="48.6902" lon="2.06105">
        <ele>98.27</ele>
        <time>2021-11-07T09:15:06Z</time>
      </trkpt>
      <trkpt lat="48.68999" lon="2.06108">
        <ele>98.61</ele>
        <time>2021-11-07T09:15:24Z</time>
      </trkpt>
      <trkpt lat="48.68983" lon="2.06108">
        <ele>99.29</ele>
        <time>2021-11-07T09:15:40Z</time>
      </trkpt>
      <trkpt lat="48.68963" lon="2.06107">
        <ele>100.52</ele>
        <time>2021-11-07T09:15:55Z</time>
      </trkpt>
      <trkpt lat="48.68941" lon="2.06106">
        <ele>101.05</ele>
        <time>2021-11-07T09:16:12Z</time>
      </trkpt>
      <trkpt lat="48.68924" lon="2.06107">
        <ele>100.92</ele>
        <time>2021-11-07T09:16:29Z</time>
      </trkpt>
      <trkpt lat="48.68906" lon="2.06109">
        <ele>101.81</ele>
        <time>2021-11-07T09:16:44Z</time>
      </trkpt>
      <trkpt lat="48.68892" lon="2.06113">
        <ele>101.59</ele>
        <time>2021-11-07T09:16:59Z</time>
      </trkpt>
      <trkpt lat="48.68871" lon="2.06117">
        <ele>102.6</ele>
        <time>2021-11-07T09:17:17Z</time>
      </trkpt>
      <trkpt lat="48.68853" lon="2.06121">
        <ele>102.44</ele>
        <time>2021-11-07T09:17:33Z</time>
      </trkpt>
      <trkpt lat="48.68839" lon="2.06128">
        <ele>102.55</ele>
        <time>2021-11-07T09:17:49Z</time>
      </trkpt>
      <trkpt lat="48.68818" lon="2.06136">
        <ele>103.14</ele>
        <time>2021-11-07T09:18:06Z</time>
      </trkpt>
      <trkpt lat="48.68797" lon="2.06141">
        <ele>103.41</ele>
        <time>2021-11-07T09:18:21Z</time>
      </trkpt>
      <trkpt lat="48.68777" lon="2.06146">
        <ele>103.49</ele>
        <time>2021-11-07T09:18:39Z</time>
      </trkpt>
      <trkpt lat="48.68758" lon="2.06154">
        <ele>104.07</ele>
        <time>2021-11-07T09:18:55Z</time>
      </trkpt>
      <trkpt lat="48.68743" lon="2.06162">
        <ele>104</ele>
        <time>2021-11-07T09:19:09Z</time>
      </trkpt>
      <trkpt lat="48.68737" lon="2.06162">
        <ele>104.04</ele>
        <time>2021-11-07T09:19:13Z</time>
      </trkpt>
      <trkpt lat="48.68713" lon="2.0617">
        <ele>103.98</ele>
        <time>2021-11-07T09:19:31Z</time>
      </trkpt>
      <trkpt lat="48.68709" lon="2.06171">
        <ele>104.18</ele>
        <time>2021-11-07T09:19:34Z</time>
      </trkpt>
      <trkpt lat="48.68686" lon="2.06177">
        <ele>104.9</ele>
        <time>2021-11-07T09:19:52Z</time>
      </trkpt>
      <trkpt lat="48.68667" lon="2.06183">
        <ele>105.48</ele>
        <time>2021-11-07T09:20:07Z</time>
      </trkpt>
      <trkpt lat="48.68644" lon="2.06191">
        <ele>106.31</ele>
        <time>2021-11-07T09:20:23Z</time>
      </trkpt>
      <trkpt lat="48.68623" lon="2.06191">
        <ele>106.53</ele>
        <time>2021-11-07T09:20:37Z</time>
      </trkpt>
      <trkpt lat="48.68608" lon="2.06191">
        <ele>106.5</ele>
        <time>2021-11-07T09:20:49Z</time>
      </trkpt>
      <trkpt lat="48.68585" lon="2.0619">
        <ele>106.61</ele>
        <time>2021-11-07T09:21:07Z</time>
      </trkpt>
      <trkpt lat="48.68572" lon="2.06181">
        <ele>107.28</ele>
        <time>2021-11-07T09:21:22Z</time>
      </trkpt>
      <trkpt lat="48.68549" lon="2.06175">
        <ele>107.24</ele>
        <time>2021-11-07T09:21:40Z</time>
      </trkpt>
      <trkpt lat="48.68528" lon="2.06171">
        <ele>107.46</ele>
        <time>2021-11-07T09:21:57Z</time>
      </trkpt>
      <trkpt lat="48.68511" lon="2.06164">
        <ele>108.22</ele>
        <time>2021-11-07T09:22:13Z</time>
      </trkpt>
      <trkpt lat="48.68496" lon="2.06157">
        <ele>108.4</ele>
        <time>2021-11-07T09:22:29Z</time>
      </trkpt>
      <trkpt lat="48.68475" lon="2.06141">
        <ele>109.54</ele>
        <time>2021-11-07T09:22:46Z</time>
      </trkpt>
      <trkpt lat="48.68456" lon="2.06127">
        <ele>109.94</ele>
        <time>2021-11-07T09:23:02Z</time>
      </trkpt>
      <trkpt lat="48.68454" lon="2.06124">
        <ele>110.12</ele>
        <time>2021-11-07T09:23:05Z</time>
      </trkpt>
      <trkpt lat="48.68436" lon="2.06104">
        <ele>110.56</ele>
        <time>2021-11-07T09:23:22Z</time>
      </trkpt>
      <trkpt lat="48.68424" lon="2.06089">
        <ele>110.78</ele>
        <time>2021-11-07T09:23:36Z</time>
      </trkpt>
      <trkpt lat="48.68411" lon="2.06073">
        <ele>111.66</ele>
        <time>2021-11-07T09:23:53Z</time>
      </trkpt>
      <trkpt lat="48.68403" lon="2.06064">
        <ele>111.99</ele>
        <time>2021-11-07T09:24:07Z</time>
      </trkpt>
      <trkpt lat="48.684" lon="2.06062">
        <ele>111.69</ele>
        <time>2021-11-07T09:24:19Z</time>
      </trkpt>
      <trkpt lat="48.68398" lon="2.06062">
        <ele>112.38</ele>
        <time>2021-11-07T09:24:25Z</time>
      </trkpt>
      <trkpt lat="48.68394" lon="2.06061">
        <ele>112.43</ele>
        <time>2021-11-07T09:24:44Z</time>
      </trkpt>
      <trkpt lat="48.68395" lon="2.0606">
        <ele>112.17</ele>
        <time>2021-11-07T09:24:51Z</time>
      </trkpt>
      <trkpt lat="48.6839" lon="2.06047">
        <ele>112.43</ele>
        <time>2021-11-07T09:25:07Z</time>
      </trkpt>
      <trkpt lat="48.68389" lon="2.06041">
        <ele>112.27</ele>
        <time>2021-11-07T09:25:14Z</time>
      </trkpt>
      <trkpt lat="48.68386" lon="2.06033">
        <ele>112.86</ele>
        <time>2021-11-07T09:25:26Z</time>
      </trkpt>
      <trkpt lat="48.68375" lon="2.06018">
        <ele>112.51</ele>
        <time>2021-11-07T09:25:41Z</time>
      </trkpt>
      <trkpt lat="48.68367" lon="2.06001">
        <ele>112.71</ele>
        <time>2021-11-07T09:26:00Z</time>
      </trkpt>
      <trkpt lat="48.68366" lon="2.05999">
        <ele>113.16</ele>
        <time>2021-11-07T09:26:04Z</time>
      </trkpt>
      <trkpt lat="48.68361" lon="2.05983">
        <ele>113.35</ele>
        <time>2021-11-07T09:26:21Z</time>
      </trkpt>
      <trkpt lat="48.68357" lon="2.05976">
        <ele>112.84</ele>
        <time>2021-11-07T09:26:31Z</time>
      </trkpt>
      <trkpt lat="48.68343" lon="2.05958">
        <ele>113.22</ele>
        <time>2021-11-07T09:26:47Z</time>
      </trkpt>
      <trkpt lat="48.68341" lon="2.05955">
        <ele>113.61</ele>
        <time>2021-11-07T09:26:50Z</time>
      </trkpt>
      <trkpt lat="48.68334" lon="2.05934">
        <ele>113.81</ele>
        <time>2021-11-07T09:27:05Z</time>
      </trkpt>
      <trkpt lat="48.68326" lon="2.05903">
        <ele>114.73</ele>
        <time>2021-11-07T09:27:22Z</time>
      </trkpt>
      <trkpt lat="48.68318" lon="2.05883">
        <ele>115.03</ele>
        <time>2021-11-07T09:27:36Z</time>
      </trkpt>
      <trkpt lat="48.68313" lon="2.05863">
        <ele>115.17</ele>
        <time>2021-11-07T09:27:50Z</time>
      </trkpt>
      <trkpt lat="48.68303" lon="2.05834">
        <ele>115.66</ele>
        <time>2021-11-07T09:28:07Z</time>
      </trkpt>
      <trkpt lat="48.68293" lon="2.05812">
        <ele>115.65</ele>
        <time>2021-11-07T09:28:21Z</time>
      </trkpt>
      <trkpt lat="48.68287" lon="2.05792">
        <ele>115.99</ele>
        <time>2021-11-07T09:28:35Z</time>
      </trkpt>
      <trkpt lat="48.68279" lon="2.05764">
        <ele>116.54</ele>
        <time>2021-11-07T09:28:50Z</time>
      </trkpt>
      <trkpt lat="48.68271" lon="2.05737">
        <ele>116.62</ele>
        <time>2021-11-07T09:29:07Z</time>
      </trkpt>
      <trkpt lat="48.68262" lon="2.05719">
        <ele>117.33</ele>
        <time>2021-11-07T09:29:21Z</time>
      </trkpt>
      <trkpt lat="48.68252" lon="2.05696">
        <ele>117.73</ele>
        <time>2021-11-07T09:29:36Z</time>
      </trkpt>
      <trkpt lat="48.68242" lon="2.05666">
        <ele>117.99</ele>
        <time>2021-11-07T09:29:53Z</time>
      </trkpt>
      <trkpt lat="48.68231" lon="2.05642">
        <ele>118.65</ele>
        <time>2021-11-07T09:30:09Z</time>
      </trkpt>
      <trkpt lat="48.68227" lon="2.05633">
        <ele>118.79</ele>
        <time>2021-11-07T09:30:15Z</time>
      </trkpt>
      <trkpt lat="48.68222" lon="2.05624">
        <ele>118.94</ele>
        <time>2021-11-07T09:30:21Z</time>
      </trkpt>
      <trkpt lat="48.68205" lon="2.05594">
        <ele>120.02</ele>
        <time>2021-11-07T09:30:39Z</time>
      </trkpt>
      <trkpt lat="48.68191" lon="2.05568">
        <ele>120.42</ele>
        <time>2021-11-07T09:30:56Z</time>
      </trkpt>
      <trkpt lat="48.68182" lon="2.05553">
        <ele>120.73</ele>
        <time>2021-11-07T09:31:07Z</time>
      </trkpt>
      <trkpt lat="48.68162" lon="2.05534">
        <ele>120.94</ele>
        <time>2021-11-07T09:31:23Z</time>
      </trkpt>
      <trkpt lat="48.6815" lon="2.05518">
        <ele>121.33</ele>
        <time>2021-11-07T09:31:37Z</time>
      </trkpt>
      <trkpt lat="48.68131" lon="2.05495">
        <ele>121.69</ele>
        <time>2021-11-07T09:31:56Z</time>
      </trkpt>
      <trkpt lat="48.68113" lon="2.05484">
        <ele>122.27</ele>
        <time>2021-11-07T09:32:12Z</time>
      </trkpt>
      <trkpt lat="48.68098" lon="2.05471">
        <ele>122.34</ele>
        <time>2021-11-07T09:32:26Z</time>
      </trkpt>
      <trkpt lat="48.68086" lon="2.0546">
        <ele>122.61</ele>
        <time>2021-11-07T09:32:41Z</time>
      </trkpt>
      <trkpt lat="48.68069" lon="2.05446">
        <ele>122.92</ele>
        <time>2021-11-07T09:32:57Z</time>
      </trkpt>
      <trkpt lat="48.68048" lon="2.05433">
        <ele>123.32</ele>
        <time>2021-11-07T09:33:15Z</time>
      </trkpt>
      <trkpt lat="48.68024" lon="2.05418">
        <ele>124.08</ele>
        <time>2021-11-07T09:33:33Z</time>
      </trkpt>
      <trkpt lat="48.68002" lon="2.05405">
        <ele>124.4</ele>
        <time>2021-11-07T09:33:50Z</time>
      </trkpt>
      <trkpt lat="48.67985" lon="2.05391">
        <ele>124.62</ele>
        <time>2021-11-07T09:34:06Z</time>
      </trkpt>
      <trkpt lat="48.67964" lon="2.05376">
        <ele>125.4</ele>
        <time>2021-11-07T09:34:26Z</time>
      </trkpt>
      <trkpt lat="48.67951" lon="2.05366">
        <ele>125.46</ele>
        <time>2021-11-07T09:34:39Z</time>
      </trkpt>
      <trkpt lat="48.67928" lon="2.05351">
        <ele>126.23</ele>
        <time>2021-11-07T09:35:01Z</time>
      </trkpt>
      <trkpt lat="48.67912" lon="2.05342">
        <ele>127.16</ele>
        <time>2021-11-07T09:35:16Z</time>
      </trkpt>
      <trkpt lat="48.67894" lon="2.05329">
        <ele>126.74</ele>
        <time>2021-11-07T09:35:33Z</time>
      </trkpt>
      <trkpt lat="48.67891" lon="2.05327">
        <ele>127</ele>
        <time>2021-11-07T09:35:35Z</time>
      </trkpt>
      <trkpt lat="48.67889" lon="2.05325">
        <ele>127.46</ele>
        <time>2021-11-07T09:35:37Z</time>
      </trkpt>
      <trkpt lat="48.6787" lon="2.05313">
        <ele>127.36</ele>
        <time>2021-11-07T09:35:53Z</time>
      </trkpt>
      <trkpt lat="48.67854" lon="2.05303">
        <ele>127.72</ele>
        <time>2021-11-07T09:36:07Z</time>
      </trkpt>
      <trkpt lat="48.67851" lon="2.05299">
        <ele>128.05</ele>
        <time>2021-11-07T09:36:11Z</time>
      </trkpt>
      <trkpt lat="48.67846" lon="2.05296">
        <ele>127.89</ele>
        <time>2021-11-07T09:36:15Z</time>
      </trkpt>
      <trkpt lat="48.67828" lon="2.05283">
        <ele>128.29</ele>
        <time>2021-11-07T09:36:30Z</time>
      </trkpt>
      <trkpt lat="48.67814" lon="2.05273">
        <ele>128.93</ele>
        <time>2021-11-07T09:36:42Z</time>
      </trkpt>
      <trkpt lat="48.67795" lon="2.05258">
        <ele>129.74</ele>
        <time>2021-11-07T09:36:59Z</time>
      </trkpt>
      <trkpt lat="48.67786" lon="2.05248">
        <ele>130.11</ele>
        <time>2021-11-07T09:37:09Z</time>
      </trkpt>
      <trkpt lat="48.67768" lon="2.05239">
        <ele>130.51</ele>
        <time>2021-11-07T09:37:24Z</time>
      </trkpt>
      <trkpt lat="48.67748" lon="2.05228">
        <ele>130.21</ele>
        <time>2021-11-07T09:37:41Z</time>
      </trkpt>
      <trkpt lat="48.67731" lon="2.05222">
        <ele>131.29</ele>
        <time>2021-11-07T09:37:53Z</time>
      </trkpt>
      <trkpt lat="48.6773" lon="2.05222">
        <ele>130.84</ele>
        <time>2021-11-07T09:37:55Z</time>
      </trkpt>
      <trkpt lat="48.67711" lon="2.05219">
        <ele>131.37</ele>
        <time>2021-11-07T09:38:10Z</time>
      </trkpt>
      <trkpt lat="48.67695" lon="2.05213">
        <ele>132.32</ele>
        <time>2021-11-07T09:38:25Z</time>
      </trkpt>
      <trkpt lat="48.67694" lon="2.05213">
        <ele>131.97</ele>
        <time>2021-11-07T09:38:26Z</time>
      </trkpt>
      <trkpt lat="48.67675" lon="2.0521">
        <ele>132.22</ele>
        <time>2021-11-07T09:38:41Z</time>
      </trkpt>
      <trkpt lat="48.67665" lon="2.05208">
        <ele>132.49</ele>
        <time>2021-11-07T09:38:50Z</time>
      </trkpt>
      <trkpt lat="48.67648" lon="2.0521">
        <ele>132.91</ele>
        <time>2021-11-07T09:39:07Z</time>
      </trkpt>
      <trkpt lat="48.67626" lon="2.05211">
        <ele>133.55</ele>
        <time>2021-11-07T09:39:26Z</time>
      </trkpt>
      <trkpt lat="48.67608" lon="2.05213">
        <ele>133.91</ele>
        <time>2021-11-07T09:39:41Z</time>
      </trkpt>
      <trkpt lat="48.67587" lon="2.05218">
        <ele>134.5</ele>
        <time>2021-11-07T09:39:56Z</time>
      </trkpt>
      <trkpt lat="48.67566" lon="2.05223">
        <ele>135.41</ele>
        <time>2021-11-07T09:40:12Z</time>
      </trkpt>
      <trkpt lat="48.67551" lon="2.0523">
        <ele>135.82</ele>
        <time>2021-11-07T09:40:27Z</time>
      </trkpt>
      <trkpt lat="48.67533" lon="2.05241">
        <ele>136.09</ele>
        <time>2021-11-07T09:40:43Z</time>
      </trkpt>
      <trkpt lat="48.67518" lon="2.05247">
        <ele>136.34</ele>
        <time>2021-11-07T09:40:53Z</time>
      </trkpt>
      <trkpt lat="48.67503" lon="2.05254">
        <ele>137.46</ele>
        <time>2021-11-07T09:41:07Z</time>
      </trkpt>
      <trkpt lat="48.67491" lon="2.05259">
        <ele>137.53</ele>
        <time>2021-11-07T09:41:23Z</time>
      </trkpt>
      <trkpt lat="48.6748" lon="2.05267">
        <ele>138.31</ele>
        <time>2021-11-07T09:41:34Z</time>
      </trkpt>
      <trkpt lat="48.67462" lon="2.05279">
        <ele>139.06</ele>
        <time>2021-11-07T09:41:50Z</time>
      </trkpt>
      <trkpt lat="48.67442" lon="2.05285">
        <ele>139.49</ele>
        <time>2021-11-07T09:42:07Z</time>
      </trkpt>
      <trkpt lat="48.67427" lon="2.05293">
        <ele>139.96</ele>
        <time>2021-11-07T09:42:22Z</time>
      </trkpt>
      <trkpt lat="48.67416" lon="2.05294">
        <ele>140.33</ele>
        <time>2021-11-07T09:42:38Z</time>
      </trkpt>
      <trkpt lat="48.67398" lon="2.05307">
        <ele>140.76</ele>
        <time>2021-11-07T09:42:55Z</time>
      </trkpt>
      <trkpt lat="48.67389" lon="2.05317">
        <ele>141.3</ele>
        <time>2021-11-07T09:43:12Z</time>
      </trkpt>
      <trkpt lat="48.67374" lon="2.05323">
        <ele>141.71</ele>
        <time>2021-11-07T09:43:21Z</time>
      </trkpt>
      <trkpt lat="48.67352" lon="2.05333">
        <ele>142.06</ele>
        <time>2021-11-07T09:43:39Z</time>
      </trkpt>
      <trkpt lat="48.67325" lon="2.05339">
        <ele>142.15</ele>
        <time>2021-11-07T09:43:56Z</time>
      </trkpt>
      <trkpt lat="48.67303" lon="2.05339">
        <ele>143.31</ele>
        <time>2021-11-07T09:44:13Z</time>
      </trkpt>
      <trkpt lat="48.67281" lon="2.05345">
        <ele>143.72</ele>
        <time>2021-11-07T09:44:31Z</time>
      </trkpt>
      <trkpt lat="48.67262" lon="2.05344">
        <ele>143.87</ele>
        <time>2021-11-07T09:44:45Z</time>
      </trkpt>
      <trkpt lat="48.67248" lon="2.05342">
        <ele>144.51</ele>
        <time>2021-11-07T09:45:01Z</time>
      </trkpt>
      <trkpt lat="48.6723" lon="2.05341">
        <ele>144.78</ele>
        <time>2021-11-07T09:45:17Z</time>
      </trkpt>
      <trkpt lat="48.67207" lon="2.05343">
        <ele>145.16</ele>
        <time>2021-11-07T09:45:34Z</time>
      </trkpt>
      <trkpt lat="48.67181" lon="2.05344">
        <ele>145.66</ele>
        <time>2021-11-07T09:45:53Z</time>
      </trkpt>
      <trkpt lat="48.67171" lon="2.05342">
        <ele>145.69</ele>
        <time>2021-11-07T09:46:02Z</time>
      </trkpt>
      <trkpt lat="48.67151" lon="2.05337">
        <ele>146.5</ele>
        <time>2021-11-07T09:46:18Z</time>
      </trkpt>
      <trkpt lat="48.67129" lon="2.05331">
        <ele>147</ele>
        <time>2021-11-07T09:46:35Z</time>
      </trkpt>
      <trkpt lat="48.67123" lon="2.05331">
        <ele>147.15</ele>
        <time>2021-11-07T09:46:40Z</time>
      </trkpt>
      <trkpt lat="48.67118" lon="2.05329">
        <ele>147.24</ele>
        <time>2021-11-07T09:46:44Z</time>
      </trkpt>
      <trkpt lat="48.67096" lon="2.05316">
        <ele>148.22</ele>
        <time>2021-11-07T09:47:02Z</time>
      </trkpt>
      <trkpt lat="48.67091" lon="2.05312">
        <ele>148.27</ele>
        <time>2021-11-07T09:47:14Z</time>
      </trkpt>
      <trkpt lat="48.67086" lon="2.05306">
        <ele>148.03</ele>
        <time>2021-11-07T09:47:31Z</time>
      </trkpt>
      <trkpt lat="48.67085" lon="2.05321">
        <ele>150.59</ele>
        <time>2021-11-07T09:53:40Z</time>
      </trkpt>
      <trkpt lat="48.6709" lon="2.05327">
        <ele>151.64</ele>
        <time>2021-11-07T09:53:47Z</time>
      </trkpt>
      <trkpt lat="48.67094" lon="2.05334">
        <ele>151.92</ele>
        <time>2021-11-07T09:54:02Z</time>
      </trkpt>
      <trkpt lat="48.67094" lon="2.05335">
        <ele>151.52</ele>
        <time>2021-11-07T09:54:04Z</time>
      </trkpt>
      <trkpt lat="48.67103" lon="2.05349">
        <ele>151.95</ele>
        <time>2021-11-07T09:54:19Z</time>
      </trkpt>
      <trkpt lat="48.67122" lon="2.05366">
        <ele>151.52</ele>
        <time>2021-11-07T09:54:33Z</time>
      </trkpt>
      <trkpt lat="48.67125" lon="2.05378">
        <ele>152.06</ele>
        <time>2021-11-07T09:54:47Z</time>
      </trkpt>
      <trkpt lat="48.67128" lon="2.054">
        <ele>152.71</ele>
        <time>2021-11-07T09:55:06Z</time>
      </trkpt>
      <trkpt lat="48.67126" lon="2.05427">
        <ele>153.29</ele>
        <time>2021-11-07T09:55:22Z</time>
      </trkpt>
      <trkpt lat="48.67126" lon="2.05437">
        <ele>153.34</ele>
        <time>2021-11-07T09:55:27Z</time>
      </trkpt>
      <trkpt lat="48.67122" lon="2.05452">
        <ele>153.21</ele>
        <time>2021-11-07T09:55:37Z</time>
      </trkpt>
      <trkpt lat="48.67119" lon="2.05469">
        <ele>153.63</ele>
        <time>2021-11-07T09:55:48Z</time>
      </trkpt>
      <trkpt lat="48.67123" lon="2.055">
        <ele>153.44</ele>
        <time>2021-11-07T09:56:03Z</time>
      </trkpt>
      <trkpt lat="48.67123" lon="2.05513">
        <ele>153.29</ele>
        <time>2021-11-07T09:56:10Z</time>
      </trkpt>
      <trkpt lat="48.67124" lon="2.05522">
        <ele>153.29</ele>
        <time>2021-11-07T09:56:15Z</time>
      </trkpt>
      <trkpt lat="48.67124" lon="2.05536">
        <ele>152.8</ele>
        <time>2021-11-07T09:56:26Z</time>
      </trkpt>
      <trkpt lat="48.67115" lon="2.05563">
        <ele>152.65</ele>
        <time>2021-11-07T09:56:42Z</time>
      </trkpt>
      <trkpt lat="48.67117" lon="2.05574">
        <ele>153.22</ele>
        <time>2021-11-07T09:56:51Z</time>
      </trkpt>
      <trkpt lat="48.67116" lon="2.05593">
        <ele>153.76</ele>
        <time>2021-11-07T09:57:04Z</time>
      </trkpt>
      <trkpt lat="48.67112" lon="2.05606">
        <ele>153.47</ele>
        <time>2021-11-07T09:57:11Z</time>
      </trkpt>
      <trkpt lat="48.6711" lon="2.0562">
        <ele>153.33</ele>
        <time>2021-11-07T09:57:22Z</time>
      </trkpt>
      <trkpt lat="48.6711" lon="2.05627">
        <ele>153.49</ele>
        <time>2021-11-07T09:57:30Z</time>
      </trkpt>
      <trkpt lat="48.67107" lon="2.05636">
        <ele>152.06</ele>
        <time>2021-11-07T09:57:44Z</time>
      </trkpt>
      <trkpt lat="48.67103" lon="2.05645">
        <ele>153.34</ele>
        <time>2021-11-07T09:57:49Z</time>
      </trkpt>
      <trkpt lat="48.67101" lon="2.05651">
        <ele>153.12</ele>
        <time>2021-11-07T09:57:52Z</time>
      </trkpt>
      <trkpt lat="48.67098" lon="2.05662">
        <ele>152.63</ele>
        <time>2021-11-07T09:57:59Z</time>
      </trkpt>
      <trkpt lat="48.67097" lon="2.0567">
        <ele>152.63</ele>
        <time>2021-11-07T09:58:03Z</time>
      </trkpt>
      <trkpt lat="48.67103" lon="2.05677">
        <ele>152.16</ele>
        <time>2021-11-07T09:58:07Z</time>
      </trkpt>
      <trkpt lat="48.67102" lon="2.05686">
        <ele>152.64</ele>
        <time>2021-11-07T09:58:13Z</time>
      </trkpt>
      <trkpt lat="48.671" lon="2.057">
        <ele>151.64</ele>
        <time>2021-11-07T09:58:21Z</time>
      </trkpt>
      <trkpt lat="48.67101" lon="2.05713">
        <ele>151.5</ele>
        <time>2021-11-07T09:58:28Z</time>
      </trkpt>
      <trkpt lat="48.67101" lon="2.05718">
        <ele>151.36</ele>
        <time>2021-11-07T09:58:31Z</time>
      </trkpt>
      <trkpt lat="48.671" lon="2.05727">
        <ele>151.42</ele>
        <time>2021-11-07T09:58:35Z</time>
      </trkpt>
      <trkpt lat="48.671" lon="2.05734">
        <ele>151.32</ele>
        <time>2021-11-07T09:58:38Z</time>
      </trkpt>
      <trkpt lat="48.67098" lon="2.05747">
        <ele>150.53</ele>
        <time>2021-11-07T09:58:45Z</time>
      </trkpt>
      <trkpt lat="48.67099" lon="2.05753">
        <ele>150.82</ele>
        <time>2021-11-07T09:58:48Z</time>
      </trkpt>
      <trkpt lat="48.67098" lon="2.05771">
        <ele>150.48</ele>
        <time>2021-11-07T09:58:58Z</time>
      </trkpt>
      <trkpt lat="48.67099" lon="2.05773">
        <ele>149.99</ele>
        <time>2021-11-07T09:58:59Z</time>
      </trkpt>
      <trkpt lat="48.67095" lon="2.05792">
        <ele>150.06</ele>
        <time>2021-11-07T09:59:07Z</time>
      </trkpt>
      <trkpt lat="48.67094" lon="2.05798">
        <ele>149.94</ele>
        <time>2021-11-07T09:59:10Z</time>
      </trkpt>
      <trkpt lat="48.67092" lon="2.05817">
        <ele>149.8</ele>
        <time>2021-11-07T09:59:19Z</time>
      </trkpt>
      <trkpt lat="48.67092" lon="2.05835">
        <ele>150.05</ele>
        <time>2021-11-07T09:59:28Z</time>
      </trkpt>
      <trkpt lat="48.67091" lon="2.05839">
        <ele>149.59</ele>
        <time>2021-11-07T09:59:30Z</time>
      </trkpt>
      <trkpt lat="48.67092" lon="2.05844">
        <ele>149.57</ele>
        <time>2021-11-07T09:59:33Z</time>
      </trkpt>
      <trkpt lat="48.67093" lon="2.05859">
        <ele>149.78</ele>
        <time>2021-11-07T09:59:40Z</time>
      </trkpt>
      <trkpt lat="48.67095" lon="2.05881">
        <ele>149.39</ele>
        <time>2021-11-07T09:59:51Z</time>
      </trkpt>
      <trkpt lat="48.67097" lon="2.05893">
        <ele>149.52</ele>
        <time>2021-11-07T09:59:57Z</time>
      </trkpt>
      <trkpt lat="48.67098" lon="2.05902">
        <ele>149.14</ele>
        <time>2021-11-07T10:00:02Z</time>
      </trkpt>
      <trkpt lat="48.67099" lon="2.05914">
        <ele>148.91</ele>
        <time>2021-11-07T10:00:08Z</time>
      </trkpt>
      <trkpt lat="48.67099" lon="2.05917">
        <ele>148.81</ele>
        <time>2021-11-07T10:00:10Z</time>
      </trkpt>
      <trkpt lat="48.67103" lon="2.05936">
        <ele>148.85</ele>
        <time>2021-11-07T10:00:21Z</time>
      </trkpt>
      <trkpt lat="48.67105" lon="2.0595">
        <ele>148.54</ele>
        <time>2021-11-07T10:00:28Z</time>
      </trkpt>
      <trkpt lat="48.67106" lon="2.05952">
        <ele>148.76</ele>
        <time>2021-11-07T10:00:29Z</time>
      </trkpt>
      <trkpt lat="48.67106" lon="2.05958">
        <ele>148.62</ele>
        <time>2021-11-07T10:00:33Z</time>
      </trkpt>
      <trkpt lat="48.67106" lon="2.05959">
        <ele>148.39</ele>
        <time>2021-11-07T10:00:34Z</time>
      </trkpt>
      <trkpt lat="48.67106" lon="2.05961">
        <ele>148.47</ele>
        <time>2021-11-07T10:00:35Z</time>
      </trkpt>
      <trkpt lat="48.67107" lon="2.05963">
        <ele>148.2</ele>
        <time>2021-11-07T10:00:36Z</time>
      </trkpt>
      <trkpt lat="48.67107" lon="2.05966">
        <ele>148.59</ele>
        <time>2021-11-07T10:00:37Z</time>
      </trkpt>
      <trkpt lat="48.67108" lon="2.05967">
        <ele>148.64</ele>
        <time>2021-11-07T10:00:38Z</time>
      </trkpt>
      <trkpt lat="48.6711" lon="2.05975">
        <ele>148.74</ele>
        <time>2021-11-07T10:00:43Z</time>
      </trkpt>
      <trkpt lat="48.6711" lon="2.05979">
        <ele>148.68</ele>
        <time>2021-11-07T10:00:45Z</time>
      </trkpt>
      <trkpt lat="48.67111" lon="2.05984">
        <ele>148.65</ele>
        <time>2021-11-07T10:00:48Z</time>
      </trkpt>
      <trkpt lat="48.67111" lon="2.05986">
        <ele>148.92</ele>
        <time>2021-11-07T10:00:49Z</time>
      </trkpt>
      <trkpt lat="48.67111" lon="2.05989">
        <ele>148.63</ele>
        <time>2021-11-07T10:00:50Z</time>
      </trkpt>
      <trkpt lat="48.67112" lon="2.05991">
        <ele>148.7</ele>
        <time>2021-11-07T10:00:51Z</time>
      </trkpt>
      <trkpt lat="48.67111" lon="2.05993">
        <ele>148.68</ele>
        <time>2021-11-07T10:00:52Z</time>
      </trkpt>
      <trkpt lat="48.67111" lon="2.05995">
        <ele>147.95</ele>
        <time>2021-11-07T10:00:53Z</time>
      </trkpt>
      <trkpt lat="48.67112" lon="2.05997">
        <ele>147.93</ele>
        <time>2021-11-07T10:00:54Z</time>
      </trkpt>
      <trkpt lat="48.67112" lon="2.05999">
        <ele>148.63</ele>
        <time>2021-11-07T10:00:55Z</time>
      </trkpt>
      <trkpt lat="48.67112" lon="2.06001">
        <ele>147.93</ele>
        <time>2021-11-07T10:00:56Z</time>
      </trkpt>
      <trkpt lat="48.67114" lon="2.06022">
        <ele>147.78</ele>
        <time>2021-11-07T10:01:07Z</time>
      </trkpt>
      <trkpt lat="48.67117" lon="2.06038">
        <ele>148.15</ele>
        <time>2021-11-07T10:01:15Z</time>
      </trkpt>
      <trkpt lat="48.67118" lon="2.0604">
        <ele>148.12</ele>
        <time>2021-11-07T10:01:16Z</time>
      </trkpt>
      <trkpt lat="48.67119" lon="2.06046">
        <ele>148.13</ele>
        <time>2021-11-07T10:01:20Z</time>
      </trkpt>
      <trkpt lat="48.67118" lon="2.06048">
        <ele>148.11</ele>
        <time>2021-11-07T10:01:21Z</time>
      </trkpt>
      <trkpt lat="48.67115" lon="2.06056">
        <ele>148.02</ele>
        <time>2021-11-07T10:01:25Z</time>
      </trkpt>
      <trkpt lat="48.67115" lon="2.06058">
        <ele>148.29</ele>
        <time>2021-11-07T10:01:26Z</time>
      </trkpt>
      <trkpt lat="48.67115" lon="2.0606">
        <ele>147.97</ele>
        <time>2021-11-07T10:01:27Z</time>
      </trkpt>
      <trkpt lat="48.67114" lon="2.06066">
        <ele>147.71</ele>
        <time>2021-11-07T10:01:30Z</time>
      </trkpt>
      <trkpt lat="48.67114" lon="2.06067">
        <ele>147.73</ele>
        <time>2021-11-07T10:01:31Z</time>
      </trkpt>
      <trkpt lat="48.67113" lon="2.06069">
        <ele>147.52</ele>
        <time>2021-11-07T10:01:32Z</time>
      </trkpt>
      <trkpt lat="48.67113" lon="2.06071">
        <ele>147.71</ele>
        <time>2021-11-07T10:01:33Z</time>
      </trkpt>
      <trkpt lat="48.67112" lon="2.06073">
        <ele>147.2</ele>
        <time>2021-11-07T10:01:34Z</time>
      </trkpt>
      <trkpt lat="48.67112" lon="2.06074">
        <ele>147.68</ele>
        <time>2021-11-07T10:01:35Z</time>
      </trkpt>
      <trkpt lat="48.67112" lon="2.06076">
        <ele>147.49</ele>
        <time>2021-11-07T10:01:36Z</time>
      </trkpt>
      <trkpt lat="48.67112" lon="2.06079">
        <ele>147.47</ele>
        <time>2021-11-07T10:01:37Z</time>
      </trkpt>
      <trkpt lat="48.67112" lon="2.06084">
        <ele>147.41</ele>
        <time>2021-11-07T10:01:40Z</time>
      </trkpt>
      <trkpt lat="48.67112" lon="2.06085">
        <ele>147.38</ele>
        <time>2021-11-07T10:01:41Z</time>
      </trkpt>
      <trkpt lat="48.67112" lon="2.06089">
        <ele>147.05</ele>
        <time>2021-11-07T10:01:43Z</time>
      </trkpt>
      <trkpt lat="48.67111" lon="2.06091">
        <ele>147.14</ele>
        <time>2021-11-07T10:01:44Z</time>
      </trkpt>
      <trkpt lat="48.67109" lon="2.06102">
        <ele>147.27</ele>
        <time>2021-11-07T10:01:50Z</time>
      </trkpt>
      <trkpt lat="48.67109" lon="2.06112">
        <ele>147.56</ele>
        <time>2021-11-07T10:01:55Z</time>
      </trkpt>
      <trkpt lat="48.67109" lon="2.06114">
        <ele>147.03</ele>
        <time>2021-11-07T10:01:56Z</time>
      </trkpt>
      <trkpt lat="48.6711" lon="2.06116">
        <ele>147.04</ele>
        <time>2021-11-07T10:01:57Z</time>
      </trkpt>
      <trkpt lat="48.6711" lon="2.06119">
        <ele>147.15</ele>
        <time>2021-11-07T10:01:58Z</time>
      </trkpt>
      <trkpt lat="48.6711" lon="2.06121">
        <ele>146.72</ele>
        <time>2021-11-07T10:01:59Z</time>
      </trkpt>
      <trkpt lat="48.6711" lon="2.06125">
        <ele>146.97</ele>
        <time>2021-11-07T10:02:01Z</time>
      </trkpt>
      <trkpt lat="48.67109" lon="2.06128">
        <ele>146.81</ele>
        <time>2021-11-07T10:02:03Z</time>
      </trkpt>
      <trkpt lat="48.67109" lon="2.0613">
        <ele>146.81</ele>
        <time>2021-11-07T10:02:04Z</time>
      </trkpt>
      <trkpt lat="48.67108" lon="2.06132">
        <ele>146.55</ele>
        <time>2021-11-07T10:02:05Z</time>
      </trkpt>
      <trkpt lat="48.67107" lon="2.06136">
        <ele>146.8</ele>
        <time>2021-11-07T10:02:07Z</time>
      </trkpt>
      <trkpt lat="48.67106" lon="2.06137">
        <ele>146.97</ele>
        <time>2021-11-07T10:02:08Z</time>
      </trkpt>
      <trkpt lat="48.67105" lon="2.06139">
        <ele>146.75</ele>
        <time>2021-11-07T10:02:09Z</time>
      </trkpt>
      <trkpt lat="48.67105" lon="2.0614">
        <ele>146.76</ele>
        <time>2021-11-07T10:02:10Z</time>
      </trkpt>
      <trkpt lat="48.67104" lon="2.06142">
        <ele>146.49</ele>
        <time>2021-11-07T10:02:11Z</time>
      </trkpt>
      <trkpt lat="48.67104" lon="2.06144">
        <ele>146.42</ele>
        <time>2021-11-07T10:02:12Z</time>
      </trkpt>
      <trkpt lat="48.67104" lon="2.06146">
        <ele>146.57</ele>
        <time>2021-11-07T10:02:13Z</time>
      </trkpt>
      <trkpt lat="48.67104" lon="2.06148">
        <ele>146.75</ele>
        <time>2021-11-07T10:02:14Z</time>
      </trkpt>
      <trkpt lat="48.67104" lon="2.06149">
        <ele>146.44</ele>
        <time>2021-11-07T10:02:15Z</time>
      </trkpt>
      <trkpt lat="48.67103" lon="2.06154">
        <ele>146.64</ele>
        <time>2021-11-07T10:02:18Z</time>
      </trkpt>
      <trkpt lat="48.67103" lon="2.06156">
        <ele>146.84</ele>
        <time>2021-11-07T10:02:19Z</time>
      </trkpt>
      <trkpt lat="48.67104" lon="2.06158">
        <ele>146.58</ele>
        <time>2021-11-07T10:02:21Z</time>
      </trkpt>
      <trkpt lat="48.67105" lon="2.06163">
        <ele>146.41</ele>
        <time>2021-11-07T10:02:30Z</time>
      </trkpt>
      <trkpt lat="48.67105" lon="2.06171">
        <ele>146.35</ele>
        <time>2021-11-07T10:02:44Z</time>
      </trkpt>
      <trkpt lat="48.67107" lon="2.06185">
        <ele>146.44</ele>
        <time>2021-11-07T10:02:55Z</time>
      </trkpt>
      <trkpt lat="48.67107" lon="2.06193">
        <ele>146.23</ele>
        <time>2021-11-07T10:03:05Z</time>
      </trkpt>
      <trkpt lat="48.67107" lon="2.06195">
        <ele>146.58</ele>
        <time>2021-11-07T10:03:06Z</time>
      </trkpt>
      <trkpt lat="48.67106" lon="2.0621">
        <ele>146.17</ele>
        <time>2021-11-07T10:03:17Z</time>
      </trkpt>
      <trkpt lat="48.67107" lon="2.06213">
        <ele>146.75</ele>
        <time>2021-11-07T10:03:19Z</time>
      </trkpt>
      <trkpt lat="48.67108" lon="2.06216">
        <ele>146.15</ele>
        <time>2021-11-07T10:03:21Z</time>
      </trkpt>
      <trkpt lat="48.67109" lon="2.06218">
        <ele>145.87</ele>
        <time>2021-11-07T10:03:22Z</time>
      </trkpt>
      <trkpt lat="48.67111" lon="2.06233">
        <ele>146.18</ele>
        <time>2021-11-07T10:03:32Z</time>
      </trkpt>
      <trkpt lat="48.67113" lon="2.06238">
        <ele>145.84</ele>
        <time>2021-11-07T10:03:35Z</time>
      </trkpt>
      <trkpt lat="48.67113" lon="2.06239">
        <ele>146.1</ele>
        <time>2021-11-07T10:03:36Z</time>
      </trkpt>
      <trkpt lat="48.67114" lon="2.06241">
        <ele>146.1</ele>
        <time>2021-11-07T10:03:37Z</time>
      </trkpt>
      <trkpt lat="48.67114" lon="2.06245">
        <ele>145.9</ele>
        <time>2021-11-07T10:03:39Z</time>
      </trkpt>
      <trkpt lat="48.67115" lon="2.06247">
        <ele>145.62</ele>
        <time>2021-11-07T10:03:40Z</time>
      </trkpt>
      <trkpt lat="48.67116" lon="2.06249">
        <ele>145.58</ele>
        <time>2021-11-07T10:03:41Z</time>
      </trkpt>
      <trkpt lat="48.67119" lon="2.06256">
        <ele>146.12</ele>
        <time>2021-11-07T10:03:51Z</time>
      </trkpt>
      <trkpt lat="48.67124" lon="2.06256">
        <ele>146.21</ele>
        <time>2021-11-07T10:03:56Z</time>
      </trkpt>
      <trkpt lat="48.67125" lon="2.06257">
        <ele>145.3</ele>
        <time>2021-11-07T10:03:57Z</time>
      </trkpt>
      <trkpt lat="48.67128" lon="2.06269">
        <ele>146.1</ele>
        <time>2021-11-07T10:04:09Z</time>
      </trkpt>
      <trkpt lat="48.67127" lon="2.06271">
        <ele>145.5</ele>
        <time>2021-11-07T10:04:10Z</time>
      </trkpt>
      <trkpt lat="48.67127" lon="2.06272">
        <ele>145.62</ele>
        <time>2021-11-07T10:04:11Z</time>
      </trkpt>
      <trkpt lat="48.67123" lon="2.06285">
        <ele>145.64</ele>
        <time>2021-11-07T10:04:21Z</time>
      </trkpt>
      <trkpt lat="48.6712" lon="2.06294">
        <ele>145.29</ele>
        <time>2021-11-07T10:04:28Z</time>
      </trkpt>
      <trkpt lat="48.67119" lon="2.06301">
        <ele>144.85</ele>
        <time>2021-11-07T10:04:32Z</time>
      </trkpt>
      <trkpt lat="48.67114" lon="2.06313">
        <ele>144.87</ele>
        <time>2021-11-07T10:04:42Z</time>
      </trkpt>
      <trkpt lat="48.67112" lon="2.06326">
        <ele>144.53</ele>
        <time>2021-11-07T10:04:51Z</time>
      </trkpt>
      <trkpt lat="48.67109" lon="2.06346">
        <ele>143.9</ele>
        <time>2021-11-07T10:05:03Z</time>
      </trkpt>
      <trkpt lat="48.67105" lon="2.06363">
        <ele>143.92</ele>
        <time>2021-11-07T10:05:13Z</time>
      </trkpt>
      <trkpt lat="48.671" lon="2.06381">
        <ele>143.23</ele>
        <time>2021-11-07T10:05:24Z</time>
      </trkpt>
      <trkpt lat="48.67095" lon="2.06403">
        <ele>142.94</ele>
        <time>2021-11-07T10:05:35Z</time>
      </trkpt>
      <trkpt lat="48.67095" lon="2.06405">
        <ele>143.26</ele>
        <time>2021-11-07T10:05:36Z</time>
      </trkpt>
      <trkpt lat="48.67094" lon="2.06427">
        <ele>143.01</ele>
        <time>2021-11-07T10:05:49Z</time>
      </trkpt>
      <trkpt lat="48.67094" lon="2.06438">
        <ele>142.68</ele>
        <time>2021-11-07T10:05:56Z</time>
      </trkpt>
      <trkpt lat="48.67094" lon="2.0644">
        <ele>142.45</ele>
        <time>2021-11-07T10:05:57Z</time>
      </trkpt>
      <trkpt lat="48.67095" lon="2.06453">
        <ele>142.57</ele>
        <time>2021-11-07T10:06:05Z</time>
      </trkpt>
      <trkpt lat="48.67097" lon="2.06461">
        <ele>142.69</ele>
        <time>2021-11-07T10:06:11Z</time>
      </trkpt>
      <trkpt lat="48.67097" lon="2.06465">
        <ele>142.31</ele>
        <time>2021-11-07T10:06:20Z</time>
      </trkpt>
      <trkpt lat="48.67095" lon="2.06466">
        <ele>142.52</ele>
        <time>2021-11-07T10:06:22Z</time>
      </trkpt>
      <trkpt lat="48.67095" lon="2.06463">
        <ele>142.61</ele>
        <time>2021-11-07T10:06:33Z</time>
      </trkpt>
      <trkpt lat="48.67096" lon="2.06459">
        <ele>142.45</ele>
        <time>2021-11-07T10:06:55Z</time>
      </trkpt>
      <trkpt lat="48.67089" lon="2.06466">
        <ele>142.91</ele>
        <time>2021-11-07T10:07:01Z</time>
      </trkpt>
      <trkpt lat="48.67087" lon="2.06466">
        <ele>143.19</ele>
        <time>2021-11-07T10:07:02Z</time>
      </trkpt>
      <trkpt lat="48.67085" lon="2.06468">
        <ele>142.98</ele>
        <time>2021-11-07T10:07:04Z</time>
      </trkpt>
      <trkpt lat="48.67083" lon="2.06469">
        <ele>143.07</ele>
        <time>2021-11-07T10:07:05Z</time>
      </trkpt>
      <trkpt lat="48.67082" lon="2.0647">
        <ele>143.06</ele>
        <time>2021-11-07T10:07:06Z</time>
      </trkpt>
      <trkpt lat="48.67081" lon="2.06471">
        <ele>143.35</ele>
        <time>2021-11-07T10:07:07Z</time>
      </trkpt>
      <trkpt lat="48.67079" lon="2.06472">
        <ele>143.3</ele>
        <time>2021-11-07T10:07:08Z</time>
      </trkpt>
      <trkpt lat="48.67067" lon="2.0648">
        <ele>143.49</ele>
        <time>2021-11-07T10:07:17Z</time>
      </trkpt>
      <trkpt lat="48.67065" lon="2.06482">
        <ele>143.74</ele>
        <time>2021-11-07T10:07:27Z</time>
      </trkpt>
      <trkpt lat="48.67056" lon="2.06487">
        <ele>143.72</ele>
        <time>2021-11-07T10:07:42Z</time>
      </trkpt>
      <trkpt lat="48.67055" lon="2.06488">
        <ele>143.98</ele>
        <time>2021-11-07T10:07:43Z</time>
      </trkpt>
      <trkpt lat="48.67049" lon="2.06507">
        <ele>143.97</ele>
        <time>2021-11-07T10:07:56Z</time>
      </trkpt>
      <trkpt lat="48.67049" lon="2.0652">
        <ele>143.88</ele>
        <time>2021-11-07T10:08:03Z</time>
      </trkpt>
      <trkpt lat="48.67051" lon="2.06524">
        <ele>143.99</ele>
        <time>2021-11-07T10:08:06Z</time>
      </trkpt>
      <trkpt lat="48.6705" lon="2.06532">
        <ele>144.26</ele>
        <time>2021-11-07T10:08:10Z</time>
      </trkpt>
      <trkpt lat="48.6705" lon="2.06534">
        <ele>144.05</ele>
        <time>2021-11-07T10:08:11Z</time>
      </trkpt>
      <trkpt lat="48.67049" lon="2.06541">
        <ele>144.32</ele>
        <time>2021-11-07T10:08:15Z</time>
      </trkpt>
      <trkpt lat="48.6705" lon="2.06543">
        <ele>144.5</ele>
        <time>2021-11-07T10:08:16Z</time>
      </trkpt>
      <trkpt lat="48.6705" lon="2.06546">
        <ele>144.52</ele>
        <time>2021-11-07T10:08:18Z</time>
      </trkpt>
      <trkpt lat="48.67049" lon="2.06548">
        <ele>144.74</ele>
        <time>2021-11-07T10:08:19Z</time>
      </trkpt>
      <trkpt lat="48.67043" lon="2.06566">
        <ele>144.74</ele>
        <time>2021-11-07T10:08:30Z</time>
      </trkpt>
      <trkpt lat="48.67042" lon="2.06579">
        <ele>144.93</ele>
        <time>2021-11-07T10:08:42Z</time>
      </trkpt>
      <trkpt lat="48.67041" lon="2.06588">
        <ele>145.04</ele>
        <time>2021-11-07T10:08:56Z</time>
      </trkpt>
      <trkpt lat="48.67041" lon="2.06588">
        <ele>145.5</ele>
        <time>2021-11-07T10:08:59Z</time>
      </trkpt>
      <trkpt lat="48.67038" lon="2.06592">
        <ele>145.81</ele>
        <time>2021-11-07T10:09:14Z</time>
      </trkpt>
      <trkpt lat="48.67037" lon="2.06595">
        <ele>145.43</ele>
        <time>2021-11-07T10:09:20Z</time>
      </trkpt>
      <trkpt lat="48.67039" lon="2.06605">
        <ele>145.98</ele>
        <time>2021-11-07T10:09:27Z</time>
      </trkpt>
      <trkpt lat="48.67039" lon="2.06607">
        <ele>145.61</ele>
        <time>2021-11-07T10:09:28Z</time>
      </trkpt>
      <trkpt lat="48.67042" lon="2.06619">
        <ele>146.08</ele>
        <time>2021-11-07T10:09:36Z</time>
      </trkpt>
      <trkpt lat="48.67042" lon="2.06621">
        <ele>146.39</ele>
        <time>2021-11-07T10:09:37Z</time>
      </trkpt>
      <trkpt lat="48.67041" lon="2.06632">
        <ele>146.25</ele>
        <time>2021-11-07T10:09:43Z</time>
      </trkpt>
      <trkpt lat="48.67044" lon="2.06661">
        <ele>146.42</ele>
        <time>2021-11-07T10:09:58Z</time>
      </trkpt>
      <trkpt lat="48.67055" lon="2.06667">
        <ele>146.07</ele>
        <time>2021-11-07T10:10:11Z</time>
      </trkpt>
      <trkpt lat="48.67064" lon="2.06674">
        <ele>146.92</ele>
        <time>2021-11-07T10:10:19Z</time>
      </trkpt>
      <trkpt lat="48.67069" lon="2.0669">
        <ele>147.11</ele>
        <time>2021-11-07T10:10:32Z</time>
      </trkpt>
      <trkpt lat="48.6707" lon="2.06696">
        <ele>147.03</ele>
        <time>2021-11-07T10:10:47Z</time>
      </trkpt>
      <trkpt lat="48.6707" lon="2.06699">
        <ele>146.45</ele>
        <time>2021-11-07T10:11:08Z</time>
      </trkpt>
      <trkpt lat="48.6707" lon="2.06702">
        <ele>146.54</ele>
        <time>2021-11-07T10:11:28Z</time>
      </trkpt>
      <trkpt lat="48.67072" lon="2.06703">
        <ele>146.43</ele>
        <time>2021-11-07T10:11:51Z</time>
      </trkpt>
      <trkpt lat="48.67071" lon="2.06713">
        <ele>146.59</ele>
        <time>2021-11-07T10:12:07Z</time>
      </trkpt>
      <trkpt lat="48.67068" lon="2.0672">
        <ele>146.63</ele>
        <time>2021-11-07T10:12:12Z</time>
      </trkpt>
      <trkpt lat="48.67064" lon="2.06739">
        <ele>147.12</ele>
        <time>2021-11-07T10:12:29Z</time>
      </trkpt>
      <trkpt lat="48.6706" lon="2.06747">
        <ele>147.23</ele>
        <time>2021-11-07T10:12:37Z</time>
      </trkpt>
      <trkpt lat="48.67058" lon="2.06752">
        <ele>147.1</ele>
        <time>2021-11-07T10:12:41Z</time>
      </trkpt>
      <trkpt lat="48.67051" lon="2.06777">
        <ele>147.59</ele>
        <time>2021-11-07T10:12:57Z</time>
      </trkpt>
      <trkpt lat="48.67045" lon="2.068">
        <ele>146.48</ele>
        <time>2021-11-07T10:13:11Z</time>
      </trkpt>
      <trkpt lat="48.67042" lon="2.06825">
        <ele>147.69</ele>
        <time>2021-11-07T10:13:29Z</time>
      </trkpt>
      <trkpt lat="48.67039" lon="2.0684">
        <ele>147.08</ele>
        <time>2021-11-07T10:13:43Z</time>
      </trkpt>
      <trkpt lat="48.67036" lon="2.06846">
        <ele>147.44</ele>
        <time>2021-11-07T10:13:47Z</time>
      </trkpt>
      <trkpt lat="48.67035" lon="2.06847">
        <ele>146.92</ele>
        <time>2021-11-07T10:13:48Z</time>
      </trkpt>
      <trkpt lat="48.67026" lon="2.06862">
        <ele>147.94</ele>
        <time>2021-11-07T10:14:02Z</time>
      </trkpt>
      <trkpt lat="48.67024" lon="2.06864">
        <ele>147.14</ele>
        <time>2021-11-07T10:14:04Z</time>
      </trkpt>
      <trkpt lat="48.67023" lon="2.06865">
        <ele>147.58</ele>
        <time>2021-11-07T10:14:05Z</time>
      </trkpt>
      <trkpt lat="48.67023" lon="2.06867">
        <ele>147.34</ele>
        <time>2021-11-07T10:14:06Z</time>
      </trkpt>
      <trkpt lat="48.67011" lon="2.06885">
        <ele>147.83</ele>
        <time>2021-11-07T10:14:21Z</time>
      </trkpt>
      <trkpt lat="48.66995" lon="2.06908">
        <ele>147.36</ele>
        <time>2021-11-07T10:14:36Z</time>
      </trkpt>
      <trkpt lat="48.66994" lon="2.06909">
        <ele>147.43</ele>
        <time>2021-11-07T10:14:37Z</time>
      </trkpt>
      <trkpt lat="48.66991" lon="2.06915">
        <ele>147.59</ele>
        <time>2021-11-07T10:14:41Z</time>
      </trkpt>
      <trkpt lat="48.6699" lon="2.06917">
        <ele>147.31</ele>
        <time>2021-11-07T10:14:42Z</time>
      </trkpt>
      <trkpt lat="48.66989" lon="2.06918">
        <ele>147.74</ele>
        <time>2021-11-07T10:14:43Z</time>
      </trkpt>
      <trkpt lat="48.66988" lon="2.0692">
        <ele>147.79</ele>
        <time>2021-11-07T10:14:44Z</time>
      </trkpt>
      <trkpt lat="48.66987" lon="2.06922">
        <ele>147.71</ele>
        <time>2021-11-07T10:14:45Z</time>
      </trkpt>
      <trkpt lat="48.66986" lon="2.06923">
        <ele>147.4</ele>
        <time>2021-11-07T10:14:46Z</time>
      </trkpt>
      <trkpt lat="48.66985" lon="2.06924">
        <ele>147.57</ele>
        <time>2021-11-07T10:14:47Z</time>
      </trkpt>
      <trkpt lat="48.66984" lon="2.06925">
        <ele>147.77</ele>
        <time>2021-11-07T10:14:48Z</time>
      </trkpt>
      <trkpt lat="48.66978" lon="2.06937">
        <ele>148.05</ele>
        <time>2021-11-07T10:14:57Z</time>
      </trkpt>
      <trkpt lat="48.66976" lon="2.06942">
        <ele>148.13</ele>
        <time>2021-11-07T10:15:05Z</time>
      </trkpt>
      <trkpt lat="48.66972" lon="2.06951">
        <ele>148.46</ele>
        <time>2021-11-07T10:15:14Z</time>
      </trkpt>
      <trkpt lat="48.6697" lon="2.06957">
        <ele>148.98</ele>
        <time>2021-11-07T10:15:30Z</time>
      </trkpt>
      <trkpt lat="48.66965" lon="2.0696">
        <ele>148.41</ele>
        <time>2021-11-07T10:15:42Z</time>
      </trkpt>
      <trkpt lat="48.66964" lon="2.06967">
        <ele>149.27</ele>
        <time>2021-11-07T10:15:50Z</time>
      </trkpt>
      <trkpt lat="48.66959" lon="2.06981">
        <ele>148.95</ele>
        <time>2021-11-07T10:16:03Z</time>
      </trkpt>
      <trkpt lat="48.66953" lon="2.06992">
        <ele>148.72</ele>
        <time>2021-11-07T10:16:15Z</time>
      </trkpt>
      <trkpt lat="48.6695" lon="2.07001">
        <ele>148.74</ele>
        <time>2021-11-07T10:16:24Z</time>
      </trkpt>
      <trkpt lat="48.66949" lon="2.07003">
        <ele>148.81</ele>
        <time>2021-11-07T10:16:25Z</time>
      </trkpt>
      <trkpt lat="48.66949" lon="2.07004">
        <ele>148.84</ele>
        <time>2021-11-07T10:16:26Z</time>
      </trkpt>
      <trkpt lat="48.66944" lon="2.07013">
        <ele>148.95</ele>
        <time>2021-11-07T10:16:34Z</time>
      </trkpt>
      <trkpt lat="48.66935" lon="2.07032">
        <ele>149.31</ele>
        <time>2021-11-07T10:16:49Z</time>
      </trkpt>
      <trkpt lat="48.66926" lon="2.0705">
        <ele>149.46</ele>
        <time>2021-11-07T10:17:02Z</time>
      </trkpt>
      <trkpt lat="48.6692" lon="2.07061">
        <ele>149.54</ele>
        <time>2021-11-07T10:17:10Z</time>
      </trkpt>
      <trkpt lat="48.66919" lon="2.07064">
        <ele>149</ele>
        <time>2021-11-07T10:17:11Z</time>
      </trkpt>
      <trkpt lat="48.66918" lon="2.07065">
        <ele>149.47</ele>
        <time>2021-11-07T10:17:12Z</time>
      </trkpt>
      <trkpt lat="48.66918" lon="2.07067">
        <ele>149.82</ele>
        <time>2021-11-07T10:17:13Z</time>
      </trkpt>
      <trkpt lat="48.66917" lon="2.07068">
        <ele>149.91</ele>
        <time>2021-11-07T10:17:14Z</time>
      </trkpt>
      <trkpt lat="48.6691" lon="2.07079">
        <ele>150.03</ele>
        <time>2021-11-07T10:17:27Z</time>
      </trkpt>
      <trkpt lat="48.66905" lon="2.07093">
        <ele>149.75</ele>
        <time>2021-11-07T10:17:39Z</time>
      </trkpt>
      <trkpt lat="48.66901" lon="2.07102">
        <ele>150.35</ele>
        <time>2021-11-07T10:17:46Z</time>
      </trkpt>
      <trkpt lat="48.66896" lon="2.07111">
        <ele>149.63</ele>
        <time>2021-11-07T10:17:53Z</time>
      </trkpt>
      <trkpt lat="48.6689" lon="2.07121">
        <ele>149.44</ele>
        <time>2021-11-07T10:18:00Z</time>
      </trkpt>
      <trkpt lat="48.66884" lon="2.07132">
        <ele>149.87</ele>
        <time>2021-11-07T10:18:09Z</time>
      </trkpt>
      <trkpt lat="48.66883" lon="2.07134">
        <ele>149.9</ele>
        <time>2021-11-07T10:18:10Z</time>
      </trkpt>
      <trkpt lat="48.66883" lon="2.07135">
        <ele>150.09</ele>
        <time>2021-11-07T10:18:11Z</time>
      </trkpt>
      <trkpt lat="48.66882" lon="2.07136">
        <ele>150</ele>
        <time>2021-11-07T10:18:12Z</time>
      </trkpt>
      <trkpt lat="48.66881" lon="2.07138">
        <ele>150.12</ele>
        <time>2021-11-07T10:18:13Z</time>
      </trkpt>
      <trkpt lat="48.66876" lon="2.07151">
        <ele>149.98</ele>
        <time>2021-11-07T10:18:22Z</time>
      </trkpt>
      <trkpt lat="48.66871" lon="2.07161">
        <ele>150.09</ele>
        <time>2021-11-07T10:18:30Z</time>
      </trkpt>
      <trkpt lat="48.6687" lon="2.07162">
        <ele>150.87</ele>
        <time>2021-11-07T10:18:31Z</time>
      </trkpt>
      <trkpt lat="48.6687" lon="2.07164">
        <ele>150.25</ele>
        <time>2021-11-07T10:18:32Z</time>
      </trkpt>
      <trkpt lat="48.66869" lon="2.07165">
        <ele>151.01</ele>
        <time>2021-11-07T10:18:33Z</time>
      </trkpt>
      <trkpt lat="48.66868" lon="2.07166">
        <ele>150.51</ele>
        <time>2021-11-07T10:18:34Z</time>
      </trkpt>
      <trkpt lat="48.66868" lon="2.07167">
        <ele>151.13</ele>
        <time>2021-11-07T10:18:35Z</time>
      </trkpt>
      <trkpt lat="48.66867" lon="2.07169">
        <ele>150.39</ele>
        <time>2021-11-07T10:18:36Z</time>
      </trkpt>
      <trkpt lat="48.66867" lon="2.0717">
        <ele>150.69</ele>
        <time>2021-11-07T10:18:37Z</time>
      </trkpt>
      <trkpt lat="48.66866" lon="2.07172">
        <ele>150.52</ele>
        <time>2021-11-07T10:18:38Z</time>
      </trkpt>
      <trkpt lat="48.66866" lon="2.07173">
        <ele>150.78</ele>
        <time>2021-11-07T10:18:39Z</time>
      </trkpt>
      <trkpt lat="48.66865" lon="2.07175">
        <ele>150.57</ele>
        <time>2021-11-07T10:18:40Z</time>
      </trkpt>
      <trkpt lat="48.66864" lon="2.07176">
        <ele>150.69</ele>
        <time>2021-11-07T10:18:41Z</time>
      </trkpt>
      <trkpt lat="48.66864" lon="2.07178">
        <ele>150.73</ele>
        <time>2021-11-07T10:18:42Z</time>
      </trkpt>
      <trkpt lat="48.66863" lon="2.07179">
        <ele>150.8</ele>
        <time>2021-11-07T10:18:43Z</time>
      </trkpt>
      <trkpt lat="48.66859" lon="2.0719">
        <ele>150.22</ele>
        <time>2021-11-07T10:18:52Z</time>
      </trkpt>
      <trkpt lat="48.66858" lon="2.07191">
        <ele>150.22</ele>
        <time>2021-11-07T10:18:53Z</time>
      </trkpt>
      <trkpt lat="48.66857" lon="2.07193">
        <ele>150.33</ele>
        <time>2021-11-07T10:18:54Z</time>
      </trkpt>
      <trkpt lat="48.66851" lon="2.07209">
        <ele>151.03</ele>
        <time>2021-11-07T10:19:06Z</time>
      </trkpt>
      <trkpt lat="48.66851" lon="2.0721">
        <ele>151.18</ele>
        <time>2021-11-07T10:19:07Z</time>
      </trkpt>
      <trkpt lat="48.66846" lon="2.07221">
        <ele>151.64</ele>
        <time>2021-11-07T10:19:14Z</time>
      </trkpt>
      <trkpt lat="48.66846" lon="2.07223">
        <ele>151.06</ele>
        <time>2021-11-07T10:19:15Z</time>
      </trkpt>
      <trkpt lat="48.66846" lon="2.07225">
        <ele>151.2</ele>
        <time>2021-11-07T10:19:16Z</time>
      </trkpt>
      <trkpt lat="48.66844" lon="2.0723">
        <ele>151.52</ele>
        <time>2021-11-07T10:19:20Z</time>
      </trkpt>
      <trkpt lat="48.66843" lon="2.07232">
        <ele>151.02</ele>
        <time>2021-11-07T10:19:21Z</time>
      </trkpt>
      <trkpt lat="48.66842" lon="2.07233">
        <ele>150.78</ele>
        <time>2021-11-07T10:19:22Z</time>
      </trkpt>
      <trkpt lat="48.66836" lon="2.07257">
        <ele>151.34</ele>
        <time>2021-11-07T10:19:36Z</time>
      </trkpt>
      <trkpt lat="48.66834" lon="2.07265">
        <ele>151.66</ele>
        <time>2021-11-07T10:19:41Z</time>
      </trkpt>
      <trkpt lat="48.66833" lon="2.0727">
        <ele>151.36</ele>
        <time>2021-11-07T10:19:44Z</time>
      </trkpt>
      <trkpt lat="48.66832" lon="2.07272">
        <ele>151.2</ele>
        <time>2021-11-07T10:19:45Z</time>
      </trkpt>
      <trkpt lat="48.66831" lon="2.07274">
        <ele>151.33</ele>
        <time>2021-11-07T10:19:46Z</time>
      </trkpt>
      <trkpt lat="48.66831" lon="2.07275">
        <ele>151.34</ele>
        <time>2021-11-07T10:19:47Z</time>
      </trkpt>
      <trkpt lat="48.6683" lon="2.07284">
        <ele>151.05</ele>
        <time>2021-11-07T10:19:53Z</time>
      </trkpt>
      <trkpt lat="48.6683" lon="2.07286">
        <ele>151.37</ele>
        <time>2021-11-07T10:19:54Z</time>
      </trkpt>
      <trkpt lat="48.6683" lon="2.07287">
        <ele>152</ele>
        <time>2021-11-07T10:19:55Z</time>
      </trkpt>
      <trkpt lat="48.66826" lon="2.07303">
        <ele>151.9</ele>
        <time>2021-11-07T10:20:05Z</time>
      </trkpt>
      <trkpt lat="48.66825" lon="2.07314">
        <ele>150.97</ele>
        <time>2021-11-07T10:20:11Z</time>
      </trkpt>
      <trkpt lat="48.66824" lon="2.07315">
        <ele>151.55</ele>
        <time>2021-11-07T10:20:12Z</time>
      </trkpt>
      <trkpt lat="48.66824" lon="2.07317">
        <ele>151.18</ele>
        <time>2021-11-07T10:20:13Z</time>
      </trkpt>
      <trkpt lat="48.66824" lon="2.07319">
        <ele>151.59</ele>
        <time>2021-11-07T10:20:14Z</time>
      </trkpt>
      <trkpt lat="48.66823" lon="2.07321">
        <ele>151.08</ele>
        <time>2021-11-07T10:20:15Z</time>
      </trkpt>
      <trkpt lat="48.66823" lon="2.07322">
        <ele>151.95</ele>
        <time>2021-11-07T10:20:16Z</time>
      </trkpt>
      <trkpt lat="48.66822" lon="2.07324">
        <ele>151.6</ele>
        <time>2021-11-07T10:20:17Z</time>
      </trkpt>
      <trkpt lat="48.66821" lon="2.07335">
        <ele>151.31</ele>
        <time>2021-11-07T10:20:24Z</time>
      </trkpt>
      <trkpt lat="48.6682" lon="2.07337">
        <ele>151.23</ele>
        <time>2021-11-07T10:20:25Z</time>
      </trkpt>
      <trkpt lat="48.66819" lon="2.07339">
        <ele>151.72</ele>
        <time>2021-11-07T10:20:26Z</time>
      </trkpt>
      <trkpt lat="48.66818" lon="2.07346">
        <ele>151.66</ele>
        <time>2021-11-07T10:20:30Z</time>
      </trkpt>
      <trkpt lat="48.66815" lon="2.07359">
        <ele>151.92</ele>
        <time>2021-11-07T10:20:40Z</time>
      </trkpt>
      <trkpt lat="48.66814" lon="2.07371">
        <ele>151.45</ele>
        <time>2021-11-07T10:20:48Z</time>
      </trkpt>
      <trkpt lat="48.66811" lon="2.07385">
        <ele>151.23</ele>
        <time>2021-11-07T10:20:58Z</time>
      </trkpt>
      <trkpt lat="48.66811" lon="2.07387">
        <ele>151.49</ele>
        <time>2021-11-07T10:20:59Z</time>
      </trkpt>
      <trkpt lat="48.66811" lon="2.07389">
        <ele>151.4</ele>
        <time>2021-11-07T10:21:00Z</time>
      </trkpt>
      <trkpt lat="48.6681" lon="2.07391">
        <ele>151.62</ele>
        <time>2021-11-07T10:21:01Z</time>
      </trkpt>
      <trkpt lat="48.6681" lon="2.07393">
        <ele>151.58</ele>
        <time>2021-11-07T10:21:02Z</time>
      </trkpt>
      <trkpt lat="48.66809" lon="2.07395">
        <ele>151.57</ele>
        <time>2021-11-07T10:21:03Z</time>
      </trkpt>
      <trkpt lat="48.66809" lon="2.07397">
        <ele>151.37</ele>
        <time>2021-11-07T10:21:04Z</time>
      </trkpt>
      <trkpt lat="48.66808" lon="2.07399">
        <ele>151.17</ele>
        <time>2021-11-07T10:21:05Z</time>
      </trkpt>
      <trkpt lat="48.66808" lon="2.07401">
        <ele>151.37</ele>
        <time>2021-11-07T10:21:06Z</time>
      </trkpt>
      <trkpt lat="48.66807" lon="2.07403">
        <ele>151.17</ele>
        <time>2021-11-07T10:21:07Z</time>
      </trkpt>
      <trkpt lat="48.66807" lon="2.07405">
        <ele>151.9</ele>
        <time>2021-11-07T10:21:08Z</time>
      </trkpt>
      <trkpt lat="48.66807" lon="2.07406">
        <ele>151.5</ele>
        <time>2021-11-07T10:21:09Z</time>
      </trkpt>
      <trkpt lat="48.66804" lon="2.07423">
        <ele>151.04</ele>
        <time>2021-11-07T10:21:19Z</time>
      </trkpt>
      <trkpt lat="48.66802" lon="2.07438">
        <ele>151.85</ele>
        <time>2021-11-07T10:21:29Z</time>
      </trkpt>
      <trkpt lat="48.66802" lon="2.07444">
        <ele>151.48</ele>
        <time>2021-11-07T10:21:34Z</time>
      </trkpt>
      <trkpt lat="48.66801" lon="2.0745">
        <ele>151.79</ele>
        <time>2021-11-07T10:21:38Z</time>
      </trkpt>
      <trkpt lat="48.66798" lon="2.07466">
        <ele>151.61</ele>
        <time>2021-11-07T10:21:47Z</time>
      </trkpt>
      <trkpt lat="48.66795" lon="2.07483">
        <ele>151.16</ele>
        <time>2021-11-07T10:21:57Z</time>
      </trkpt>
      <trkpt lat="48.6679" lon="2.07504">
        <ele>151.4</ele>
        <time>2021-11-07T10:22:08Z</time>
      </trkpt>
      <trkpt lat="48.66787" lon="2.0752">
        <ele>150.74</ele>
        <time>2021-11-07T10:22:17Z</time>
      </trkpt>
      <trkpt lat="48.66784" lon="2.07537">
        <ele>151.15</ele>
        <time>2021-11-07T10:22:26Z</time>
      </trkpt>
      <trkpt lat="48.66781" lon="2.07554">
        <ele>151.25</ele>
        <time>2021-11-07T10:22:35Z</time>
      </trkpt>
      <trkpt lat="48.66778" lon="2.07576">
        <ele>151.84</ele>
        <time>2021-11-07T10:22:47Z</time>
      </trkpt>
      <trkpt lat="48.66776" lon="2.07584">
        <ele>151.4</ele>
        <time>2021-11-07T10:22:52Z</time>
      </trkpt>
      <trkpt lat="48.66776" lon="2.07586">
        <ele>151.01</ele>
        <time>2021-11-07T10:22:53Z</time>
      </trkpt>
      <trkpt lat="48.66776" lon="2.07587">
        <ele>150.9</ele>
        <time>2021-11-07T10:22:54Z</time>
      </trkpt>
      <trkpt lat="48.66775" lon="2.07589">
        <ele>151.01</ele>
        <time>2021-11-07T10:22:55Z</time>
      </trkpt>
      <trkpt lat="48.66775" lon="2.07591">
        <ele>151.08</ele>
        <time>2021-11-07T10:22:56Z</time>
      </trkpt>
      <trkpt lat="48.66775" lon="2.07592">
        <ele>151.48</ele>
        <time>2021-11-07T10:22:57Z</time>
      </trkpt>
      <trkpt lat="48.66774" lon="2.07594">
        <ele>150.91</ele>
        <time>2021-11-07T10:22:58Z</time>
      </trkpt>
      <trkpt lat="48.66774" lon="2.07596">
        <ele>151.3</ele>
        <time>2021-11-07T10:22:59Z</time>
      </trkpt>
      <trkpt lat="48.6677" lon="2.07615">
        <ele>151.24</ele>
        <time>2021-11-07T10:23:10Z</time>
      </trkpt>
      <trkpt lat="48.66766" lon="2.07641">
        <ele>150.85</ele>
        <time>2021-11-07T10:23:23Z</time>
      </trkpt>
      <trkpt lat="48.66765" lon="2.07643">
        <ele>151.28</ele>
        <time>2021-11-07T10:23:24Z</time>
      </trkpt>
      <trkpt lat="48.66764" lon="2.07644">
        <ele>151.02</ele>
        <time>2021-11-07T10:23:25Z</time>
      </trkpt>
      <trkpt lat="48.66763" lon="2.07655">
        <ele>151.2</ele>
        <time>2021-11-07T10:23:31Z</time>
      </trkpt>
      <trkpt lat="48.66763" lon="2.07656">
        <ele>151.71</ele>
        <time>2021-11-07T10:23:32Z</time>
      </trkpt>
      <trkpt lat="48.66763" lon="2.07659">
        <ele>151.73</ele>
        <time>2021-11-07T10:23:34Z</time>
      </trkpt>
      <trkpt lat="48.66763" lon="2.07662">
        <ele>151.47</ele>
        <time>2021-11-07T10:23:36Z</time>
      </trkpt>
      <trkpt lat="48.6676" lon="2.07675">
        <ele>151.46</ele>
        <time>2021-11-07T10:23:44Z</time>
      </trkpt>
      <trkpt lat="48.66759" lon="2.07685">
        <ele>151.29</ele>
        <time>2021-11-07T10:23:50Z</time>
      </trkpt>
      <trkpt lat="48.66759" lon="2.07686">
        <ele>151.06</ele>
        <time>2021-11-07T10:23:51Z</time>
      </trkpt>
      <trkpt lat="48.66758" lon="2.07688">
        <ele>151.43</ele>
        <time>2021-11-07T10:23:52Z</time>
      </trkpt>
      <trkpt lat="48.66758" lon="2.0769">
        <ele>151.61</ele>
        <time>2021-11-07T10:23:53Z</time>
      </trkpt>
      <trkpt lat="48.66755" lon="2.07703">
        <ele>151.75</ele>
        <time>2021-11-07T10:24:03Z</time>
      </trkpt>
      <trkpt lat="48.6675" lon="2.07723">
        <ele>152.02</ele>
        <time>2021-11-07T10:24:19Z</time>
      </trkpt>
      <trkpt lat="48.66748" lon="2.07731">
        <ele>152.19</ele>
        <time>2021-11-07T10:24:24Z</time>
      </trkpt>
      <trkpt lat="48.66747" lon="2.07733">
        <ele>151.87</ele>
        <time>2021-11-07T10:24:25Z</time>
      </trkpt>
      <trkpt lat="48.66747" lon="2.07735">
        <ele>151.94</ele>
        <time>2021-11-07T10:24:26Z</time>
      </trkpt>
      <trkpt lat="48.66745" lon="2.07742">
        <ele>152.55</ele>
        <time>2021-11-07T10:24:31Z</time>
      </trkpt>
      <trkpt lat="48.66744" lon="2.07747">
        <ele>152.2</ele>
        <time>2021-11-07T10:24:34Z</time>
      </trkpt>
      <trkpt lat="48.66738" lon="2.07764">
        <ele>152.4</ele>
        <time>2021-11-07T10:24:44Z</time>
      </trkpt>
      <trkpt lat="48.66734" lon="2.07773">
        <ele>152.39</ele>
        <time>2021-11-07T10:24:53Z</time>
      </trkpt>
      <trkpt lat="48.66734" lon="2.07776">
        <ele>152.45</ele>
        <time>2021-11-07T10:24:58Z</time>
      </trkpt>
      <trkpt lat="48.66732" lon="2.07781">
        <ele>152.68</ele>
        <time>2021-11-07T10:25:10Z</time>
      </trkpt>
      <trkpt lat="48.66727" lon="2.07789">
        <ele>152.95</ele>
        <time>2021-11-07T10:25:23Z</time>
      </trkpt>
      <trkpt lat="48.66722" lon="2.07788">
        <ele>153.06</ele>
        <time>2021-11-07T10:25:37Z</time>
      </trkpt>
      <trkpt lat="48.66718" lon="2.07788">
        <ele>153.29</ele>
        <time>2021-11-07T10:25:55Z</time>
      </trkpt>
      <trkpt lat="48.66714" lon="2.07788">
        <ele>153.55</ele>
        <time>2021-11-07T10:26:11Z</time>
      </trkpt>
      <trkpt lat="48.66715" lon="2.07784">
        <ele>153.25</ele>
        <time>2021-11-07T10:26:30Z</time>
      </trkpt>
      <trkpt lat="48.66718" lon="2.07784">
        <ele>153.44</ele>
        <time>2021-11-07T10:26:48Z</time>
      </trkpt>
      <trkpt lat="48.66725" lon="2.07793">
        <ele>153.04</ele>
        <time>2021-11-07T10:26:59Z</time>
      </trkpt>
      <trkpt lat="48.66728" lon="2.07796">
        <ele>153.16</ele>
        <time>2021-11-07T10:27:09Z</time>
      </trkpt>
      <trkpt lat="48.66727" lon="2.07796">
        <ele>152.96</ele>
        <time>2021-11-07T10:27:27Z</time>
      </trkpt>
      <trkpt lat="48.66724" lon="2.07806">
        <ele>152.67</ele>
        <time>2021-11-07T10:27:41Z</time>
      </trkpt>
      <trkpt lat="48.6672" lon="2.07817">
        <ele>152.93</ele>
        <time>2021-11-07T10:27:53Z</time>
      </trkpt>
      <trkpt lat="48.6672" lon="2.07823">
        <ele>152.76</ele>
        <time>2021-11-07T10:28:05Z</time>
      </trkpt>
      <trkpt lat="48.66719" lon="2.07828">
        <ele>152.85</ele>
        <time>2021-11-07T10:28:17Z</time>
      </trkpt>
      <trkpt lat="48.66718" lon="2.0783">
        <ele>153.56</ele>
        <time>2021-11-07T10:28:18Z</time>
      </trkpt>
      <trkpt lat="48.66716" lon="2.07844">
        <ele>152.99</ele>
        <time>2021-11-07T10:28:28Z</time>
      </trkpt>
      <trkpt lat="48.66715" lon="2.07848">
        <ele>152.8</ele>
        <time>2021-11-07T10:28:31Z</time>
      </trkpt>
      <trkpt lat="48.66715" lon="2.07853">
        <ele>152.77</ele>
        <time>2021-11-07T10:28:34Z</time>
      </trkpt>
      <trkpt lat="48.66714" lon="2.07857">
        <ele>152.77</ele>
        <time>2021-11-07T10:28:37Z</time>
      </trkpt>
      <trkpt lat="48.66713" lon="2.07859">
        <ele>152.56</ele>
        <time>2021-11-07T10:28:38Z</time>
      </trkpt>
      <trkpt lat="48.66713" lon="2.07861">
        <ele>152.72</ele>
        <time>2021-11-07T10:28:39Z</time>
      </trkpt>
      <trkpt lat="48.66712" lon="2.07869">
        <ele>152.74</ele>
        <time>2021-11-07T10:28:44Z</time>
      </trkpt>
      <trkpt lat="48.66712" lon="2.07871">
        <ele>152.65</ele>
        <time>2021-11-07T10:28:45Z</time>
      </trkpt>
      <trkpt lat="48.66712" lon="2.07873">
        <ele>152.56</ele>
        <time>2021-11-07T10:28:46Z</time>
      </trkpt>
      <trkpt lat="48.66711" lon="2.07879">
        <ele>153.01</ele>
        <time>2021-11-07T10:28:50Z</time>
      </trkpt>
      <trkpt lat="48.66711" lon="2.07881">
        <ele>152.61</ele>
        <time>2021-11-07T10:28:51Z</time>
      </trkpt>
      <trkpt lat="48.6671" lon="2.07883">
        <ele>153.15</ele>
        <time>2021-11-07T10:28:52Z</time>
      </trkpt>
      <trkpt lat="48.66707" lon="2.07897">
        <ele>153.02</ele>
        <time>2021-11-07T10:29:00Z</time>
      </trkpt>
      <trkpt lat="48.66707" lon="2.07899">
        <ele>152.69</ele>
        <time>2021-11-07T10:29:01Z</time>
      </trkpt>
      <trkpt lat="48.66707" lon="2.07901">
        <ele>152.88</ele>
        <time>2021-11-07T10:29:02Z</time>
      </trkpt>
      <trkpt lat="48.66707" lon="2.07903">
        <ele>153</ele>
        <time>2021-11-07T10:29:03Z</time>
      </trkpt>
      <trkpt lat="48.66707" lon="2.07911">
        <ele>152.77</ele>
        <time>2021-11-07T10:29:08Z</time>
      </trkpt>
      <trkpt lat="48.66706" lon="2.07913">
        <ele>153.08</ele>
        <time>2021-11-07T10:29:09Z</time>
      </trkpt>
      <trkpt lat="48.66705" lon="2.07915">
        <ele>153.02</ele>
        <time>2021-11-07T10:29:10Z</time>
      </trkpt>
      <trkpt lat="48.66705" lon="2.07917">
        <ele>153.07</ele>
        <time>2021-11-07T10:29:11Z</time>
      </trkpt>
      <trkpt lat="48.66704" lon="2.07921">
        <ele>152.76</ele>
        <time>2021-11-07T10:29:13Z</time>
      </trkpt>
      <trkpt lat="48.66704" lon="2.07922">
        <ele>152.87</ele>
        <time>2021-11-07T10:29:14Z</time>
      </trkpt>
      <trkpt lat="48.66703" lon="2.07937">
        <ele>153.34</ele>
        <time>2021-11-07T10:29:22Z</time>
      </trkpt>
      <trkpt lat="48.66703" lon="2.07939">
        <ele>153.24</ele>
        <time>2021-11-07T10:29:23Z</time>
      </trkpt>
      <trkpt lat="48.66702" lon="2.0794">
        <ele>153.78</ele>
        <time>2021-11-07T10:29:24Z</time>
      </trkpt>
      <trkpt lat="48.66702" lon="2.07942">
        <ele>153.79</ele>
        <time>2021-11-07T10:29:25Z</time>
      </trkpt>
      <trkpt lat="48.66702" lon="2.07943">
        <ele>153.79</ele>
        <time>2021-11-07T10:29:26Z</time>
      </trkpt>
      <trkpt lat="48.66702" lon="2.07945">
        <ele>153.8</ele>
        <time>2021-11-07T10:29:27Z</time>
      </trkpt>
      <trkpt lat="48.66698" lon="2.07969">
        <ele>153.7</ele>
        <time>2021-11-07T10:29:42Z</time>
      </trkpt>
      <trkpt lat="48.66698" lon="2.07973">
        <ele>154.03</ele>
        <time>2021-11-07T10:29:44Z</time>
      </trkpt>
      <trkpt lat="48.66698" lon="2.07974">
        <ele>153.78</ele>
        <time>2021-11-07T10:29:45Z</time>
      </trkpt>
      <trkpt lat="48.66695" lon="2.07993">
        <ele>153.57</ele>
        <time>2021-11-07T10:29:55Z</time>
      </trkpt>
      <trkpt lat="48.66692" lon="2.08014">
        <ele>154</ele>
        <time>2021-11-07T10:30:07Z</time>
      </trkpt>
      <trkpt lat="48.66686" lon="2.08037">
        <ele>154.41</ele>
        <time>2021-11-07T10:30:19Z</time>
      </trkpt>
      <trkpt lat="48.66681" lon="2.08057">
        <ele>154.21</ele>
        <time>2021-11-07T10:30:30Z</time>
      </trkpt>
      <trkpt lat="48.6668" lon="2.08061">
        <ele>154.51</ele>
        <time>2021-11-07T10:30:33Z</time>
      </trkpt>
      <trkpt lat="48.6668" lon="2.08063">
        <ele>154.58</ele>
        <time>2021-11-07T10:30:34Z</time>
      </trkpt>
      <trkpt lat="48.66679" lon="2.08064">
        <ele>154.31</ele>
        <time>2021-11-07T10:30:35Z</time>
      </trkpt>
      <trkpt lat="48.66678" lon="2.08066">
        <ele>154.64</ele>
        <time>2021-11-07T10:30:36Z</time>
      </trkpt>
      <trkpt lat="48.66678" lon="2.08068">
        <ele>154.44</ele>
        <time>2021-11-07T10:30:37Z</time>
      </trkpt>
      <trkpt lat="48.66677" lon="2.0807">
        <ele>154.51</ele>
        <time>2021-11-07T10:30:38Z</time>
      </trkpt>
      <trkpt lat="48.66677" lon="2.08072">
        <ele>154.72</ele>
        <time>2021-11-07T10:30:39Z</time>
      </trkpt>
      <trkpt lat="48.66673" lon="2.08084">
        <ele>154.38</ele>
        <time>2021-11-07T10:30:46Z</time>
      </trkpt>
      <trkpt lat="48.66673" lon="2.08086">
        <ele>154.29</ele>
        <time>2021-11-07T10:30:47Z</time>
      </trkpt>
      <trkpt lat="48.66673" lon="2.08088">
        <ele>154.54</ele>
        <time>2021-11-07T10:30:48Z</time>
      </trkpt>
      <trkpt lat="48.66672" lon="2.0809">
        <ele>154.58</ele>
        <time>2021-11-07T10:30:49Z</time>
      </trkpt>
      <trkpt lat="48.66672" lon="2.08092">
        <ele>154.74</ele>
        <time>2021-11-07T10:30:50Z</time>
      </trkpt>
      <trkpt lat="48.66672" lon="2.08094">
        <ele>154.69</ele>
        <time>2021-11-07T10:30:51Z</time>
      </trkpt>
      <trkpt lat="48.66671" lon="2.08096">
        <ele>154.53</ele>
        <time>2021-11-07T10:30:52Z</time>
      </trkpt>
      <trkpt lat="48.66671" lon="2.08098">
        <ele>154.07</ele>
        <time>2021-11-07T10:30:53Z</time>
      </trkpt>
      <trkpt lat="48.66666" lon="2.08115">
        <ele>154.67</ele>
        <time>2021-11-07T10:31:03Z</time>
      </trkpt>
      <trkpt lat="48.66662" lon="2.08132">
        <ele>155.24</ele>
        <time>2021-11-07T10:31:13Z</time>
      </trkpt>
      <trkpt lat="48.66659" lon="2.08142">
        <ele>155.21</ele>
        <time>2021-11-07T10:31:20Z</time>
      </trkpt>
      <trkpt lat="48.66658" lon="2.08148">
        <ele>155.22</ele>
        <time>2021-11-07T10:31:24Z</time>
      </trkpt>
      <trkpt lat="48.66653" lon="2.08167">
        <ele>155.75</ele>
        <time>2021-11-07T10:31:34Z</time>
      </trkpt>
      <trkpt lat="48.66649" lon="2.08188">
        <ele>156.15</ele>
        <time>2021-11-07T10:31:45Z</time>
      </trkpt>
      <trkpt lat="48.66644" lon="2.08208">
        <ele>156.33</ele>
        <time>2021-11-07T10:31:56Z</time>
      </trkpt>
      <trkpt lat="48.66642" lon="2.08215">
        <ele>156.18</ele>
        <time>2021-11-07T10:32:01Z</time>
      </trkpt>
      <trkpt lat="48.66641" lon="2.08217">
        <ele>156.71</ele>
        <time>2021-11-07T10:32:02Z</time>
      </trkpt>
      <trkpt lat="48.66641" lon="2.08219">
        <ele>156.2</ele>
        <time>2021-11-07T10:32:03Z</time>
      </trkpt>
      <trkpt lat="48.66631" lon="2.08238">
        <ele>156.3</ele>
        <time>2021-11-07T10:32:15Z</time>
      </trkpt>
      <trkpt lat="48.66617" lon="2.08245">
        <ele>155.91</ele>
        <time>2021-11-07T10:32:27Z</time>
      </trkpt>
      <trkpt lat="48.66616" lon="2.08245">
        <ele>155.73</ele>
        <time>2021-11-07T10:32:28Z</time>
      </trkpt>
      <trkpt lat="48.66613" lon="2.08247">
        <ele>156.24</ele>
        <time>2021-11-07T10:32:38Z</time>
      </trkpt>
      <trkpt lat="48.66613" lon="2.08245">
        <ele>156.65</ele>
        <time>2021-11-07T10:33:03Z</time>
      </trkpt>
      <trkpt lat="48.66617" lon="2.08248">
        <ele>156.46</ele>
        <time>2021-11-07T10:33:09Z</time>
      </trkpt>
      <trkpt lat="48.66613" lon="2.08259">
        <ele>157.24</ele>
        <time>2021-11-07T10:33:17Z</time>
      </trkpt>
      <trkpt lat="48.66597" lon="2.08276">
        <ele>156.79</ele>
        <time>2021-11-07T10:33:31Z</time>
      </trkpt>
      <trkpt lat="48.66587" lon="2.08288">
        <ele>157.22</ele>
        <time>2021-11-07T10:33:41Z</time>
      </trkpt>
      <trkpt lat="48.66578" lon="2.08311">
        <ele>156.8</ele>
        <time>2021-11-07T10:33:53Z</time>
      </trkpt>
      <trkpt lat="48.66571" lon="2.08336">
        <ele>157.41</ele>
        <time>2021-11-07T10:34:06Z</time>
      </trkpt>
      <trkpt lat="48.66567" lon="2.0835">
        <ele>157.14</ele>
        <time>2021-11-07T10:34:15Z</time>
      </trkpt>
      <trkpt lat="48.66561" lon="2.08367">
        <ele>157.8</ele>
        <time>2021-11-07T10:34:25Z</time>
      </trkpt>
      <trkpt lat="48.66556" lon="2.0839">
        <ele>157.52</ele>
        <time>2021-11-07T10:34:37Z</time>
      </trkpt>
      <trkpt lat="48.66551" lon="2.08409">
        <ele>157.29</ele>
        <time>2021-11-07T10:34:48Z</time>
      </trkpt>
      <trkpt lat="48.66546" lon="2.08426">
        <ele>157.66</ele>
        <time>2021-11-07T10:34:57Z</time>
      </trkpt>
      <trkpt lat="48.6654" lon="2.08445">
        <ele>157.91</ele>
        <time>2021-11-07T10:35:08Z</time>
      </trkpt>
      <trkpt lat="48.66535" lon="2.08466">
        <ele>157.62</ele>
        <time>2021-11-07T10:35:20Z</time>
      </trkpt>
      <trkpt lat="48.66531" lon="2.08482">
        <ele>158.25</ele>
        <time>2021-11-07T10:35:30Z</time>
      </trkpt>
      <trkpt lat="48.6653" lon="2.08484">
        <ele>158.14</ele>
        <time>2021-11-07T10:35:31Z</time>
      </trkpt>
      <trkpt lat="48.66525" lon="2.08507">
        <ele>158.29</ele>
        <time>2021-11-07T10:35:44Z</time>
      </trkpt>
      <trkpt lat="48.66519" lon="2.08528">
        <ele>158.63</ele>
        <time>2021-11-07T10:35:56Z</time>
      </trkpt>
      <trkpt lat="48.66513" lon="2.0855">
        <ele>158.77</ele>
        <time>2021-11-07T10:36:08Z</time>
      </trkpt>
      <trkpt lat="48.66508" lon="2.08568">
        <ele>158.86</ele>
        <time>2021-11-07T10:36:18Z</time>
      </trkpt>
      <trkpt lat="48.66503" lon="2.08588">
        <ele>158.74</ele>
        <time>2021-11-07T10:36:29Z</time>
      </trkpt>
      <trkpt lat="48.66498" lon="2.0861">
        <ele>159.06</ele>
        <time>2021-11-07T10:36:41Z</time>
      </trkpt>
      <trkpt lat="48.66497" lon="2.08613">
        <ele>158.9</ele>
        <time>2021-11-07T10:36:43Z</time>
      </trkpt>
      <trkpt lat="48.66497" lon="2.08615">
        <ele>159.2</ele>
        <time>2021-11-07T10:36:44Z</time>
      </trkpt>
      <trkpt lat="48.66496" lon="2.08617">
        <ele>159.03</ele>
        <time>2021-11-07T10:36:45Z</time>
      </trkpt>
      <trkpt lat="48.66496" lon="2.08619">
        <ele>159.12</ele>
        <time>2021-11-07T10:36:46Z</time>
      </trkpt>
      <trkpt lat="48.66495" lon="2.0862">
        <ele>158.68</ele>
        <time>2021-11-07T10:36:47Z</time>
      </trkpt>
      <trkpt lat="48.66495" lon="2.08622">
        <ele>158.78</ele>
        <time>2021-11-07T10:36:48Z</time>
      </trkpt>
      <trkpt lat="48.66494" lon="2.08624">
        <ele>158.88</ele>
        <time>2021-11-07T10:36:49Z</time>
      </trkpt>
      <trkpt lat="48.66493" lon="2.08626">
        <ele>158.92</ele>
        <time>2021-11-07T10:36:50Z</time>
      </trkpt>
      <trkpt lat="48.66493" lon="2.08627">
        <ele>159.18</ele>
        <time>2021-11-07T10:36:51Z</time>
      </trkpt>
      <trkpt lat="48.66488" lon="2.08651">
        <ele>158.99</ele>
        <time>2021-11-07T10:37:03Z</time>
      </trkpt>
      <trkpt lat="48.66484" lon="2.08668">
        <ele>159.66</ele>
        <time>2021-11-07T10:37:12Z</time>
      </trkpt>
      <trkpt lat="48.66479" lon="2.08692">
        <ele>159.67</ele>
        <time>2021-11-07T10:37:24Z</time>
      </trkpt>
      <trkpt lat="48.66476" lon="2.08712">
        <ele>159.3</ele>
        <time>2021-11-07T10:37:35Z</time>
      </trkpt>
      <trkpt lat="48.66472" lon="2.08733">
        <ele>159.33</ele>
        <time>2021-11-07T10:37:46Z</time>
      </trkpt>
      <trkpt lat="48.66468" lon="2.08756">
        <ele>160.03</ele>
        <time>2021-11-07T10:37:58Z</time>
      </trkpt>
      <trkpt lat="48.66464" lon="2.08776">
        <ele>160.28</ele>
        <time>2021-11-07T10:38:09Z</time>
      </trkpt>
      <trkpt lat="48.6646" lon="2.08802">
        <ele>160.1</ele>
        <time>2021-11-07T10:38:23Z</time>
      </trkpt>
      <trkpt lat="48.66455" lon="2.08824">
        <ele>160.39</ele>
        <time>2021-11-07T10:38:35Z</time>
      </trkpt>
      <trkpt lat="48.66452" lon="2.08848">
        <ele>160.07</ele>
        <time>2021-11-07T10:38:47Z</time>
      </trkpt>
      <trkpt lat="48.66449" lon="2.08873">
        <ele>160.78</ele>
        <time>2021-11-07T10:38:59Z</time>
      </trkpt>
      <trkpt lat="48.66447" lon="2.08892">
        <ele>161.35</ele>
        <time>2021-11-07T10:39:09Z</time>
      </trkpt>
      <trkpt lat="48.66446" lon="2.08915">
        <ele>161.02</ele>
        <time>2021-11-07T10:39:21Z</time>
      </trkpt>
      <trkpt lat="48.66444" lon="2.08937">
        <ele>161.89</ele>
        <time>2021-11-07T10:39:32Z</time>
      </trkpt>
      <trkpt lat="48.66444" lon="2.08947">
        <ele>161.58</ele>
        <time>2021-11-07T10:39:38Z</time>
      </trkpt>
      <trkpt lat="48.66443" lon="2.08949">
        <ele>161.25</ele>
        <time>2021-11-07T10:39:39Z</time>
      </trkpt>
      <trkpt lat="48.66443" lon="2.08957">
        <ele>161.22</ele>
        <time>2021-11-07T10:39:43Z</time>
      </trkpt>
      <trkpt lat="48.66443" lon="2.08959">
        <ele>160.54</ele>
        <time>2021-11-07T10:39:44Z</time>
      </trkpt>
      <trkpt lat="48.66443" lon="2.08962">
        <ele>160.82</ele>
        <time>2021-11-07T10:39:46Z</time>
      </trkpt>
      <trkpt lat="48.66443" lon="2.08964">
        <ele>160.95</ele>
        <time>2021-11-07T10:39:47Z</time>
      </trkpt>
      <trkpt lat="48.66443" lon="2.08966">
        <ele>160.71</ele>
        <time>2021-11-07T10:39:48Z</time>
      </trkpt>
      <trkpt lat="48.66443" lon="2.08968">
        <ele>161.55</ele>
        <time>2021-11-07T10:39:49Z</time>
      </trkpt>
      <trkpt lat="48.66443" lon="2.0897">
        <ele>161.69</ele>
        <time>2021-11-07T10:39:50Z</time>
      </trkpt>
      <trkpt lat="48.66443" lon="2.08972">
        <ele>161.83</ele>
        <time>2021-11-07T10:39:51Z</time>
      </trkpt>
      <trkpt lat="48.6644" lon="2.08994">
        <ele>161.46</ele>
        <time>2021-11-07T10:40:02Z</time>
      </trkpt>
      <trkpt lat="48.66438" lon="2.09013">
        <ele>161.52</ele>
        <time>2021-11-07T10:40:12Z</time>
      </trkpt>
      <trkpt lat="48.66438" lon="2.09035">
        <ele>161.98</ele>
        <time>2021-11-07T10:40:24Z</time>
      </trkpt>
      <trkpt lat="48.66436" lon="2.09055">
        <ele>162.63</ele>
        <time>2021-11-07T10:40:34Z</time>
      </trkpt>
      <trkpt lat="48.66436" lon="2.09057">
        <ele>162.63</ele>
        <time>2021-11-07T10:40:35Z</time>
      </trkpt>
      <trkpt lat="48.66435" lon="2.09076">
        <ele>162.19</ele>
        <time>2021-11-07T10:40:45Z</time>
      </trkpt>
      <trkpt lat="48.66435" lon="2.091">
        <ele>162.72</ele>
        <time>2021-11-07T10:40:58Z</time>
      </trkpt>
      <trkpt lat="48.66429" lon="2.09122">
        <ele>163.44</ele>
        <time>2021-11-07T10:41:09Z</time>
      </trkpt>
      <trkpt lat="48.66418" lon="2.09149">
        <ele>162.91</ele>
        <time>2021-11-07T10:41:24Z</time>
      </trkpt>
      <trkpt lat="48.66401" lon="2.09166">
        <ele>163.71</ele>
        <time>2021-11-07T10:41:39Z</time>
      </trkpt>
      <trkpt lat="48.66384" lon="2.09175">
        <ele>163.41</ele>
        <time>2021-11-07T10:41:52Z</time>
      </trkpt>
      <trkpt lat="48.66369" lon="2.09181">
        <ele>162.93</ele>
        <time>2021-11-07T10:42:04Z</time>
      </trkpt>
      <trkpt lat="48.66353" lon="2.09187">
        <ele>163.08</ele>
        <time>2021-11-07T10:42:17Z</time>
      </trkpt>
      <trkpt lat="48.66336" lon="2.09195">
        <ele>163.53</ele>
        <time>2021-11-07T10:42:31Z</time>
      </trkpt>
      <trkpt lat="48.66315" lon="2.09202">
        <ele>163.4</ele>
        <time>2021-11-07T10:42:47Z</time>
      </trkpt>
      <trkpt lat="48.66296" lon="2.0921">
        <ele>163.6</ele>
        <time>2021-11-07T10:43:01Z</time>
      </trkpt>
      <trkpt lat="48.66284" lon="2.09216">
        <ele>164.35</ele>
        <time>2021-11-07T10:43:11Z</time>
      </trkpt>
      <trkpt lat="48.66277" lon="2.0922">
        <ele>163.32</ele>
        <time>2021-11-07T10:43:17Z</time>
      </trkpt>
      <trkpt lat="48.6627" lon="2.09221">
        <ele>165.71</ele>
        <time>2021-11-07T10:43:22Z</time>
      </trkpt>
      <trkpt lat="48.66252" lon="2.09228">
        <ele>165.51</ele>
        <time>2021-11-07T10:43:37Z</time>
      </trkpt>
      <trkpt lat="48.66235" lon="2.09236">
        <ele>164.45</ele>
        <time>2021-11-07T10:43:51Z</time>
      </trkpt>
      <trkpt lat="48.6622" lon="2.09242">
        <ele>165.21</ele>
        <time>2021-11-07T10:44:03Z</time>
      </trkpt>
      <trkpt lat="48.66207" lon="2.09248">
        <ele>164.49</ele>
        <time>2021-11-07T10:44:15Z</time>
      </trkpt>
      <trkpt lat="48.66194" lon="2.09253">
        <ele>165.55</ele>
        <time>2021-11-07T10:44:27Z</time>
      </trkpt>
      <trkpt lat="48.66187" lon="2.09255">
        <ele>165.05</ele>
        <time>2021-11-07T10:44:36Z</time>
      </trkpt>
      <trkpt lat="48.66183" lon="2.09257">
        <ele>165.57</ele>
        <time>2021-11-07T10:44:40Z</time>
      </trkpt>
      <trkpt lat="48.66182" lon="2.09258">
        <ele>165.65</ele>
        <time>2021-11-07T10:44:41Z</time>
      </trkpt>
      <trkpt lat="48.66179" lon="2.09261">
        <ele>165.58</ele>
        <time>2021-11-07T10:44:51Z</time>
      </trkpt>
      <trkpt lat="48.66174" lon="2.09262">
        <ele>165.54</ele>
        <time>2021-11-07T10:45:06Z</time>
      </trkpt>
      <trkpt lat="48.66175" lon="2.09269">
        <ele>164.93</ele>
        <time>2021-11-07T10:45:20Z</time>
      </trkpt>
      <trkpt lat="48.66176" lon="2.09275">
        <ele>165.29</ele>
        <time>2021-11-07T10:45:29Z</time>
      </trkpt>
      <trkpt lat="48.66175" lon="2.09275">
        <ele>165.79</ele>
        <time>2021-11-07T10:45:51Z</time>
      </trkpt>
      <trkpt lat="48.66169" lon="2.09279">
        <ele>165.7</ele>
        <time>2021-11-07T10:46:08Z</time>
      </trkpt>
      <trkpt lat="48.66162" lon="2.09276">
        <ele>165.62</ele>
        <time>2021-11-07T10:46:17Z</time>
      </trkpt>
      <trkpt lat="48.66163" lon="2.09275">
        <ele>165.55</ele>
        <time>2021-11-07T10:46:30Z</time>
      </trkpt>
      <trkpt lat="48.66161" lon="2.09275">
        <ele>165.2</ele>
        <time>2021-11-07T10:46:42Z</time>
      </trkpt>
      <trkpt lat="48.66158" lon="2.09276">
        <ele>165.55</ele>
        <time>2021-11-07T10:46:46Z</time>
      </trkpt>
      <trkpt lat="48.66154" lon="2.09281">
        <ele>165.43</ele>
        <time>2021-11-07T10:46:53Z</time>
      </trkpt>
      <trkpt lat="48.66151" lon="2.09281">
        <ele>164.91</ele>
        <time>2021-11-07T10:47:01Z</time>
      </trkpt>
      <trkpt lat="48.66149" lon="2.09282">
        <ele>164.9</ele>
        <time>2021-11-07T10:47:03Z</time>
      </trkpt>
      <trkpt lat="48.66148" lon="2.09282">
        <ele>165.14</ele>
        <time>2021-11-07T10:47:04Z</time>
      </trkpt>
      <trkpt lat="48.66147" lon="2.09282">
        <ele>165.03</ele>
        <time>2021-11-07T10:47:05Z</time>
      </trkpt>
      <trkpt lat="48.66146" lon="2.09283">
        <ele>165</ele>
        <time>2021-11-07T10:47:06Z</time>
      </trkpt>
      <trkpt lat="48.66142" lon="2.09283">
        <ele>165.22</ele>
        <time>2021-11-07T10:47:11Z</time>
      </trkpt>
      <trkpt lat="48.6614" lon="2.09284">
        <ele>164.74</ele>
        <time>2021-11-07T10:47:12Z</time>
      </trkpt>
      <trkpt lat="48.66129" lon="2.09286">
        <ele>165.37</ele>
        <time>2021-11-07T10:47:23Z</time>
      </trkpt>
      <trkpt lat="48.66115" lon="2.0929">
        <ele>165.73</ele>
        <time>2021-11-07T10:47:36Z</time>
      </trkpt>
      <trkpt lat="48.66101" lon="2.09293">
        <ele>166.15</ele>
        <time>2021-11-07T10:47:50Z</time>
      </trkpt>
      <trkpt lat="48.6609" lon="2.09294">
        <ele>166.28</ele>
        <time>2021-11-07T10:48:01Z</time>
      </trkpt>
      <trkpt lat="48.66075" lon="2.093">
        <ele>166.81</ele>
        <time>2021-11-07T10:48:17Z</time>
      </trkpt>
      <trkpt lat="48.66065" lon="2.09304">
        <ele>167.87</ele>
        <time>2021-11-07T10:48:27Z</time>
      </trkpt>
      <trkpt lat="48.66063" lon="2.09305">
        <ele>167.85</ele>
        <time>2021-11-07T10:48:28Z</time>
      </trkpt>
      <trkpt lat="48.66049" lon="2.09309">
        <ele>168.96</ele>
        <time>2021-11-07T10:48:40Z</time>
      </trkpt>
      <trkpt lat="48.66033" lon="2.0931">
        <ele>169.11</ele>
        <time>2021-11-07T10:48:54Z</time>
      </trkpt>
      <trkpt lat="48.66022" lon="2.09313">
        <ele>170.21</ele>
        <time>2021-11-07T10:49:04Z</time>
      </trkpt>
      <trkpt lat="48.6601" lon="2.09315">
        <ele>170.69</ele>
        <time>2021-11-07T10:49:15Z</time>
      </trkpt>
      <trkpt lat="48.65995" lon="2.09316">
        <ele>171.9</ele>
        <time>2021-11-07T10:49:28Z</time>
      </trkpt>
      <trkpt lat="48.65988" lon="2.09317">
        <ele>172.25</ele>
        <time>2021-11-07T10:49:35Z</time>
      </trkpt>
      <trkpt lat="48.65978" lon="2.09318">
        <ele>171.83</ele>
        <time>2021-11-07T10:49:43Z</time>
      </trkpt>
      <trkpt lat="48.65966" lon="2.0932">
        <ele>171.68</ele>
        <time>2021-11-07T10:49:53Z</time>
      </trkpt>
      <trkpt lat="48.65954" lon="2.0932">
        <ele>171.06</ele>
        <time>2021-11-07T10:50:06Z</time>
      </trkpt>
      <trkpt lat="48.6595" lon="2.09321">
        <ele>171.67</ele>
        <time>2021-11-07T10:50:09Z</time>
      </trkpt>
      <trkpt lat="48.65948" lon="2.09321">
        <ele>170.72</ele>
        <time>2021-11-07T10:50:11Z</time>
      </trkpt>
      <trkpt lat="48.65942" lon="2.09319">
        <ele>170.18</ele>
        <time>2021-11-07T10:50:16Z</time>
      </trkpt>
      <trkpt lat="48.65939" lon="2.0932">
        <ele>170.53</ele>
        <time>2021-11-07T10:50:19Z</time>
      </trkpt>
      <trkpt lat="48.65937" lon="2.0932">
        <ele>170.42</ele>
        <time>2021-11-07T10:50:20Z</time>
      </trkpt>
      <trkpt lat="48.65936" lon="2.0932">
        <ele>169.72</ele>
        <time>2021-11-07T10:50:21Z</time>
      </trkpt>
      <trkpt lat="48.65923" lon="2.09321">
        <ele>168.93</ele>
        <time>2021-11-07T10:50:34Z</time>
      </trkpt>
      <trkpt lat="48.65919" lon="2.09321">
        <ele>168.53</ele>
        <time>2021-11-07T10:50:37Z</time>
      </trkpt>
      <trkpt lat="48.65917" lon="2.09321">
        <ele>169.09</ele>
        <time>2021-11-07T10:50:38Z</time>
      </trkpt>
      <trkpt lat="48.65903" lon="2.09323">
        <ele>168.52</ele>
        <time>2021-11-07T10:50:49Z</time>
      </trkpt>
      <trkpt lat="48.65884" lon="2.09323">
        <ele>167.25</ele>
        <time>2021-11-07T10:51:02Z</time>
      </trkpt>
      <trkpt lat="48.65875" lon="2.09322">
        <ele>167.4</ele>
        <time>2021-11-07T10:51:10Z</time>
      </trkpt>
      <trkpt lat="48.65875" lon="2.09323">
        <ele>167.37</ele>
        <time>2021-11-07T10:51:11Z</time>
      </trkpt>
      <trkpt lat="48.65876" lon="2.09324">
        <ele>167.33</ele>
        <time>2021-11-07T10:51:12Z</time>
      </trkpt>
      <trkpt lat="48.65877" lon="2.09324">
        <ele>167.19</ele>
        <time>2021-11-07T10:51:13Z</time>
      </trkpt>
      <trkpt lat="48.65878" lon="2.09324">
        <ele>166.98</ele>
        <time>2021-11-07T10:51:14Z</time>
      </trkpt>
      <trkpt lat="48.65879" lon="2.09324">
        <ele>166.79</ele>
        <time>2021-11-07T10:51:15Z</time>
      </trkpt>
      <trkpt lat="48.6588" lon="2.09325">
        <ele>166.83</ele>
        <time>2021-11-07T10:51:16Z</time>
      </trkpt>
      <trkpt lat="48.65881" lon="2.09325">
        <ele>166.92</ele>
        <time>2021-11-07T10:51:17Z</time>
      </trkpt>
      <trkpt lat="48.65884" lon="2.09327">
        <ele>166.44</ele>
        <time>2021-11-07T10:51:20Z</time>
      </trkpt>
      <trkpt lat="48.65885" lon="2.09327">
        <ele>166.63</ele>
        <time>2021-11-07T10:51:21Z</time>
      </trkpt>
      <trkpt lat="48.65886" lon="2.09327">
        <ele>166.36</ele>
        <time>2021-11-07T10:51:22Z</time>
      </trkpt>
      <trkpt lat="48.65887" lon="2.09326">
        <ele>166.83</ele>
        <time>2021-11-07T10:51:23Z</time>
      </trkpt>
      <trkpt lat="48.65888" lon="2.09326">
        <ele>166.61</ele>
        <time>2021-11-07T10:51:24Z</time>
      </trkpt>
      <trkpt lat="48.65898" lon="2.09324">
        <ele>166.87</ele>
        <time>2021-11-07T10:51:35Z</time>
      </trkpt>
      <trkpt lat="48.6591" lon="2.09325">
        <ele>166.8</ele>
        <time>2021-11-07T10:51:47Z</time>
      </trkpt>
      <trkpt lat="48.65916" lon="2.09326">
        <ele>167.03</ele>
        <time>2021-11-07T10:51:52Z</time>
      </trkpt>
      <trkpt lat="48.65928" lon="2.09329">
        <ele>166.74</ele>
        <time>2021-11-07T10:52:01Z</time>
      </trkpt>
      <trkpt lat="48.65939" lon="2.09329">
        <ele>167.01</ele>
        <time>2021-11-07T10:52:10Z</time>
      </trkpt>
      <trkpt lat="48.65942" lon="2.09328">
        <ele>166.45</ele>
        <time>2021-11-07T10:52:13Z</time>
      </trkpt>
      <trkpt lat="48.6595" lon="2.09328">
        <ele>166.65</ele>
        <time>2021-11-07T10:52:21Z</time>
      </trkpt>
      <trkpt lat="48.65959" lon="2.09328">
        <ele>166.48</ele>
        <time>2021-11-07T10:52:33Z</time>
      </trkpt>
      <trkpt lat="48.65966" lon="2.09326">
        <ele>165.98</ele>
        <time>2021-11-07T10:52:51Z</time>
      </trkpt>
      <trkpt lat="48.65968" lon="2.09322">
        <ele>166.08</ele>
        <time>2021-11-07T10:53:07Z</time>
      </trkpt>
      <trkpt lat="48.65976" lon="2.0932">
        <ele>165.22</ele>
        <time>2021-11-07T10:53:24Z</time>
      </trkpt>
      <trkpt lat="48.65971" lon="2.09322">
        <ele>165.52</ele>
        <time>2021-11-07T10:53:42Z</time>
      </trkpt>
      <trkpt lat="48.65969" lon="2.09321">
        <ele>165.24</ele>
        <time>2021-11-07T10:54:01Z</time>
      </trkpt>
      <trkpt lat="48.65967" lon="2.09323">
        <ele>165.72</ele>
        <time>2021-11-07T10:54:22Z</time>
      </trkpt>
      <trkpt lat="48.6597" lon="2.09323">
        <ele>165.76</ele>
        <time>2021-11-07T10:54:42Z</time>
      </trkpt>
      <trkpt lat="48.6597" lon="2.09323">
        <ele>165.69</ele>
        <time>2021-11-07T10:55:07Z</time>
      </trkpt>
      <trkpt lat="48.65973" lon="2.09323">
        <ele>165.38</ele>
        <time>2021-11-07T10:55:25Z</time>
      </trkpt>
      <trkpt lat="48.65975" lon="2.09324">
        <ele>165.16</ele>
        <time>2021-11-07T10:55:47Z</time>
      </trkpt>
      <trkpt lat="48.65977" lon="2.09326">
        <ele>165.44</ele>
        <time>2021-11-07T10:56:04Z</time>
      </trkpt>
      <trkpt lat="48.65982" lon="2.09335">
        <ele>165.55</ele>
        <time>2021-11-07T10:56:19Z</time>
      </trkpt>
      <trkpt lat="48.65988" lon="2.09349">
        <ele>165.84</ele>
        <time>2021-11-07T10:56:35Z</time>
      </trkpt>
      <trkpt lat="48.65993" lon="2.09365">
        <ele>165.41</ele>
        <time>2021-11-07T10:56:49Z</time>
      </trkpt>
      <trkpt lat="48.65998" lon="2.09382">
        <ele>164.95</ele>
        <time>2021-11-07T10:57:02Z</time>
      </trkpt>
      <trkpt lat="48.66006" lon="2.094">
        <ele>165.14</ele>
        <time>2021-11-07T10:57:19Z</time>
      </trkpt>
      <trkpt lat="48.66009" lon="2.09416">
        <ele>164.89</ele>
        <time>2021-11-07T10:57:31Z</time>
      </trkpt>
      <trkpt lat="48.66016" lon="2.09434">
        <ele>164.79</ele>
        <time>2021-11-07T10:57:43Z</time>
      </trkpt>
      <trkpt lat="48.66023" lon="2.09457">
        <ele>164.43</ele>
        <time>2021-11-07T10:57:58Z</time>
      </trkpt>
      <trkpt lat="48.66026" lon="2.09478">
        <ele>164.45</ele>
        <time>2021-11-07T10:58:10Z</time>
      </trkpt>
      <trkpt lat="48.66027" lon="2.09484">
        <ele>164.44</ele>
        <time>2021-11-07T10:58:13Z</time>
      </trkpt>
      <trkpt lat="48.66034" lon="2.09504">
        <ele>164.57</ele>
        <time>2021-11-07T10:58:26Z</time>
      </trkpt>
      <trkpt lat="48.66036" lon="2.0951">
        <ele>164.29</ele>
        <time>2021-11-07T10:58:32Z</time>
      </trkpt>
      <trkpt lat="48.66039" lon="2.0953">
        <ele>165.03</ele>
        <time>2021-11-07T10:58:43Z</time>
      </trkpt>
      <trkpt lat="48.6604" lon="2.09536">
        <ele>164.46</ele>
        <time>2021-11-07T10:58:47Z</time>
      </trkpt>
      <trkpt lat="48.66045" lon="2.09549">
        <ele>163.88</ele>
        <time>2021-11-07T10:58:57Z</time>
      </trkpt>
      <trkpt lat="48.66046" lon="2.0955">
        <ele>164.35</ele>
        <time>2021-11-07T10:58:58Z</time>
      </trkpt>
      <trkpt lat="48.66046" lon="2.09554">
        <ele>164.13</ele>
        <time>2021-11-07T10:59:00Z</time>
      </trkpt>
      <trkpt lat="48.66052" lon="2.09574">
        <ele>164.37</ele>
        <time>2021-11-07T10:59:12Z</time>
      </trkpt>
      <trkpt lat="48.66057" lon="2.09589">
        <ele>163.77</ele>
        <time>2021-11-07T10:59:21Z</time>
      </trkpt>
      <trkpt lat="48.66058" lon="2.09591">
        <ele>163.96</ele>
        <time>2021-11-07T10:59:22Z</time>
      </trkpt>
      <trkpt lat="48.66061" lon="2.09606">
        <ele>164.1</ele>
        <time>2021-11-07T10:59:32Z</time>
      </trkpt>
      <trkpt lat="48.66067" lon="2.09626">
        <ele>164.24</ele>
        <time>2021-11-07T10:59:44Z</time>
      </trkpt>
      <trkpt lat="48.66072" lon="2.09646">
        <ele>164.09</ele>
        <time>2021-11-07T10:59:57Z</time>
      </trkpt>
      <trkpt lat="48.66077" lon="2.09665">
        <ele>164</ele>
        <time>2021-11-07T11:00:09Z</time>
      </trkpt>
      <trkpt lat="48.66084" lon="2.09688">
        <ele>164.27</ele>
        <time>2021-11-07T11:00:24Z</time>
      </trkpt>
      <trkpt lat="48.66089" lon="2.09705">
        <ele>163.62</ele>
        <time>2021-11-07T11:00:36Z</time>
      </trkpt>
      <trkpt lat="48.66095" lon="2.09722">
        <ele>163.68</ele>
        <time>2021-11-07T11:00:47Z</time>
      </trkpt>
      <trkpt lat="48.66099" lon="2.09734">
        <ele>164.2</ele>
        <time>2021-11-07T11:00:55Z</time>
      </trkpt>
      <trkpt lat="48.66104" lon="2.09744">
        <ele>163.73</ele>
        <time>2021-11-07T11:01:02Z</time>
      </trkpt>
      <trkpt lat="48.6611" lon="2.09761">
        <ele>163.76</ele>
        <time>2021-11-07T11:01:13Z</time>
      </trkpt>
      <trkpt lat="48.66116" lon="2.09779">
        <ele>163.97</ele>
        <time>2021-11-07T11:01:25Z</time>
      </trkpt>
      <trkpt lat="48.66115" lon="2.09787">
        <ele>163.85</ele>
        <time>2021-11-07T11:01:40Z</time>
      </trkpt>
      <trkpt lat="48.66114" lon="2.09789">
        <ele>163.55</ele>
        <time>2021-11-07T11:01:58Z</time>
      </trkpt>
      <trkpt lat="48.66115" lon="2.09791">
        <ele>163.48</ele>
        <time>2021-11-07T11:02:16Z</time>
      </trkpt>
      <trkpt lat="48.66115" lon="2.09794">
        <ele>163.41</ele>
        <time>2021-11-07T11:02:37Z</time>
      </trkpt>
      <trkpt lat="48.66116" lon="2.09793">
        <ele>163.01</ele>
        <time>2021-11-07T11:02:58Z</time>
      </trkpt>
      <trkpt lat="48.66116" lon="2.09794">
        <ele>163.16</ele>
        <time>2021-11-07T11:03:18Z</time>
      </trkpt>
      <trkpt lat="48.66118" lon="2.09795">
        <ele>163.73</ele>
        <time>2021-11-07T11:03:35Z</time>
      </trkpt>
      <trkpt lat="48.66117" lon="2.09796">
        <ele>163.6</ele>
        <time>2021-11-07T11:03:57Z</time>
      </trkpt>
      <trkpt lat="48.66115" lon="2.09794">
        <ele>163.66</ele>
        <time>2021-11-07T11:04:18Z</time>
      </trkpt>
      <trkpt lat="48.66116" lon="2.09796">
        <ele>163.25</ele>
        <time>2021-11-07T11:04:42Z</time>
      </trkpt>
      <trkpt lat="48.66121" lon="2.09811">
        <ele>163.66</ele>
        <time>2021-11-07T11:04:57Z</time>
      </trkpt>
      <trkpt lat="48.66123" lon="2.09821">
        <ele>163.15</ele>
        <time>2021-11-07T11:05:10Z</time>
      </trkpt>
      <trkpt lat="48.66129" lon="2.09835">
        <ele>163.08</ele>
        <time>2021-11-07T11:05:23Z</time>
      </trkpt>
      <trkpt lat="48.66135" lon="2.09849">
        <ele>163.87</ele>
        <time>2021-11-07T11:05:37Z</time>
      </trkpt>
      <trkpt lat="48.66138" lon="2.09865">
        <ele>163.25</ele>
        <time>2021-11-07T11:05:50Z</time>
      </trkpt>
      <trkpt lat="48.66142" lon="2.09875">
        <ele>163.58</ele>
        <time>2021-11-07T11:05:58Z</time>
      </trkpt>
      <trkpt lat="48.66144" lon="2.0989">
        <ele>163.16</ele>
        <time>2021-11-07T11:06:06Z</time>
      </trkpt>
      <trkpt lat="48.66152" lon="2.09912">
        <ele>163.69</ele>
        <time>2021-11-07T11:06:19Z</time>
      </trkpt>
      <trkpt lat="48.66158" lon="2.09924">
        <ele>163.87</ele>
        <time>2021-11-07T11:06:29Z</time>
      </trkpt>
      <trkpt lat="48.66165" lon="2.09948">
        <ele>163.68</ele>
        <time>2021-11-07T11:06:45Z</time>
      </trkpt>
      <trkpt lat="48.66167" lon="2.09959">
        <ele>164.6</ele>
        <time>2021-11-07T11:06:52Z</time>
      </trkpt>
      <trkpt lat="48.66171" lon="2.09967">
        <ele>164.02</ele>
        <time>2021-11-07T11:06:58Z</time>
      </trkpt>
      <trkpt lat="48.66177" lon="2.09988">
        <ele>163.93</ele>
        <time>2021-11-07T11:07:11Z</time>
      </trkpt>
      <trkpt lat="48.6618" lon="2.10007">
        <ele>164.03</ele>
        <time>2021-11-07T11:07:22Z</time>
      </trkpt>
      <trkpt lat="48.66183" lon="2.10023">
        <ele>163.84</ele>
        <time>2021-11-07T11:07:32Z</time>
      </trkpt>
      <trkpt lat="48.66185" lon="2.10028">
        <ele>163.87</ele>
        <time>2021-11-07T11:07:36Z</time>
      </trkpt>
      <trkpt lat="48.66189" lon="2.1004">
        <ele>164.01</ele>
        <time>2021-11-07T11:07:43Z</time>
      </trkpt>
      <trkpt lat="48.66195" lon="2.10056">
        <ele>164.17</ele>
        <time>2021-11-07T11:07:53Z</time>
      </trkpt>
      <trkpt lat="48.66196" lon="2.10058">
        <ele>164.08</ele>
        <time>2021-11-07T11:07:55Z</time>
      </trkpt>
      <trkpt lat="48.66201" lon="2.10077">
        <ele>163.63</ele>
        <time>2021-11-07T11:08:03Z</time>
      </trkpt>
      <trkpt lat="48.66204" lon="2.10082">
        <ele>163.97</ele>
        <time>2021-11-07T11:08:07Z</time>
      </trkpt>
      <trkpt lat="48.66207" lon="2.10097">
        <ele>164.15</ele>
        <time>2021-11-07T11:08:15Z</time>
      </trkpt>
      <trkpt lat="48.66214" lon="2.10117">
        <ele>163.4</ele>
        <time>2021-11-07T11:08:28Z</time>
      </trkpt>
      <trkpt lat="48.66218" lon="2.10131">
        <ele>163.53</ele>
        <time>2021-11-07T11:08:37Z</time>
      </trkpt>
      <trkpt lat="48.66226" lon="2.10149">
        <ele>163.48</ele>
        <time>2021-11-07T11:08:49Z</time>
      </trkpt>
      <trkpt lat="48.66229" lon="2.10162">
        <ele>164</ele>
        <time>2021-11-07T11:08:57Z</time>
      </trkpt>
      <trkpt lat="48.66237" lon="2.10187">
        <ele>163.21</ele>
        <time>2021-11-07T11:09:13Z</time>
      </trkpt>
      <trkpt lat="48.66239" lon="2.10195">
        <ele>163.44</ele>
        <time>2021-11-07T11:09:30Z</time>
      </trkpt>
      <trkpt lat="48.6624" lon="2.10203">
        <ele>162.97</ele>
        <time>2021-11-07T11:09:51Z</time>
      </trkpt>
      <trkpt lat="48.66241" lon="2.10214">
        <ele>163.42</ele>
        <time>2021-11-07T11:10:09Z</time>
      </trkpt>
      <trkpt lat="48.66248" lon="2.1023">
        <ele>163.07</ele>
        <time>2021-11-07T11:10:22Z</time>
      </trkpt>
      <trkpt lat="48.66256" lon="2.1025">
        <ele>163.03</ele>
        <time>2021-11-07T11:10:36Z</time>
      </trkpt>
      <trkpt lat="48.66262" lon="2.10266">
        <ele>162.18</ele>
        <time>2021-11-07T11:10:47Z</time>
      </trkpt>
      <trkpt lat="48.66266" lon="2.10275">
        <ele>162.43</ele>
        <time>2021-11-07T11:10:53Z</time>
      </trkpt>
      <trkpt lat="48.66272" lon="2.10294">
        <ele>162.07</ele>
        <time>2021-11-07T11:11:04Z</time>
      </trkpt>
      <trkpt lat="48.66272" lon="2.10298">
        <ele>162.47</ele>
        <time>2021-11-07T11:11:06Z</time>
      </trkpt>
      <trkpt lat="48.66276" lon="2.10316">
        <ele>161.98</ele>
        <time>2021-11-07T11:11:15Z</time>
      </trkpt>
      <trkpt lat="48.66278" lon="2.10325">
        <ele>161.47</ele>
        <time>2021-11-07T11:11:19Z</time>
      </trkpt>
      <trkpt lat="48.66281" lon="2.10345">
        <ele>161.46</ele>
        <time>2021-11-07T11:11:28Z</time>
      </trkpt>
      <trkpt lat="48.66285" lon="2.10355">
        <ele>161.53</ele>
        <time>2021-11-07T11:11:35Z</time>
      </trkpt>
      <trkpt lat="48.66289" lon="2.1037">
        <ele>160.83</ele>
        <time>2021-11-07T11:11:44Z</time>
      </trkpt>
      <trkpt lat="48.66289" lon="2.10372">
        <ele>160.99</ele>
        <time>2021-11-07T11:11:45Z</time>
      </trkpt>
      <trkpt lat="48.66294" lon="2.10387">
        <ele>161.4</ele>
        <time>2021-11-07T11:11:55Z</time>
      </trkpt>
      <trkpt lat="48.66296" lon="2.10394">
        <ele>160.78</ele>
        <time>2021-11-07T11:11:59Z</time>
      </trkpt>
      <trkpt lat="48.66302" lon="2.1041">
        <ele>160.63</ele>
        <time>2021-11-07T11:12:09Z</time>
      </trkpt>
      <trkpt lat="48.66304" lon="2.10415">
        <ele>160.35</ele>
        <time>2021-11-07T11:12:12Z</time>
      </trkpt>
      <trkpt lat="48.66311" lon="2.10437">
        <ele>160.28</ele>
        <time>2021-11-07T11:12:24Z</time>
      </trkpt>
      <trkpt lat="48.66313" lon="2.10443">
        <ele>160.4</ele>
        <time>2021-11-07T11:12:27Z</time>
      </trkpt>
      <trkpt lat="48.66318" lon="2.10459">
        <ele>160.07</ele>
        <time>2021-11-07T11:12:37Z</time>
      </trkpt>
      <trkpt lat="48.66326" lon="2.1048">
        <ele>160.33</ele>
        <time>2021-11-07T11:12:48Z</time>
      </trkpt>
      <trkpt lat="48.66329" lon="2.10494">
        <ele>160.27</ele>
        <time>2021-11-07T11:12:58Z</time>
      </trkpt>
      <trkpt lat="48.66333" lon="2.10512">
        <ele>160.2</ele>
        <time>2021-11-07T11:13:16Z</time>
      </trkpt>
      <trkpt lat="48.6634" lon="2.10533">
        <ele>159.6</ele>
        <time>2021-11-07T11:13:31Z</time>
      </trkpt>
      <trkpt lat="48.66347" lon="2.10558">
        <ele>158.91</ele>
        <time>2021-11-07T11:13:48Z</time>
      </trkpt>
      <trkpt lat="48.66349" lon="2.10567">
        <ele>158.5</ele>
        <time>2021-11-07T11:13:53Z</time>
      </trkpt>
      <trkpt lat="48.66351" lon="2.10579">
        <ele>158.98</ele>
        <time>2021-11-07T11:13:59Z</time>
      </trkpt>
      <trkpt lat="48.66356" lon="2.106">
        <ele>158.72</ele>
        <time>2021-11-07T11:14:10Z</time>
      </trkpt>
      <trkpt lat="48.6636" lon="2.10614">
        <ele>158.44</ele>
        <time>2021-11-07T11:14:18Z</time>
      </trkpt>
      <trkpt lat="48.66362" lon="2.10621">
        <ele>158.41</ele>
        <time>2021-11-07T11:14:22Z</time>
      </trkpt>
      <trkpt lat="48.66367" lon="2.1063">
        <ele>158.13</ele>
        <time>2021-11-07T11:14:28Z</time>
      </trkpt>
      <trkpt lat="48.6637" lon="2.10638">
        <ele>158.23</ele>
        <time>2021-11-07T11:14:33Z</time>
      </trkpt>
      <trkpt lat="48.66377" lon="2.10659">
        <ele>157.8</ele>
        <time>2021-11-07T11:14:44Z</time>
      </trkpt>
      <trkpt lat="48.6638" lon="2.10667">
        <ele>158.14</ele>
        <time>2021-11-07T11:14:55Z</time>
      </trkpt>
      <trkpt lat="48.66383" lon="2.10684">
        <ele>157.86</ele>
        <time>2021-11-07T11:15:07Z</time>
      </trkpt>
      <trkpt lat="48.66386" lon="2.10695">
        <ele>157.61</ele>
        <time>2021-11-07T11:15:13Z</time>
      </trkpt>
      <trkpt lat="48.6639" lon="2.10715">
        <ele>157.7</ele>
        <time>2021-11-07T11:15:24Z</time>
      </trkpt>
      <trkpt lat="48.66393" lon="2.10728">
        <ele>157.61</ele>
        <time>2021-11-07T11:15:33Z</time>
      </trkpt>
      <trkpt lat="48.66394" lon="2.10732">
        <ele>157.71</ele>
        <time>2021-11-07T11:15:35Z</time>
      </trkpt>
      <trkpt lat="48.664" lon="2.10754">
        <ele>157.25</ele>
        <time>2021-11-07T11:15:46Z</time>
      </trkpt>
      <trkpt lat="48.66401" lon="2.10761">
        <ele>157.64</ele>
        <time>2021-11-07T11:15:50Z</time>
      </trkpt>
      <trkpt lat="48.66404" lon="2.10772">
        <ele>157.05</ele>
        <time>2021-11-07T11:15:56Z</time>
      </trkpt>
      <trkpt lat="48.6641" lon="2.10786">
        <ele>156.87</ele>
        <time>2021-11-07T11:16:06Z</time>
      </trkpt>
      <trkpt lat="48.66413" lon="2.10792">
        <ele>157.28</ele>
        <time>2021-11-07T11:16:10Z</time>
      </trkpt>
      <trkpt lat="48.66413" lon="2.10799">
        <ele>157.56</ele>
        <time>2021-11-07T11:16:14Z</time>
      </trkpt>
      <trkpt lat="48.66417" lon="2.10817">
        <ele>156.62</ele>
        <time>2021-11-07T11:16:23Z</time>
      </trkpt>
      <trkpt lat="48.66421" lon="2.1083">
        <ele>156.82</ele>
        <time>2021-11-07T11:16:30Z</time>
      </trkpt>
      <trkpt lat="48.66422" lon="2.10834">
        <ele>156.89</ele>
        <time>2021-11-07T11:16:32Z</time>
      </trkpt>
      <trkpt lat="48.66423" lon="2.10839">
        <ele>156.7</ele>
        <time>2021-11-07T11:16:34Z</time>
      </trkpt>
      <trkpt lat="48.66425" lon="2.10843">
        <ele>156.9</ele>
        <time>2021-11-07T11:16:37Z</time>
      </trkpt>
      <trkpt lat="48.66427" lon="2.10853">
        <ele>157.09</ele>
        <time>2021-11-07T11:16:48Z</time>
      </trkpt>
      <trkpt lat="48.6643" lon="2.10862">
        <ele>156.78</ele>
        <time>2021-11-07T11:17:02Z</time>
      </trkpt>
      <trkpt lat="48.66434" lon="2.10874">
        <ele>156.4</ele>
        <time>2021-11-07T11:17:13Z</time>
      </trkpt>
      <trkpt lat="48.66442" lon="2.10897">
        <ele>156.35</ele>
        <time>2021-11-07T11:17:30Z</time>
      </trkpt>
      <trkpt lat="48.66446" lon="2.10904">
        <ele>156.4</ele>
        <time>2021-11-07T11:17:35Z</time>
      </trkpt>
      <trkpt lat="48.66451" lon="2.1092">
        <ele>155.84</ele>
        <time>2021-11-07T11:17:44Z</time>
      </trkpt>
      <trkpt lat="48.66457" lon="2.10939">
        <ele>155.82</ele>
        <time>2021-11-07T11:17:57Z</time>
      </trkpt>
      <trkpt lat="48.66464" lon="2.10958">
        <ele>156.01</ele>
        <time>2021-11-07T11:18:11Z</time>
      </trkpt>
      <trkpt lat="48.66467" lon="2.1097">
        <ele>156.41</ele>
        <time>2021-11-07T11:18:17Z</time>
      </trkpt>
      <trkpt lat="48.66473" lon="2.10993">
        <ele>155.59</ele>
        <time>2021-11-07T11:18:30Z</time>
      </trkpt>
      <trkpt lat="48.66476" lon="2.10998">
        <ele>155.72</ele>
        <time>2021-11-07T11:18:34Z</time>
      </trkpt>
      <trkpt lat="48.6648" lon="2.11013">
        <ele>155.84</ele>
        <time>2021-11-07T11:18:43Z</time>
      </trkpt>
      <trkpt lat="48.66488" lon="2.1104">
        <ele>155.14</ele>
        <time>2021-11-07T11:18:59Z</time>
      </trkpt>
      <trkpt lat="48.66492" lon="2.11055">
        <ele>155.52</ele>
        <time>2021-11-07T11:19:08Z</time>
      </trkpt>
      <trkpt lat="48.66493" lon="2.11056">
        <ele>155.71</ele>
        <time>2021-11-07T11:19:10Z</time>
      </trkpt>
      <trkpt lat="48.66497" lon="2.11076">
        <ele>154.98</ele>
        <time>2021-11-07T11:19:27Z</time>
      </trkpt>
      <trkpt lat="48.665" lon="2.11081">
        <ele>154.89</ele>
        <time>2021-11-07T11:19:38Z</time>
      </trkpt>
      <trkpt lat="48.66499" lon="2.11092">
        <ele>154.94</ele>
        <time>2021-11-07T11:19:56Z</time>
      </trkpt>
      <trkpt lat="48.66503" lon="2.11105">
        <ele>154.83</ele>
        <time>2021-11-07T11:20:11Z</time>
      </trkpt>
      <trkpt lat="48.66503" lon="2.11108">
        <ele>154.72</ele>
        <time>2021-11-07T11:20:32Z</time>
      </trkpt>
      <trkpt lat="48.66503" lon="2.11113">
        <ele>154.69</ele>
        <time>2021-11-07T11:20:51Z</time>
      </trkpt>
      <trkpt lat="48.66506" lon="2.11126">
        <ele>154.53</ele>
        <time>2021-11-07T11:21:09Z</time>
      </trkpt>
      <trkpt lat="48.66514" lon="2.11141">
        <ele>154.39</ele>
        <time>2021-11-07T11:21:22Z</time>
      </trkpt>
      <trkpt lat="48.66519" lon="2.11159">
        <ele>154.52</ele>
        <time>2021-11-07T11:21:33Z</time>
      </trkpt>
      <trkpt lat="48.66524" lon="2.11169">
        <ele>153.88</ele>
        <time>2021-11-07T11:21:41Z</time>
      </trkpt>
      <trkpt lat="48.66527" lon="2.11174">
        <ele>154.22</ele>
        <time>2021-11-07T11:21:44Z</time>
      </trkpt>
      <trkpt lat="48.66527" lon="2.1118">
        <ele>153.55</ele>
        <time>2021-11-07T11:21:47Z</time>
      </trkpt>
      <trkpt lat="48.6653" lon="2.11189">
        <ele>153.99</ele>
        <time>2021-11-07T11:21:53Z</time>
      </trkpt>
      <trkpt lat="48.66532" lon="2.11199">
        <ele>154.01</ele>
        <time>2021-11-07T11:21:58Z</time>
      </trkpt>
      <trkpt lat="48.66535" lon="2.11205">
        <ele>154.05</ele>
        <time>2021-11-07T11:22:02Z</time>
      </trkpt>
      <trkpt lat="48.66537" lon="2.11215">
        <ele>153.55</ele>
        <time>2021-11-07T11:22:07Z</time>
      </trkpt>
      <trkpt lat="48.66542" lon="2.11232">
        <ele>153.68</ele>
        <time>2021-11-07T11:22:17Z</time>
      </trkpt>
      <trkpt lat="48.6655" lon="2.11251">
        <ele>152.94</ele>
        <time>2021-11-07T11:22:29Z</time>
      </trkpt>
      <trkpt lat="48.66556" lon="2.11269">
        <ele>153.65</ele>
        <time>2021-11-07T11:22:39Z</time>
      </trkpt>
      <trkpt lat="48.66561" lon="2.11288">
        <ele>153.01</ele>
        <time>2021-11-07T11:22:51Z</time>
      </trkpt>
      <trkpt lat="48.66563" lon="2.11306">
        <ele>153.1</ele>
        <time>2021-11-07T11:23:04Z</time>
      </trkpt>
      <trkpt lat="48.66564" lon="2.11315">
        <ele>152.88</ele>
        <time>2021-11-07T11:23:18Z</time>
      </trkpt>
      <trkpt lat="48.66566" lon="2.11324">
        <ele>153.67</ele>
        <time>2021-11-07T11:23:38Z</time>
      </trkpt>
      <trkpt lat="48.66565" lon="2.11326">
        <ele>153.53</ele>
        <time>2021-11-07T11:23:54Z</time>
      </trkpt>
      <trkpt lat="48.66565" lon="2.11334">
        <ele>153.13</ele>
        <time>2021-11-07T11:24:09Z</time>
      </trkpt>
      <trkpt lat="48.66567" lon="2.11335">
        <ele>153.19</ele>
        <time>2021-11-07T11:24:26Z</time>
      </trkpt>
      <trkpt lat="48.66568" lon="2.11336">
        <ele>153.62</ele>
        <time>2021-11-07T11:24:54Z</time>
      </trkpt>
      <trkpt lat="48.66567" lon="2.11336">
        <ele>153.65</ele>
        <time>2021-11-07T11:25:17Z</time>
      </trkpt>
      <trkpt lat="48.66568" lon="2.11335">
        <ele>153.95</ele>
        <time>2021-11-07T11:25:40Z</time>
      </trkpt>
      <trkpt lat="48.66568" lon="2.11336">
        <ele>154.01</ele>
        <time>2021-11-07T11:26:05Z</time>
      </trkpt>
      <trkpt lat="48.66567" lon="2.11335">
        <ele>154.1</ele>
        <time>2021-11-07T11:26:33Z</time>
      </trkpt>
      <trkpt lat="48.66567" lon="2.11336">
        <ele>154.35</ele>
        <time>2021-11-07T11:26:58Z</time>
      </trkpt>
      <trkpt lat="48.66567" lon="2.11335">
        <ele>154.75</ele>
        <time>2021-11-07T11:27:20Z</time>
      </trkpt>
      <trkpt lat="48.66569" lon="2.11334">
        <ele>154.75</ele>
        <time>2021-11-07T11:27:51Z</time>
      </trkpt>
      <trkpt lat="48.6657" lon="2.11333">
        <ele>155.01</ele>
        <time>2021-11-07T11:28:10Z</time>
      </trkpt>
      <trkpt lat="48.66573" lon="2.11337">
        <ele>154.96</ele>
        <time>2021-11-07T11:28:28Z</time>
      </trkpt>
      <trkpt lat="48.66574" lon="2.11343">
        <ele>155.92</ele>
        <time>2021-11-07T11:28:43Z</time>
      </trkpt>
      <trkpt lat="48.66579" lon="2.11355">
        <ele>155.37</ele>
        <time>2021-11-07T11:28:56Z</time>
      </trkpt>
      <trkpt lat="48.66584" lon="2.11369">
        <ele>155.61</ele>
        <time>2021-11-07T11:29:10Z</time>
      </trkpt>
      <trkpt lat="48.66594" lon="2.11392">
        <ele>155.09</ele>
        <time>2021-11-07T11:29:28Z</time>
      </trkpt>
      <trkpt lat="48.66599" lon="2.11404">
        <ele>154.84</ele>
        <time>2021-11-07T11:29:36Z</time>
      </trkpt>
      <trkpt lat="48.66603" lon="2.11416">
        <ele>154.91</ele>
        <time>2021-11-07T11:29:47Z</time>
      </trkpt>
      <trkpt lat="48.66611" lon="2.11436">
        <ele>154.34</ele>
        <time>2021-11-07T11:30:03Z</time>
      </trkpt>
      <trkpt lat="48.66615" lon="2.11456">
        <ele>154.95</ele>
        <time>2021-11-07T11:30:18Z</time>
      </trkpt>
      <trkpt lat="48.66621" lon="2.11471">
        <ele>154.22</ele>
        <time>2021-11-07T11:30:30Z</time>
      </trkpt>
      <trkpt lat="48.66626" lon="2.11489">
        <ele>154.1</ele>
        <time>2021-11-07T11:30:44Z</time>
      </trkpt>
      <trkpt lat="48.66634" lon="2.11508">
        <ele>153.49</ele>
        <time>2021-11-07T11:30:56Z</time>
      </trkpt>
      <trkpt lat="48.66636" lon="2.11514">
        <ele>153.64</ele>
        <time>2021-11-07T11:31:00Z</time>
      </trkpt>
      <trkpt lat="48.66641" lon="2.11528">
        <ele>152.69</ele>
        <time>2021-11-07T11:31:09Z</time>
      </trkpt>
      <trkpt lat="48.66647" lon="2.11548">
        <ele>152.76</ele>
        <time>2021-11-07T11:31:24Z</time>
      </trkpt>
      <trkpt lat="48.66653" lon="2.11567">
        <ele>153.09</ele>
        <time>2021-11-07T11:31:38Z</time>
      </trkpt>
      <trkpt lat="48.66659" lon="2.11587">
        <ele>152.27</ele>
        <time>2021-11-07T11:31:49Z</time>
      </trkpt>
      <trkpt lat="48.6666" lon="2.11595">
        <ele>152.52</ele>
        <time>2021-11-07T11:31:53Z</time>
      </trkpt>
      <trkpt lat="48.66663" lon="2.11613">
        <ele>152.21</ele>
        <time>2021-11-07T11:32:03Z</time>
      </trkpt>
      <trkpt lat="48.66666" lon="2.11625">
        <ele>152.54</ele>
        <time>2021-11-07T11:32:12Z</time>
      </trkpt>
      <trkpt lat="48.6667" lon="2.1165">
        <ele>151.92</ele>
        <time>2021-11-07T11:32:24Z</time>
      </trkpt>
      <trkpt lat="48.66673" lon="2.11667">
        <ele>151.87</ele>
        <time>2021-11-07T11:32:34Z</time>
      </trkpt>
      <trkpt lat="48.66676" lon="2.1168">
        <ele>151.8</ele>
        <time>2021-11-07T11:32:43Z</time>
      </trkpt>
      <trkpt lat="48.66679" lon="2.11694">
        <ele>151.9</ele>
        <time>2021-11-07T11:32:57Z</time>
      </trkpt>
      <trkpt lat="48.66683" lon="2.1171">
        <ele>151.72</ele>
        <time>2021-11-07T11:33:11Z</time>
      </trkpt>
      <trkpt lat="48.66686" lon="2.11731">
        <ele>151.16</ele>
        <time>2021-11-07T11:33:26Z</time>
      </trkpt>
      <trkpt lat="48.66691" lon="2.11743">
        <ele>150.77</ele>
        <time>2021-11-07T11:33:40Z</time>
      </trkpt>
      <trkpt lat="48.66696" lon="2.1175">
        <ele>150.22</ele>
        <time>2021-11-07T11:33:56Z</time>
      </trkpt>
      <trkpt lat="48.66701" lon="2.11753">
        <ele>149.78</ele>
        <time>2021-11-07T11:34:08Z</time>
      </trkpt>
      <trkpt lat="48.66704" lon="2.11756">
        <ele>149.37</ele>
        <time>2021-11-07T11:34:28Z</time>
      </trkpt>
      <trkpt lat="48.6671" lon="2.11765">
        <ele>148.45</ele>
        <time>2021-11-07T11:34:42Z</time>
      </trkpt>
      <trkpt lat="48.66716" lon="2.11765">
        <ele>147.74</ele>
        <time>2021-11-07T11:34:53Z</time>
      </trkpt>
      <trkpt lat="48.66717" lon="2.11765">
        <ele>148.15</ele>
        <time>2021-11-07T11:35:07Z</time>
      </trkpt>
      <trkpt lat="48.66718" lon="2.11766">
        <ele>148.13</ele>
        <time>2021-11-07T11:35:23Z</time>
      </trkpt>
      <trkpt lat="48.66717" lon="2.11768">
        <ele>148.5</ele>
        <time>2021-11-07T11:35:39Z</time>
      </trkpt>
      <trkpt lat="48.66714" lon="2.11769">
        <ele>147.91</ele>
        <time>2021-11-07T11:35:54Z</time>
      </trkpt>
      <trkpt lat="48.66713" lon="2.1177">
        <ele>148.51</ele>
        <time>2021-11-07T11:35:55Z</time>
      </trkpt>
      <trkpt lat="48.66701" lon="2.11769">
        <ele>148.71</ele>
        <time>2021-11-07T11:36:10Z</time>
      </trkpt>
      <trkpt lat="48.66687" lon="2.11764">
        <ele>148.47</ele>
        <time>2021-11-07T11:36:26Z</time>
      </trkpt>
      <trkpt lat="48.66676" lon="2.11758">
        <ele>148.24</ele>
        <time>2021-11-07T11:36:38Z</time>
      </trkpt>
      <trkpt lat="48.66669" lon="2.11755">
        <ele>148.83</ele>
        <time>2021-11-07T11:36:52Z</time>
      </trkpt>
      <trkpt lat="48.66666" lon="2.11757">
        <ele>149.41</ele>
        <time>2021-11-07T11:37:09Z</time>
      </trkpt>
      <trkpt lat="48.66665" lon="2.11758">
        <ele>149.46</ele>
        <time>2021-11-07T11:37:25Z</time>
      </trkpt>
      <trkpt lat="48.66662" lon="2.11766">
        <ele>149.23</ele>
        <time>2021-11-07T11:37:38Z</time>
      </trkpt>
      <trkpt lat="48.66662" lon="2.11774">
        <ele>149.33</ele>
        <time>2021-11-07T11:37:49Z</time>
      </trkpt>
      <trkpt lat="48.66665" lon="2.11787">
        <ele>149.55</ele>
        <time>2021-11-07T11:38:06Z</time>
      </trkpt>
      <trkpt lat="48.66664" lon="2.11793">
        <ele>149.85</ele>
        <time>2021-11-07T11:38:22Z</time>
      </trkpt>
      <trkpt lat="48.66665" lon="2.11796">
        <ele>149.67</ele>
        <time>2021-11-07T11:38:36Z</time>
      </trkpt>
      <trkpt lat="48.66669" lon="2.11799">
        <ele>149.75</ele>
        <time>2021-11-07T11:38:43Z</time>
      </trkpt>
      <trkpt lat="48.66672" lon="2.11806">
        <ele>150.25</ele>
        <time>2021-11-07T11:38:49Z</time>
      </trkpt>
      <trkpt lat="48.66679" lon="2.11828">
        <ele>149.58</ele>
        <time>2021-11-07T11:39:07Z</time>
      </trkpt>
      <trkpt lat="48.66685" lon="2.11846">
        <ele>149.85</ele>
        <time>2021-11-07T11:39:22Z</time>
      </trkpt>
      <trkpt lat="48.66692" lon="2.11864">
        <ele>150.38</ele>
        <time>2021-11-07T11:39:36Z</time>
      </trkpt>
      <trkpt lat="48.66699" lon="2.11874">
        <ele>149.71</ele>
        <time>2021-11-07T11:39:46Z</time>
      </trkpt>
      <trkpt lat="48.66701" lon="2.11881">
        <ele>149.36</ele>
        <time>2021-11-07T11:39:51Z</time>
      </trkpt>
      <trkpt lat="48.66706" lon="2.11903">
        <ele>149.13</ele>
        <time>2021-11-07T11:40:03Z</time>
      </trkpt>
      <trkpt lat="48.66707" lon="2.11907">
        <ele>148.86</ele>
        <time>2021-11-07T11:40:05Z</time>
      </trkpt>
      <trkpt lat="48.66711" lon="2.11927">
        <ele>148.87</ele>
        <time>2021-11-07T11:40:16Z</time>
      </trkpt>
      <trkpt lat="48.66718" lon="2.11943">
        <ele>148.5</ele>
        <time>2021-11-07T11:40:27Z</time>
      </trkpt>
      <trkpt lat="48.66722" lon="2.1196">
        <ele>148.41</ele>
        <time>2021-11-07T11:40:36Z</time>
      </trkpt>
      <trkpt lat="48.66724" lon="2.11963">
        <ele>148.26</ele>
        <time>2021-11-07T11:40:39Z</time>
      </trkpt>
      <trkpt lat="48.66733" lon="2.11989">
        <ele>148.11</ele>
        <time>2021-11-07T11:40:51Z</time>
      </trkpt>
      <trkpt lat="48.66735" lon="2.11994">
        <ele>147.91</ele>
        <time>2021-11-07T11:40:54Z</time>
      </trkpt>
      <trkpt lat="48.66736" lon="2.11997">
        <ele>148.22</ele>
        <time>2021-11-07T11:40:56Z</time>
      </trkpt>
      <trkpt lat="48.6674" lon="2.12014">
        <ele>148.24</ele>
        <time>2021-11-07T11:41:07Z</time>
      </trkpt>
      <trkpt lat="48.66745" lon="2.1203">
        <ele>148.94</ele>
        <time>2021-11-07T11:41:18Z</time>
      </trkpt>
      <trkpt lat="48.66749" lon="2.12042">
        <ele>149</ele>
        <time>2021-11-07T11:41:27Z</time>
      </trkpt>
      <trkpt lat="48.66754" lon="2.12057">
        <ele>149.08</ele>
        <time>2021-11-07T11:41:39Z</time>
      </trkpt>
      <trkpt lat="48.66758" lon="2.12071">
        <ele>148.64</ele>
        <time>2021-11-07T11:41:51Z</time>
      </trkpt>
      <trkpt lat="48.66759" lon="2.12074">
        <ele>149.09</ele>
        <time>2021-11-07T11:41:54Z</time>
      </trkpt>
      <trkpt lat="48.6676" lon="2.12081">
        <ele>149.44</ele>
        <time>2021-11-07T11:41:59Z</time>
      </trkpt>
      <trkpt lat="48.66762" lon="2.12101">
        <ele>148.88</ele>
        <time>2021-11-07T11:42:12Z</time>
      </trkpt>
      <trkpt lat="48.66762" lon="2.12102">
        <ele>149.64</ele>
        <time>2021-11-07T11:42:13Z</time>
      </trkpt>
      <trkpt lat="48.66762" lon="2.12105">
        <ele>148.74</ele>
        <time>2021-11-07T11:42:15Z</time>
      </trkpt>
      <trkpt lat="48.6676" lon="2.12114">
        <ele>148.62</ele>
        <time>2021-11-07T11:42:21Z</time>
      </trkpt>
      <trkpt lat="48.66765" lon="2.12128">
        <ele>149.03</ele>
        <time>2021-11-07T11:42:31Z</time>
      </trkpt>
      <trkpt lat="48.66773" lon="2.12141">
        <ele>149.04</ele>
        <time>2021-11-07T11:42:42Z</time>
      </trkpt>
      <trkpt lat="48.66774" lon="2.12143">
        <ele>148.22</ele>
        <time>2021-11-07T11:42:44Z</time>
      </trkpt>
      <trkpt lat="48.66781" lon="2.12153">
        <ele>148.5</ele>
        <time>2021-11-07T11:42:53Z</time>
      </trkpt>
      <trkpt lat="48.66787" lon="2.12165">
        <ele>148.63</ele>
        <time>2021-11-07T11:43:03Z</time>
      </trkpt>
      <trkpt lat="48.66793" lon="2.12177">
        <ele>148.08</ele>
        <time>2021-11-07T11:43:13Z</time>
      </trkpt>
      <trkpt lat="48.66798" lon="2.12187">
        <ele>147.51</ele>
        <time>2021-11-07T11:43:24Z</time>
      </trkpt>
      <trkpt lat="48.66802" lon="2.12206">
        <ele>147.64</ele>
        <time>2021-11-07T11:43:37Z</time>
      </trkpt>
      <trkpt lat="48.66808" lon="2.12222">
        <ele>147.35</ele>
        <time>2021-11-07T11:43:50Z</time>
      </trkpt>
      <trkpt lat="48.66814" lon="2.12238">
        <ele>147.99</ele>
        <time>2021-11-07T11:44:02Z</time>
      </trkpt>
      <trkpt lat="48.66819" lon="2.12258">
        <ele>147.14</ele>
        <time>2021-11-07T11:44:16Z</time>
      </trkpt>
      <trkpt lat="48.66822" lon="2.12268">
        <ele>147.31</ele>
        <time>2021-11-07T11:44:23Z</time>
      </trkpt>
      <trkpt lat="48.66827" lon="2.12287">
        <ele>147.72</ele>
        <time>2021-11-07T11:44:40Z</time>
      </trkpt>
      <trkpt lat="48.66829" lon="2.12296">
        <ele>147.5</ele>
        <time>2021-11-07T11:44:46Z</time>
      </trkpt>
      <trkpt lat="48.66831" lon="2.12302">
        <ele>147.61</ele>
        <time>2021-11-07T11:44:50Z</time>
      </trkpt>
      <trkpt lat="48.66835" lon="2.12318">
        <ele>147.11</ele>
        <time>2021-11-07T11:45:02Z</time>
      </trkpt>
      <trkpt lat="48.66836" lon="2.1232">
        <ele>147.42</ele>
        <time>2021-11-07T11:45:06Z</time>
      </trkpt>
      <trkpt lat="48.66837" lon="2.12325">
        <ele>147.61</ele>
        <time>2021-11-07T11:45:09Z</time>
      </trkpt>
      <trkpt lat="48.6684" lon="2.12335">
        <ele>147.47</ele>
        <time>2021-11-07T11:45:16Z</time>
      </trkpt>
      <trkpt lat="48.66845" lon="2.12348">
        <ele>147.94</ele>
        <time>2021-11-07T11:45:26Z</time>
      </trkpt>
      <trkpt lat="48.66849" lon="2.12362">
        <ele>147.78</ele>
        <time>2021-11-07T11:45:34Z</time>
      </trkpt>
      <trkpt lat="48.66853" lon="2.12381">
        <ele>148.13</ele>
        <time>2021-11-07T11:45:45Z</time>
      </trkpt>
      <trkpt lat="48.66857" lon="2.12394">
        <ele>148.38</ele>
        <time>2021-11-07T11:45:55Z</time>
      </trkpt>
      <trkpt lat="48.66861" lon="2.12402">
        <ele>148.74</ele>
        <time>2021-11-07T11:46:08Z</time>
      </trkpt>
      <trkpt lat="48.66871" lon="2.12408">
        <ele>151.31</ele>
        <time>2021-11-07T11:46:22Z</time>
      </trkpt>
      <trkpt lat="48.6688" lon="2.12418">
        <ele>152.71</ele>
        <time>2021-11-07T11:46:37Z</time>
      </trkpt>
      <trkpt lat="48.66889" lon="2.12438">
        <ele>153.44</ele>
        <time>2021-11-07T11:46:55Z</time>
      </trkpt>
      <trkpt lat="48.66901" lon="2.1246">
        <ele>154.2</ele>
        <time>2021-11-07T11:47:12Z</time>
      </trkpt>
      <trkpt lat="48.66908" lon="2.12466">
        <ele>153.9</ele>
        <time>2021-11-07T11:47:17Z</time>
      </trkpt>
      <trkpt lat="48.66914" lon="2.12501">
        <ele>154.96</ele>
        <time>2021-11-07T11:47:31Z</time>
      </trkpt>
      <trkpt lat="48.66924" lon="2.12523">
        <ele>156.15</ele>
        <time>2021-11-07T11:47:47Z</time>
      </trkpt>
      <trkpt lat="48.66926" lon="2.12527">
        <ele>156.6</ele>
        <time>2021-11-07T11:47:49Z</time>
      </trkpt>
      <trkpt lat="48.66935" lon="2.12544">
        <ele>155.85</ele>
        <time>2021-11-07T11:48:02Z</time>
      </trkpt>
      <trkpt lat="48.66941" lon="2.12555">
        <ele>155.12</ele>
        <time>2021-11-07T11:48:12Z</time>
      </trkpt>
      <trkpt lat="48.66951" lon="2.12562">
        <ele>153.31</ele>
        <time>2021-11-07T11:48:27Z</time>
      </trkpt>
      <trkpt lat="48.66951" lon="2.12562">
        <ele>153.52</ele>
        <time>2021-11-07T11:48:29Z</time>
      </trkpt>
      <trkpt lat="48.66956" lon="2.1257">
        <ele>153.24</ele>
        <time>2021-11-07T11:48:35Z</time>
      </trkpt>
      <trkpt lat="48.66959" lon="2.12576">
        <ele>152.95</ele>
        <time>2021-11-07T11:48:39Z</time>
      </trkpt>
      <trkpt lat="48.66965" lon="2.12586">
        <ele>153.63</ele>
        <time>2021-11-07T11:48:46Z</time>
      </trkpt>
      <trkpt lat="48.66972" lon="2.126">
        <ele>153.77</ele>
        <time>2021-11-07T11:48:55Z</time>
      </trkpt>
      <trkpt lat="48.66975" lon="2.12607">
        <ele>153.67</ele>
        <time>2021-11-07T11:49:00Z</time>
      </trkpt>
      <trkpt lat="48.66977" lon="2.12611">
        <ele>153.77</ele>
        <time>2021-11-07T11:49:03Z</time>
      </trkpt>
      <trkpt lat="48.6698" lon="2.12619">
        <ele>153.36</ele>
        <time>2021-11-07T11:49:09Z</time>
      </trkpt>
      <trkpt lat="48.66983" lon="2.12638">
        <ele>153.77</ele>
        <time>2021-11-07T11:49:20Z</time>
      </trkpt>
      <trkpt lat="48.66983" lon="2.12651">
        <ele>153.58</ele>
        <time>2021-11-07T11:49:30Z</time>
      </trkpt>
      <trkpt lat="48.66983" lon="2.12665">
        <ele>152.86</ele>
        <time>2021-11-07T11:49:42Z</time>
      </trkpt>
      <trkpt lat="48.66985" lon="2.12671">
        <ele>153.75</ele>
        <time>2021-11-07T11:49:53Z</time>
      </trkpt>
      <trkpt lat="48.66983" lon="2.12678">
        <ele>154.11</ele>
        <time>2021-11-07T11:50:09Z</time>
      </trkpt>
      <trkpt lat="48.66985" lon="2.12679">
        <ele>154.3</ele>
        <time>2021-11-07T11:50:21Z</time>
      </trkpt>
      <trkpt lat="48.66986" lon="2.12682">
        <ele>154.22</ele>
        <time>2021-11-07T11:50:38Z</time>
      </trkpt>
      <trkpt lat="48.66985" lon="2.12683">
        <ele>154.11</ele>
        <time>2021-11-07T11:50:54Z</time>
      </trkpt>
      <trkpt lat="48.66985" lon="2.12684">
        <ele>154.04</ele>
        <time>2021-11-07T11:51:15Z</time>
      </trkpt>
      <trkpt lat="48.66988" lon="2.12682">
        <ele>153.67</ele>
        <time>2021-11-07T11:51:32Z</time>
      </trkpt>
      <trkpt lat="48.66996" lon="2.12679">
        <ele>154.16</ele>
        <time>2021-11-07T11:51:48Z</time>
      </trkpt>
      <trkpt lat="48.67006" lon="2.12678">
        <ele>154.56</ele>
        <time>2021-11-07T11:52:00Z</time>
      </trkpt>
      <trkpt lat="48.67014" lon="2.12686">
        <ele>154.47</ele>
        <time>2021-11-07T11:52:12Z</time>
      </trkpt>
      <trkpt lat="48.67019" lon="2.12697">
        <ele>155.32</ele>
        <time>2021-11-07T11:52:22Z</time>
      </trkpt>
      <trkpt lat="48.67019" lon="2.12708">
        <ele>155.52</ele>
        <time>2021-11-07T11:52:31Z</time>
      </trkpt>
      <trkpt lat="48.67022" lon="2.12717">
        <ele>156.04</ele>
        <time>2021-11-07T11:52:44Z</time>
      </trkpt>
      <trkpt lat="48.67021" lon="2.1272">
        <ele>156.13</ele>
        <time>2021-11-07T11:53:03Z</time>
      </trkpt>
      <trkpt lat="48.67026" lon="2.12727">
        <ele>156.2</ele>
        <time>2021-11-07T11:53:17Z</time>
      </trkpt>
      <trkpt lat="48.67038" lon="2.12729">
        <ele>156.1</ele>
        <time>2021-11-07T11:53:34Z</time>
      </trkpt>
      <trkpt lat="48.6704" lon="2.12729">
        <ele>156.38</ele>
        <time>2021-11-07T11:53:51Z</time>
      </trkpt>
      <trkpt lat="48.67036" lon="2.12729">
        <ele>156.51</ele>
        <time>2021-11-07T11:54:04Z</time>
      </trkpt>
      <trkpt lat="48.6703" lon="2.12729">
        <ele>156.04</ele>
        <time>2021-11-07T11:54:16Z</time>
      </trkpt>
      <trkpt lat="48.67024" lon="2.12733">
        <ele>156.38</ele>
        <time>2021-11-07T11:54:28Z</time>
      </trkpt>
      <trkpt lat="48.67024" lon="2.12734">
        <ele>156.28</ele>
        <time>2021-11-07T11:54:29Z</time>
      </trkpt>
      <trkpt lat="48.67018" lon="2.12745">
        <ele>156.11</ele>
        <time>2021-11-07T11:54:41Z</time>
      </trkpt>
      <trkpt lat="48.67013" lon="2.12749">
        <ele>155.76</ele>
        <time>2021-11-07T11:54:51Z</time>
      </trkpt>
      <trkpt lat="48.67005" lon="2.12756">
        <ele>155.51</ele>
        <time>2021-11-07T11:55:03Z</time>
      </trkpt>
      <trkpt lat="48.67004" lon="2.1276">
        <ele>155.49</ele>
        <time>2021-11-07T11:55:06Z</time>
      </trkpt>
      <trkpt lat="48.67003" lon="2.1277">
        <ele>155.68</ele>
        <time>2021-11-07T11:55:14Z</time>
      </trkpt>
      <trkpt lat="48.67003" lon="2.12775">
        <ele>155.57</ele>
        <time>2021-11-07T11:55:17Z</time>
      </trkpt>
      <trkpt lat="48.67006" lon="2.12794">
        <ele>156.51</ele>
        <time>2021-11-07T11:55:29Z</time>
      </trkpt>
      <trkpt lat="48.67008" lon="2.12806">
        <ele>156.73</ele>
        <time>2021-11-07T11:55:41Z</time>
      </trkpt>
      <trkpt lat="48.67009" lon="2.12815">
        <ele>156.53</ele>
        <time>2021-11-07T11:55:56Z</time>
      </trkpt>
      <trkpt lat="48.67015" lon="2.12828">
        <ele>156.54</ele>
        <time>2021-11-07T11:56:06Z</time>
      </trkpt>
      <trkpt lat="48.6702" lon="2.12841">
        <ele>156.73</ele>
        <time>2021-11-07T11:56:15Z</time>
      </trkpt>
      <trkpt lat="48.67024" lon="2.12854">
        <ele>156.34</ele>
        <time>2021-11-07T11:56:25Z</time>
      </trkpt>
      <trkpt lat="48.67028" lon="2.12868">
        <ele>155.41</ele>
        <time>2021-11-07T11:56:34Z</time>
      </trkpt>
      <trkpt lat="48.67031" lon="2.12884">
        <ele>155.25</ele>
        <time>2021-11-07T11:56:43Z</time>
      </trkpt>
      <trkpt lat="48.67035" lon="2.12901">
        <ele>156.35</ele>
        <time>2021-11-07T11:56:54Z</time>
      </trkpt>
      <trkpt lat="48.67036" lon="2.12903">
        <ele>156.57</ele>
        <time>2021-11-07T11:56:56Z</time>
      </trkpt>
      <trkpt lat="48.67044" lon="2.12923">
        <ele>156.31</ele>
        <time>2021-11-07T11:57:09Z</time>
      </trkpt>
      <trkpt lat="48.67048" lon="2.12942">
        <ele>156.43</ele>
        <time>2021-11-07T11:57:20Z</time>
      </trkpt>
      <trkpt lat="48.67053" lon="2.12952">
        <ele>156.88</ele>
        <time>2021-11-07T11:57:27Z</time>
      </trkpt>
      <trkpt lat="48.67055" lon="2.12964">
        <ele>156.99</ele>
        <time>2021-11-07T11:57:33Z</time>
      </trkpt>
      <trkpt lat="48.67057" lon="2.12967">
        <ele>157.27</ele>
        <time>2021-11-07T11:57:35Z</time>
      </trkpt>
      <trkpt lat="48.67062" lon="2.12986">
        <ele>157.2</ele>
        <time>2021-11-07T11:57:46Z</time>
      </trkpt>
      <trkpt lat="48.67063" lon="2.12991">
        <ele>157.73</ele>
        <time>2021-11-07T11:57:50Z</time>
      </trkpt>
      <trkpt lat="48.67069" lon="2.13007">
        <ele>157.46</ele>
        <time>2021-11-07T11:58:01Z</time>
      </trkpt>
      <trkpt lat="48.67074" lon="2.13024">
        <ele>158.09</ele>
        <time>2021-11-07T11:58:11Z</time>
      </trkpt>
      <trkpt lat="48.67078" lon="2.13037">
        <ele>157.77</ele>
        <time>2021-11-07T11:58:20Z</time>
      </trkpt>
      <trkpt lat="48.67081" lon="2.13047">
        <ele>157.7</ele>
        <time>2021-11-07T11:58:26Z</time>
      </trkpt>
      <trkpt lat="48.67087" lon="2.13066">
        <ele>157.77</ele>
        <time>2021-11-07T11:58:37Z</time>
      </trkpt>
      <trkpt lat="48.67087" lon="2.13067">
        <ele>157.96</ele>
        <time>2021-11-07T11:58:38Z</time>
      </trkpt>
      <trkpt lat="48.67091" lon="2.13083">
        <ele>157.41</ele>
        <time>2021-11-07T11:58:48Z</time>
      </trkpt>
      <trkpt lat="48.67092" lon="2.13085">
        <ele>158.18</ele>
        <time>2021-11-07T11:58:50Z</time>
      </trkpt>
      <trkpt lat="48.67098" lon="2.13106">
        <ele>158.1</ele>
        <time>2021-11-07T11:59:02Z</time>
      </trkpt>
      <trkpt lat="48.67099" lon="2.13109">
        <ele>158.17</ele>
        <time>2021-11-07T11:59:04Z</time>
      </trkpt>
      <trkpt lat="48.67102" lon="2.13124">
        <ele>157.94</ele>
        <time>2021-11-07T11:59:11Z</time>
      </trkpt>
      <trkpt lat="48.67106" lon="2.13139">
        <ele>158.25</ele>
        <time>2021-11-07T11:59:20Z</time>
      </trkpt>
      <trkpt lat="48.67107" lon="2.13141">
        <ele>158.18</ele>
        <time>2021-11-07T11:59:21Z</time>
      </trkpt>
      <trkpt lat="48.67113" lon="2.13158">
        <ele>158.74</ele>
        <time>2021-11-07T11:59:32Z</time>
      </trkpt>
      <trkpt lat="48.67113" lon="2.13159">
        <ele>158.36</ele>
        <time>2021-11-07T11:59:33Z</time>
      </trkpt>
      <trkpt lat="48.6712" lon="2.13173">
        <ele>158.57</ele>
        <time>2021-11-07T11:59:43Z</time>
      </trkpt>
      <trkpt lat="48.67123" lon="2.13176">
        <ele>158.36</ele>
        <time>2021-11-07T11:59:46Z</time>
      </trkpt>
      <trkpt lat="48.67125" lon="2.1318">
        <ele>158.5</ele>
        <time>2021-11-07T11:59:49Z</time>
      </trkpt>
      <trkpt lat="48.67135" lon="2.13189">
        <ele>158.91</ele>
        <time>2021-11-07T11:59:59Z</time>
      </trkpt>
      <trkpt lat="48.67142" lon="2.13197">
        <ele>158.94</ele>
        <time>2021-11-07T12:00:06Z</time>
      </trkpt>
      <trkpt lat="48.67146" lon="2.13209">
        <ele>159.03</ele>
        <time>2021-11-07T12:00:13Z</time>
      </trkpt>
      <trkpt lat="48.67149" lon="2.1322">
        <ele>158.56</ele>
        <time>2021-11-07T12:00:19Z</time>
      </trkpt>
      <trkpt lat="48.67152" lon="2.13252">
        <ele>158.34</ele>
        <time>2021-11-07T12:00:33Z</time>
      </trkpt>
      <trkpt lat="48.67155" lon="2.13266">
        <ele>158.31</ele>
        <time>2021-11-07T12:00:40Z</time>
      </trkpt>
      <trkpt lat="48.6716" lon="2.13283">
        <ele>157.58</ele>
        <time>2021-11-07T12:00:50Z</time>
      </trkpt>
      <trkpt lat="48.67161" lon="2.13286">
        <ele>157.87</ele>
        <time>2021-11-07T12:00:53Z</time>
      </trkpt>
      <trkpt lat="48.67163" lon="2.13295">
        <ele>158.3</ele>
        <time>2021-11-07T12:00:58Z</time>
      </trkpt>
      <trkpt lat="48.67164" lon="2.13301">
        <ele>158.06</ele>
        <time>2021-11-07T12:01:02Z</time>
      </trkpt>
      <trkpt lat="48.6717" lon="2.13322">
        <ele>157.66</ele>
        <time>2021-11-07T12:01:14Z</time>
      </trkpt>
      <trkpt lat="48.67174" lon="2.13334">
        <ele>156.85</ele>
        <time>2021-11-07T12:01:21Z</time>
      </trkpt>
      <trkpt lat="48.67178" lon="2.13352">
        <ele>157.49</ele>
        <time>2021-11-07T12:01:32Z</time>
      </trkpt>
      <trkpt lat="48.67184" lon="2.13371">
        <ele>157.26</ele>
        <time>2021-11-07T12:01:44Z</time>
      </trkpt>
      <trkpt lat="48.67188" lon="2.13387">
        <ele>156.99</ele>
        <time>2021-11-07T12:01:53Z</time>
      </trkpt>
      <trkpt lat="48.67194" lon="2.13404">
        <ele>157.13</ele>
        <time>2021-11-07T12:02:04Z</time>
      </trkpt>
      <trkpt lat="48.67198" lon="2.13421">
        <ele>156.8</ele>
        <time>2021-11-07T12:02:14Z</time>
      </trkpt>
      <trkpt lat="48.672" lon="2.13427">
        <ele>156.65</ele>
        <time>2021-11-07T12:02:18Z</time>
      </trkpt>
      <trkpt lat="48.672" lon="2.1343">
        <ele>156.78</ele>
        <time>2021-11-07T12:02:20Z</time>
      </trkpt>
      <trkpt lat="48.67202" lon="2.13435">
        <ele>156.64</ele>
        <time>2021-11-07T12:02:23Z</time>
      </trkpt>
      <trkpt lat="48.67207" lon="2.13455">
        <ele>157.07</ele>
        <time>2021-11-07T12:02:35Z</time>
      </trkpt>
      <trkpt lat="48.67214" lon="2.13474">
        <ele>156.46</ele>
        <time>2021-11-07T12:02:46Z</time>
      </trkpt>
      <trkpt lat="48.67215" lon="2.13481">
        <ele>156.09</ele>
        <time>2021-11-07T12:02:50Z</time>
      </trkpt>
      <trkpt lat="48.67217" lon="2.13486">
        <ele>155.99</ele>
        <time>2021-11-07T12:02:53Z</time>
      </trkpt>
      <trkpt lat="48.67224" lon="2.13504">
        <ele>155.73</ele>
        <time>2021-11-07T12:03:05Z</time>
      </trkpt>
      <trkpt lat="48.67228" lon="2.13522">
        <ele>155.22</ele>
        <time>2021-11-07T12:03:16Z</time>
      </trkpt>
      <trkpt lat="48.67232" lon="2.13535">
        <ele>155.71</ele>
        <time>2021-11-07T12:03:27Z</time>
      </trkpt>
      <trkpt lat="48.67234" lon="2.1354">
        <ele>155.38</ele>
        <time>2021-11-07T12:03:31Z</time>
      </trkpt>
      <trkpt lat="48.67241" lon="2.13558">
        <ele>154.91</ele>
        <time>2021-11-07T12:03:42Z</time>
      </trkpt>
      <trkpt lat="48.67248" lon="2.13571">
        <ele>155.42</ele>
        <time>2021-11-07T12:03:52Z</time>
      </trkpt>
      <trkpt lat="48.67257" lon="2.13582">
        <ele>154.94</ele>
        <time>2021-11-07T12:04:02Z</time>
      </trkpt>
      <trkpt lat="48.67258" lon="2.13583">
        <ele>155.04</ele>
        <time>2021-11-07T12:04:04Z</time>
      </trkpt>
      <trkpt lat="48.67262" lon="2.13585">
        <ele>154.99</ele>
        <time>2021-11-07T12:04:08Z</time>
      </trkpt>
      <trkpt lat="48.67272" lon="2.1359">
        <ele>155.09</ele>
        <time>2021-11-07T12:04:19Z</time>
      </trkpt>
      <trkpt lat="48.67282" lon="2.13595">
        <ele>154.78</ele>
        <time>2021-11-07T12:04:29Z</time>
      </trkpt>
      <trkpt lat="48.67285" lon="2.13596">
        <ele>154.77</ele>
        <time>2021-11-07T12:04:31Z</time>
      </trkpt>
      <trkpt lat="48.67299" lon="2.13604">
        <ele>154.83</ele>
        <time>2021-11-07T12:04:44Z</time>
      </trkpt>
      <trkpt lat="48.67308" lon="2.13619">
        <ele>154.46</ele>
        <time>2021-11-07T12:04:55Z</time>
      </trkpt>
      <trkpt lat="48.6731" lon="2.13626">
        <ele>154.52</ele>
        <time>2021-11-07T12:05:07Z</time>
      </trkpt>
      <trkpt lat="48.67311" lon="2.13633">
        <ele>154.1</ele>
        <time>2021-11-07T12:05:11Z</time>
      </trkpt>
      <trkpt lat="48.67315" lon="2.13647">
        <ele>154.52</ele>
        <time>2021-11-07T12:05:21Z</time>
      </trkpt>
      <trkpt lat="48.67319" lon="2.13656">
        <ele>154.45</ele>
        <time>2021-11-07T12:05:27Z</time>
      </trkpt>
      <trkpt lat="48.67322" lon="2.13674">
        <ele>154.3</ele>
        <time>2021-11-07T12:05:38Z</time>
      </trkpt>
      <trkpt lat="48.67321" lon="2.13697">
        <ele>154.12</ele>
        <time>2021-11-07T12:05:50Z</time>
      </trkpt>
      <trkpt lat="48.67321" lon="2.137">
        <ele>154.23</ele>
        <time>2021-11-07T12:05:52Z</time>
      </trkpt>
      <trkpt lat="48.67334" lon="2.13719">
        <ele>153.79</ele>
        <time>2021-11-07T12:06:07Z</time>
      </trkpt>
      <trkpt lat="48.67337" lon="2.13721">
        <ele>153.14</ele>
        <time>2021-11-07T12:06:10Z</time>
      </trkpt>
      <trkpt lat="48.67343" lon="2.13728">
        <ele>153.3</ele>
        <time>2021-11-07T12:06:17Z</time>
      </trkpt>
      <trkpt lat="48.67349" lon="2.13737">
        <ele>153.36</ele>
        <time>2021-11-07T12:06:24Z</time>
      </trkpt>
      <trkpt lat="48.67358" lon="2.13751">
        <ele>153.4</ele>
        <time>2021-11-07T12:06:36Z</time>
      </trkpt>
      <trkpt lat="48.67364" lon="2.13759">
        <ele>153.42</ele>
        <time>2021-11-07T12:06:44Z</time>
      </trkpt>
      <trkpt lat="48.67374" lon="2.13771">
        <ele>152.67</ele>
        <time>2021-11-07T12:06:55Z</time>
      </trkpt>
      <trkpt lat="48.67377" lon="2.13774">
        <ele>152.65</ele>
        <time>2021-11-07T12:06:59Z</time>
      </trkpt>
      <trkpt lat="48.67381" lon="2.13777">
        <ele>152.74</ele>
        <time>2021-11-07T12:07:03Z</time>
      </trkpt>
      <trkpt lat="48.6739" lon="2.13782">
        <ele>152.31</ele>
        <time>2021-11-07T12:07:13Z</time>
      </trkpt>
      <trkpt lat="48.67393" lon="2.13785">
        <ele>152.25</ele>
        <time>2021-11-07T12:07:19Z</time>
      </trkpt>
      <trkpt lat="48.67397" lon="2.13789">
        <ele>151.91</ele>
        <time>2021-11-07T12:07:24Z</time>
      </trkpt>
      <trkpt lat="48.67401" lon="2.13792">
        <ele>151.69</ele>
        <time>2021-11-07T12:07:28Z</time>
      </trkpt>
      <trkpt lat="48.67415" lon="2.13802">
        <ele>151.31</ele>
        <time>2021-11-07T12:07:42Z</time>
      </trkpt>
      <trkpt lat="48.67428" lon="2.13808">
        <ele>150.6</ele>
        <time>2021-11-07T12:07:54Z</time>
      </trkpt>
      <trkpt lat="48.6744" lon="2.13813">
        <ele>151.16</ele>
        <time>2021-11-07T12:08:04Z</time>
      </trkpt>
      <trkpt lat="48.67444" lon="2.13815">
        <ele>150.98</ele>
        <time>2021-11-07T12:08:08Z</time>
      </trkpt>
      <trkpt lat="48.67445" lon="2.13815">
        <ele>149.91</ele>
        <time>2021-11-07T12:08:10Z</time>
      </trkpt>
      <trkpt lat="48.67457" lon="2.13823">
        <ele>149.91</ele>
        <time>2021-11-07T12:08:21Z</time>
      </trkpt>
      <trkpt lat="48.67462" lon="2.13824">
        <ele>149.71</ele>
        <time>2021-11-07T12:08:25Z</time>
      </trkpt>
      <trkpt lat="48.67471" lon="2.13834">
        <ele>149.98</ele>
        <time>2021-11-07T12:08:36Z</time>
      </trkpt>
      <trkpt lat="48.67475" lon="2.13835">
        <ele>149.76</ele>
        <time>2021-11-07T12:08:40Z</time>
      </trkpt>
      <trkpt lat="48.67481" lon="2.13838">
        <ele>148.9</ele>
        <time>2021-11-07T12:08:45Z</time>
      </trkpt>
      <trkpt lat="48.67485" lon="2.13841">
        <ele>148.58</ele>
        <time>2021-11-07T12:08:51Z</time>
      </trkpt>
      <trkpt lat="48.67489" lon="2.13843">
        <ele>148.61</ele>
        <time>2021-11-07T12:08:55Z</time>
      </trkpt>
      <trkpt lat="48.67494" lon="2.13845">
        <ele>148.28</ele>
        <time>2021-11-07T12:09:00Z</time>
      </trkpt>
      <trkpt lat="48.67505" lon="2.13855">
        <ele>147.42</ele>
        <time>2021-11-07T12:09:11Z</time>
      </trkpt>
      <trkpt lat="48.67517" lon="2.13856">
        <ele>145.73</ele>
        <time>2021-11-07T12:09:21Z</time>
      </trkpt>
      <trkpt lat="48.67527" lon="2.1387">
        <ele>145.87</ele>
        <time>2021-11-07T12:09:33Z</time>
      </trkpt>
      <trkpt lat="48.67528" lon="2.13869">
        <ele>145.5</ele>
        <time>2021-11-07T12:09:47Z</time>
      </trkpt>
      <trkpt lat="48.67536" lon="2.1387">
        <ele>145.71</ele>
        <time>2021-11-07T12:10:02Z</time>
      </trkpt>
      <trkpt lat="48.67542" lon="2.13871">
        <ele>145</ele>
        <time>2021-11-07T12:10:13Z</time>
      </trkpt>
      <trkpt lat="48.67545" lon="2.13873">
        <ele>145.25</ele>
        <time>2021-11-07T12:10:17Z</time>
      </trkpt>
      <trkpt lat="48.67554" lon="2.13881">
        <ele>145.16</ele>
        <time>2021-11-07T12:10:32Z</time>
      </trkpt>
      <trkpt lat="48.67562" lon="2.13891">
        <ele>144</ele>
        <time>2021-11-07T12:10:49Z</time>
      </trkpt>
      <trkpt lat="48.67568" lon="2.13894">
        <ele>143.98</ele>
        <time>2021-11-07T12:10:55Z</time>
      </trkpt>
      <trkpt lat="48.6758" lon="2.13911">
        <ele>142.73</ele>
        <time>2021-11-07T12:11:08Z</time>
      </trkpt>
      <trkpt lat="48.67598" lon="2.13921">
        <ele>142.61</ele>
        <time>2021-11-07T12:11:26Z</time>
      </trkpt>
      <trkpt lat="48.67614" lon="2.1393">
        <ele>141.77</ele>
        <time>2021-11-07T12:11:43Z</time>
      </trkpt>
      <trkpt lat="48.67619" lon="2.13932">
        <ele>141.21</ele>
        <time>2021-11-07T12:11:51Z</time>
      </trkpt>
      <trkpt lat="48.6763" lon="2.13938">
        <ele>141.24</ele>
        <time>2021-11-07T12:12:00Z</time>
      </trkpt>
      <trkpt lat="48.67639" lon="2.13938">
        <ele>140.65</ele>
        <time>2021-11-07T12:12:17Z</time>
      </trkpt>
      <trkpt lat="48.67649" lon="2.13941">
        <ele>141.11</ele>
        <time>2021-11-07T12:12:32Z</time>
      </trkpt>
      <trkpt lat="48.6765" lon="2.13941">
        <ele>141.53</ele>
        <time>2021-11-07T12:12:35Z</time>
      </trkpt>
      <trkpt lat="48.6766" lon="2.1394">
        <ele>141.1</ele>
        <time>2021-11-07T12:12:55Z</time>
      </trkpt>
      <trkpt lat="48.6767" lon="2.1394">
        <ele>140.71</ele>
        <time>2021-11-07T12:13:12Z</time>
      </trkpt>
      <trkpt lat="48.67682" lon="2.1394">
        <ele>138.56</ele>
        <time>2021-11-07T12:13:31Z</time>
      </trkpt>
      <trkpt lat="48.67698" lon="2.1394">
        <ele>138.31</ele>
        <time>2021-11-07T12:13:49Z</time>
      </trkpt>
      <trkpt lat="48.67711" lon="2.1394">
        <ele>137.65</ele>
        <time>2021-11-07T12:14:12Z</time>
      </trkpt>
      <trkpt lat="48.67721" lon="2.13938">
        <ele>137.23</ele>
        <time>2021-11-07T12:14:49Z</time>
      </trkpt>
      <trkpt lat="48.67721" lon="2.13937">
        <ele>137.58</ele>
        <time>2021-11-07T12:15:52Z</time>
      </trkpt>
      <trkpt lat="48.67725" lon="2.13936">
        <ele>137.84</ele>
        <time>2021-11-07T12:16:29Z</time>
      </trkpt>
      <trkpt lat="48.67726" lon="2.13935">
        <ele>138.05</ele>
        <time>2021-11-07T12:16:45Z</time>
      </trkpt>
      <trkpt lat="48.67727" lon="2.13936">
        <ele>137.75</ele>
        <time>2021-11-07T12:19:44Z</time>
      </trkpt>
      <trkpt lat="48.67734" lon="2.13952">
        <ele>136.29</ele>
        <time>2021-11-07T12:19:58Z</time>
      </trkpt>
      <trkpt lat="48.67738" lon="2.13958">
        <ele>134.85</ele>
        <time>2021-11-07T12:20:05Z</time>
      </trkpt>
      <trkpt lat="48.67747" lon="2.1397">
        <ele>133.26</ele>
        <time>2021-11-07T12:20:23Z</time>
      </trkpt>
      <trkpt lat="48.67761" lon="2.13976">
        <ele>131.07</ele>
        <time>2021-11-07T12:20:38Z</time>
      </trkpt>
      <trkpt lat="48.67775" lon="2.13982">
        <ele>129.99</ele>
        <time>2021-11-07T12:20:55Z</time>
      </trkpt>
      <trkpt lat="48.67788" lon="2.1399">
        <ele>127.8</ele>
        <time>2021-11-07T12:21:14Z</time>
      </trkpt>
      <trkpt lat="48.67794" lon="2.13982">
        <ele>131.16</ele>
        <time>2021-11-07T12:21:31Z</time>
      </trkpt>
      <trkpt lat="48.67796" lon="2.13971">
        <ele>134.22</ele>
        <time>2021-11-07T12:21:47Z</time>
      </trkpt>
      <trkpt lat="48.67795" lon="2.13957">
        <ele>136.42</ele>
        <time>2021-11-07T12:22:01Z</time>
      </trkpt>
      <trkpt lat="48.67799" lon="2.13942">
        <ele>138.69</ele>
        <time>2021-11-07T12:22:16Z</time>
      </trkpt>
      <trkpt lat="48.67806" lon="2.13926">
        <ele>138.41</ele>
        <time>2021-11-07T12:22:32Z</time>
      </trkpt>
      <trkpt lat="48.67815" lon="2.13911">
        <ele>138.91</ele>
        <time>2021-11-07T12:22:48Z</time>
      </trkpt>
      <trkpt lat="48.67827" lon="2.13915">
        <ele>138.69</ele>
        <time>2021-11-07T12:23:03Z</time>
      </trkpt>
      <trkpt lat="48.6783" lon="2.13919">
        <ele>138.79</ele>
        <time>2021-11-07T12:23:19Z</time>
      </trkpt>
      <trkpt lat="48.67837" lon="2.13919">
        <ele>138.97</ele>
        <time>2021-11-07T12:23:36Z</time>
      </trkpt>
      <trkpt lat="48.67839" lon="2.13923">
        <ele>140.32</ele>
        <time>2021-11-07T12:23:54Z</time>
      </trkpt>
      <trkpt lat="48.6784" lon="2.13935">
        <ele>140.28</ele>
        <time>2021-11-07T12:24:07Z</time>
      </trkpt>
      <trkpt lat="48.67836" lon="2.13948">
        <ele>141.44</ele>
        <time>2021-11-07T12:24:20Z</time>
      </trkpt>
      <trkpt lat="48.67836" lon="2.13954">
        <ele>140.54</ele>
        <time>2021-11-07T12:24:33Z</time>
      </trkpt>
      <trkpt lat="48.67835" lon="2.13956">
        <ele>140.48</ele>
        <time>2021-11-07T12:24:50Z</time>
      </trkpt>
      <trkpt lat="48.67836" lon="2.13955">
        <ele>139.84</ele>
        <time>2021-11-07T12:25:08Z</time>
      </trkpt>
      <trkpt lat="48.67851" lon="2.13947">
        <ele>144.41</ele>
        <time>2021-11-07T12:58:04Z</time>
      </trkpt>
      <trkpt lat="48.67849" lon="2.1395">
        <ele>145.58</ele>
        <time>2021-11-07T13:01:41Z</time>
      </trkpt>
      <trkpt lat="48.6785" lon="2.13949">
        <ele>145.03</ele>
        <time>2021-11-07T13:02:10Z</time>
      </trkpt>
      <trkpt lat="48.6785" lon="2.1395">
        <ele>145.16</ele>
        <time>2021-11-07T13:02:23Z</time>
      </trkpt>
      <trkpt lat="48.67843" lon="2.13957">
        <ele>144.23</ele>
        <time>2021-11-07T13:03:16Z</time>
      </trkpt>
      <trkpt lat="48.67844" lon="2.13959">
        <ele>144.76</ele>
        <time>2021-11-07T13:03:40Z</time>
      </trkpt>
      <trkpt lat="48.67847" lon="2.1396">
        <ele>144.67</ele>
        <time>2021-11-07T13:03:55Z</time>
      </trkpt>
      <trkpt lat="48.67847" lon="2.13961">
        <ele>144.28</ele>
        <time>2021-11-07T13:04:12Z</time>
      </trkpt>
      <trkpt lat="48.67849" lon="2.13963">
        <ele>143.87</ele>
        <time>2021-11-07T13:04:29Z</time>
      </trkpt>
      <trkpt lat="48.67852" lon="2.13962">
        <ele>143.11</ele>
        <time>2021-11-07T13:04:44Z</time>
      </trkpt>
      <trkpt lat="48.67853" lon="2.13962">
        <ele>143.28</ele>
        <time>2021-11-07T13:04:59Z</time>
      </trkpt>
      <trkpt lat="48.67856" lon="2.13964">
        <ele>142.67</ele>
        <time>2021-11-07T13:05:12Z</time>
      </trkpt>
      <trkpt lat="48.67858" lon="2.13963">
        <ele>142.46</ele>
        <time>2021-11-07T13:05:30Z</time>
      </trkpt>
      <trkpt lat="48.67858" lon="2.13963">
        <ele>142.7</ele>
        <time>2021-11-07T13:05:41Z</time>
      </trkpt>
      <trkpt lat="48.67861" lon="2.13973">
        <ele>142.35</ele>
        <time>2021-11-07T13:05:54Z</time>
      </trkpt>
      <trkpt lat="48.67864" lon="2.13972">
        <ele>142.22</ele>
        <time>2021-11-07T13:06:06Z</time>
      </trkpt>
      <trkpt lat="48.67863" lon="2.13969">
        <ele>141.95</ele>
        <time>2021-11-07T13:06:18Z</time>
      </trkpt>
      <trkpt lat="48.67865" lon="2.13974">
        <ele>142.3</ele>
        <time>2021-11-07T13:06:33Z</time>
      </trkpt>
      <trkpt lat="48.6787" lon="2.1398">
        <ele>141.33</ele>
        <time>2021-11-07T13:06:51Z</time>
      </trkpt>
      <trkpt lat="48.67873" lon="2.13982">
        <ele>140.88</ele>
        <time>2021-11-07T13:07:07Z</time>
      </trkpt>
      <trkpt lat="48.67878" lon="2.13986">
        <ele>139.58</ele>
        <time>2021-11-07T13:07:23Z</time>
      </trkpt>
      <trkpt lat="48.67886" lon="2.13992">
        <ele>137.41</ele>
        <time>2021-11-07T13:07:39Z</time>
      </trkpt>
      <trkpt lat="48.67885" lon="2.1399">
        <ele>136.89</ele>
        <time>2021-11-07T13:08:00Z</time>
      </trkpt>
      <trkpt lat="48.67887" lon="2.13988">
        <ele>136.61</ele>
        <time>2021-11-07T13:08:17Z</time>
      </trkpt>
      <trkpt lat="48.67888" lon="2.13983">
        <ele>136.07</ele>
        <time>2021-11-07T13:08:41Z</time>
      </trkpt>
      <trkpt lat="48.67888" lon="2.13982">
        <ele>136.15</ele>
        <time>2021-11-07T13:09:02Z</time>
      </trkpt>
      <trkpt lat="48.6789" lon="2.13978">
        <ele>134.45</ele>
        <time>2021-11-07T13:09:21Z</time>
      </trkpt>
      <trkpt lat="48.67895" lon="2.1397">
        <ele>132.86</ele>
        <time>2021-11-07T13:09:35Z</time>
      </trkpt>
      <trkpt lat="48.67897" lon="2.13965">
        <ele>131.8</ele>
        <time>2021-11-07T13:09:48Z</time>
      </trkpt>
      <trkpt lat="48.67902" lon="2.13959">
        <ele>131.43</ele>
        <time>2021-11-07T13:10:01Z</time>
      </trkpt>
      <trkpt lat="48.67902" lon="2.13959">
        <ele>131.2</ele>
        <time>2021-11-07T13:10:18Z</time>
      </trkpt>
      <trkpt lat="48.67901" lon="2.13955">
        <ele>131.38</ele>
        <time>2021-11-07T13:10:37Z</time>
      </trkpt>
      <trkpt lat="48.67899" lon="2.1395">
        <ele>132.46</ele>
        <time>2021-11-07T13:10:53Z</time>
      </trkpt>
      <trkpt lat="48.67894" lon="2.13947">
        <ele>132.67</ele>
        <time>2021-11-07T13:11:12Z</time>
      </trkpt>
      <trkpt lat="48.67886" lon="2.13941">
        <ele>133.98</ele>
        <time>2021-11-07T13:11:26Z</time>
      </trkpt>
      <trkpt lat="48.67879" lon="2.1393">
        <ele>135.11</ele>
        <time>2021-11-07T13:11:41Z</time>
      </trkpt>
      <trkpt lat="48.67877" lon="2.13924">
        <ele>135.3</ele>
        <time>2021-11-07T13:11:56Z</time>
      </trkpt>
      <trkpt lat="48.67876" lon="2.13924">
        <ele>135.54</ele>
        <time>2021-11-07T13:11:58Z</time>
      </trkpt>
      <trkpt lat="48.67867" lon="2.13911">
        <ele>136.84</ele>
        <time>2021-11-07T13:12:13Z</time>
      </trkpt>
      <trkpt lat="48.67853" lon="2.13897">
        <ele>137.36</ele>
        <time>2021-11-07T13:12:30Z</time>
      </trkpt>
      <trkpt lat="48.67846" lon="2.1389">
        <ele>137.67</ele>
        <time>2021-11-07T13:12:44Z</time>
      </trkpt>
      <trkpt lat="48.67842" lon="2.13875">
        <ele>138.75</ele>
        <time>2021-11-07T13:12:55Z</time>
      </trkpt>
      <trkpt lat="48.6784" lon="2.1387">
        <ele>138.42</ele>
        <time>2021-11-07T13:12:58Z</time>
      </trkpt>
      <trkpt lat="48.67836" lon="2.13862">
        <ele>138.89</ele>
        <time>2021-11-07T13:13:08Z</time>
      </trkpt>
      <trkpt lat="48.67835" lon="2.13856">
        <ele>138.56</ele>
        <time>2021-11-07T13:13:13Z</time>
      </trkpt>
      <trkpt lat="48.6783" lon="2.13835">
        <ele>140.08</ele>
        <time>2021-11-07T13:13:28Z</time>
      </trkpt>
      <trkpt lat="48.67829" lon="2.13816">
        <ele>140.55</ele>
        <time>2021-11-07T13:13:41Z</time>
      </trkpt>
      <trkpt lat="48.67828" lon="2.13804">
        <ele>141.53</ele>
        <time>2021-11-07T13:13:57Z</time>
      </trkpt>
      <trkpt lat="48.67829" lon="2.13802">
        <ele>141.38</ele>
        <time>2021-11-07T13:14:02Z</time>
      </trkpt>
      <trkpt lat="48.67825" lon="2.13791">
        <ele>141.75</ele>
        <time>2021-11-07T13:14:17Z</time>
      </trkpt>
      <trkpt lat="48.6782" lon="2.13773">
        <ele>143.23</ele>
        <time>2021-11-07T13:14:32Z</time>
      </trkpt>
      <trkpt lat="48.67818" lon="2.13767">
        <ele>143.81</ele>
        <time>2021-11-07T13:14:37Z</time>
      </trkpt>
      <trkpt lat="48.67813" lon="2.13745">
        <ele>144.85</ele>
        <time>2021-11-07T13:14:55Z</time>
      </trkpt>
      <trkpt lat="48.67812" lon="2.1373">
        <ele>144.62</ele>
        <time>2021-11-07T13:15:10Z</time>
      </trkpt>
      <trkpt lat="48.67811" lon="2.13717">
        <ele>144.67</ele>
        <time>2021-11-07T13:15:24Z</time>
      </trkpt>
      <trkpt lat="48.67812" lon="2.13709">
        <ele>143.95</ele>
        <time>2021-11-07T13:15:38Z</time>
      </trkpt>
      <trkpt lat="48.6781" lon="2.13708">
        <ele>144.15</ele>
        <time>2021-11-07T13:15:45Z</time>
      </trkpt>
      <trkpt lat="48.67812" lon="2.1369">
        <ele>141.74</ele>
        <time>2021-11-07T13:16:00Z</time>
      </trkpt>
      <trkpt lat="48.67815" lon="2.13679">
        <ele>140.06</ele>
        <time>2021-11-07T13:16:09Z</time>
      </trkpt>
      <trkpt lat="48.67817" lon="2.13675">
        <ele>139.23</ele>
        <time>2021-11-07T13:16:12Z</time>
      </trkpt>
      <trkpt lat="48.67818" lon="2.13668">
        <ele>138.63</ele>
        <time>2021-11-07T13:16:16Z</time>
      </trkpt>
      <trkpt lat="48.6782" lon="2.13665">
        <ele>138.59</ele>
        <time>2021-11-07T13:16:18Z</time>
      </trkpt>
      <trkpt lat="48.6782" lon="2.13662">
        <ele>137.05</ele>
        <time>2021-11-07T13:16:20Z</time>
      </trkpt>
      <trkpt lat="48.67822" lon="2.13652">
        <ele>137.08</ele>
        <time>2021-11-07T13:16:28Z</time>
      </trkpt>
      <trkpt lat="48.67822" lon="2.13647">
        <ele>136.43</ele>
        <time>2021-11-07T13:16:31Z</time>
      </trkpt>
      <trkpt lat="48.67823" lon="2.13635">
        <ele>135.46</ele>
        <time>2021-11-07T13:16:45Z</time>
      </trkpt>
      <trkpt lat="48.67827" lon="2.13634">
        <ele>135.4</ele>
        <time>2021-11-07T13:17:00Z</time>
      </trkpt>
      <trkpt lat="48.67826" lon="2.13618">
        <ele>136.68</ele>
        <time>2021-11-07T13:17:10Z</time>
      </trkpt>
      <trkpt lat="48.67825" lon="2.13615">
        <ele>135.95</ele>
        <time>2021-11-07T13:17:12Z</time>
      </trkpt>
      <trkpt lat="48.6782" lon="2.13602">
        <ele>137.98</ele>
        <time>2021-11-07T13:17:22Z</time>
      </trkpt>
      <trkpt lat="48.67812" lon="2.13591">
        <ele>138.54</ele>
        <time>2021-11-07T13:17:33Z</time>
      </trkpt>
      <trkpt lat="48.67805" lon="2.13576">
        <ele>140.12</ele>
        <time>2021-11-07T13:17:46Z</time>
      </trkpt>
      <trkpt lat="48.67801" lon="2.13563">
        <ele>140.84</ele>
        <time>2021-11-07T13:17:58Z</time>
      </trkpt>
      <trkpt lat="48.67803" lon="2.13553">
        <ele>141.09</ele>
        <time>2021-11-07T13:18:05Z</time>
      </trkpt>
      <trkpt lat="48.67811" lon="2.13555">
        <ele>141.79</ele>
        <time>2021-11-07T13:18:16Z</time>
      </trkpt>
      <trkpt lat="48.67816" lon="2.13564">
        <ele>143.16</ele>
        <time>2021-11-07T13:18:25Z</time>
      </trkpt>
      <trkpt lat="48.67825" lon="2.13564">
        <ele>144.06</ele>
        <time>2021-11-07T13:18:38Z</time>
      </trkpt>
      <trkpt lat="48.67834" lon="2.1356">
        <ele>144.53</ele>
        <time>2021-11-07T13:18:49Z</time>
      </trkpt>
      <trkpt lat="48.67842" lon="2.13556">
        <ele>144.26</ele>
        <time>2021-11-07T13:19:03Z</time>
      </trkpt>
      <trkpt lat="48.67855" lon="2.13552">
        <ele>144.01</ele>
        <time>2021-11-07T13:19:19Z</time>
      </trkpt>
      <trkpt lat="48.67867" lon="2.13554">
        <ele>143.7</ele>
        <time>2021-11-07T13:19:34Z</time>
      </trkpt>
      <trkpt lat="48.67878" lon="2.13559">
        <ele>143.58</ele>
        <time>2021-11-07T13:19:49Z</time>
      </trkpt>
      <trkpt lat="48.6789" lon="2.13564">
        <ele>143.83</ele>
        <time>2021-11-07T13:20:07Z</time>
      </trkpt>
      <trkpt lat="48.67907" lon="2.13568">
        <ele>143.62</ele>
        <time>2021-11-07T13:20:25Z</time>
      </trkpt>
      <trkpt lat="48.67918" lon="2.13575">
        <ele>143.8</ele>
        <time>2021-11-07T13:20:40Z</time>
      </trkpt>
      <trkpt lat="48.67936" lon="2.13585">
        <ele>144.78</ele>
        <time>2021-11-07T13:20:59Z</time>
      </trkpt>
      <trkpt lat="48.67944" lon="2.1359">
        <ele>145.2</ele>
        <time>2021-11-07T13:21:09Z</time>
      </trkpt>
      <trkpt lat="48.67957" lon="2.13599">
        <ele>145.52</ele>
        <time>2021-11-07T13:21:24Z</time>
      </trkpt>
      <trkpt lat="48.6797" lon="2.13607">
        <ele>145.58</ele>
        <time>2021-11-07T13:21:37Z</time>
      </trkpt>
      <trkpt lat="48.67982" lon="2.13616">
        <ele>145.86</ele>
        <time>2021-11-07T13:21:50Z</time>
      </trkpt>
      <trkpt lat="48.67993" lon="2.13624">
        <ele>146.29</ele>
        <time>2021-11-07T13:22:06Z</time>
      </trkpt>
      <trkpt lat="48.68005" lon="2.13632">
        <ele>145.83</ele>
        <time>2021-11-07T13:22:17Z</time>
      </trkpt>
      <trkpt lat="48.68013" lon="2.13633">
        <ele>146.02</ele>
        <time>2021-11-07T13:22:23Z</time>
      </trkpt>
      <trkpt lat="48.68027" lon="2.13639">
        <ele>145.93</ele>
        <time>2021-11-07T13:22:35Z</time>
      </trkpt>
      <trkpt lat="48.68033" lon="2.13645">
        <ele>145.98</ele>
        <time>2021-11-07T13:22:41Z</time>
      </trkpt>
      <trkpt lat="48.68043" lon="2.13659">
        <ele>145.81</ele>
        <time>2021-11-07T13:22:51Z</time>
      </trkpt>
      <trkpt lat="48.68046" lon="2.13662">
        <ele>145.19</ele>
        <time>2021-11-07T13:22:54Z</time>
      </trkpt>
      <trkpt lat="48.68056" lon="2.13671">
        <ele>145.71</ele>
        <time>2021-11-07T13:23:05Z</time>
      </trkpt>
      <trkpt lat="48.68063" lon="2.13677">
        <ele>144.93</ele>
        <time>2021-11-07T13:23:16Z</time>
      </trkpt>
      <trkpt lat="48.68067" lon="2.13682">
        <ele>144.14</ele>
        <time>2021-11-07T13:23:20Z</time>
      </trkpt>
      <trkpt lat="48.6807" lon="2.13687">
        <ele>144.56</ele>
        <time>2021-11-07T13:23:24Z</time>
      </trkpt>
      <trkpt lat="48.68081" lon="2.13697">
        <ele>144.57</ele>
        <time>2021-11-07T13:23:34Z</time>
      </trkpt>
      <trkpt lat="48.68094" lon="2.13709">
        <ele>143.8</ele>
        <time>2021-11-07T13:23:48Z</time>
      </trkpt>
      <trkpt lat="48.68107" lon="2.13717">
        <ele>144.34</ele>
        <time>2021-11-07T13:24:03Z</time>
      </trkpt>
      <trkpt lat="48.68121" lon="2.13727">
        <ele>144.37</ele>
        <time>2021-11-07T13:24:19Z</time>
      </trkpt>
      <trkpt lat="48.68135" lon="2.13735">
        <ele>143.95</ele>
        <time>2021-11-07T13:24:34Z</time>
      </trkpt>
      <trkpt lat="48.68151" lon="2.13733">
        <ele>143.21</ele>
        <time>2021-11-07T13:24:45Z</time>
      </trkpt>
      <trkpt lat="48.68159" lon="2.13729">
        <ele>143.62</ele>
        <time>2021-11-07T13:24:50Z</time>
      </trkpt>
      <trkpt lat="48.68167" lon="2.13727">
        <ele>143.01</ele>
        <time>2021-11-07T13:24:55Z</time>
      </trkpt>
      <trkpt lat="48.68173" lon="2.13727">
        <ele>143.16</ele>
        <time>2021-11-07T13:24:58Z</time>
      </trkpt>
      <trkpt lat="48.6818" lon="2.13729">
        <ele>143.03</ele>
        <time>2021-11-07T13:25:04Z</time>
      </trkpt>
      <trkpt lat="48.68191" lon="2.1373">
        <ele>143.65</ele>
        <time>2021-11-07T13:25:12Z</time>
      </trkpt>
      <trkpt lat="48.68192" lon="2.1373">
        <ele>143.52</ele>
        <time>2021-11-07T13:25:13Z</time>
      </trkpt>
      <trkpt lat="48.68205" lon="2.13729">
        <ele>143.52</ele>
        <time>2021-11-07T13:25:23Z</time>
      </trkpt>
      <trkpt lat="48.68213" lon="2.13729">
        <ele>143.94</ele>
        <time>2021-11-07T13:25:28Z</time>
      </trkpt>
      <trkpt lat="48.68225" lon="2.13729">
        <ele>143.64</ele>
        <time>2021-11-07T13:25:39Z</time>
      </trkpt>
      <trkpt lat="48.68234" lon="2.13731">
        <ele>142.82</ele>
        <time>2021-11-07T13:25:46Z</time>
      </trkpt>
      <trkpt lat="48.68239" lon="2.13732">
        <ele>143.03</ele>
        <time>2021-11-07T13:25:50Z</time>
      </trkpt>
      <trkpt lat="48.68252" lon="2.13736">
        <ele>142.21</ele>
        <time>2021-11-07T13:26:00Z</time>
      </trkpt>
      <trkpt lat="48.68257" lon="2.13738">
        <ele>141.68</ele>
        <time>2021-11-07T13:26:06Z</time>
      </trkpt>
      <trkpt lat="48.68269" lon="2.13745">
        <ele>141.98</ele>
        <time>2021-11-07T13:26:18Z</time>
      </trkpt>
      <trkpt lat="48.68282" lon="2.13753">
        <ele>140.91</ele>
        <time>2021-11-07T13:26:29Z</time>
      </trkpt>
      <trkpt lat="48.68292" lon="2.13762">
        <ele>141.06</ele>
        <time>2021-11-07T13:26:40Z</time>
      </trkpt>
      <trkpt lat="48.68303" lon="2.13772">
        <ele>139.8</ele>
        <time>2021-11-07T13:26:53Z</time>
      </trkpt>
      <trkpt lat="48.68315" lon="2.13786">
        <ele>139.14</ele>
        <time>2021-11-07T13:27:07Z</time>
      </trkpt>
      <trkpt lat="48.68318" lon="2.13789">
        <ele>138.6</ele>
        <time>2021-11-07T13:27:10Z</time>
      </trkpt>
      <trkpt lat="48.68323" lon="2.13792">
        <ele>137.5</ele>
        <time>2021-11-07T13:27:16Z</time>
      </trkpt>
      <trkpt lat="48.68329" lon="2.13798">
        <ele>136.33</ele>
        <time>2021-11-07T13:27:25Z</time>
      </trkpt>
      <trkpt lat="48.68332" lon="2.13812">
        <ele>134.46</ele>
        <time>2021-11-07T13:27:39Z</time>
      </trkpt>
      <trkpt lat="48.68334" lon="2.13823">
        <ele>132.93</ele>
        <time>2021-11-07T13:27:47Z</time>
      </trkpt>
      <trkpt lat="48.68336" lon="2.1384">
        <ele>131.82</ele>
        <time>2021-11-07T13:28:00Z</time>
      </trkpt>
      <trkpt lat="48.68337" lon="2.13846">
        <ele>131.33</ele>
        <time>2021-11-07T13:28:04Z</time>
      </trkpt>
      <trkpt lat="48.68341" lon="2.13862">
        <ele>130.51</ele>
        <time>2021-11-07T13:28:16Z</time>
      </trkpt>
      <trkpt lat="48.68345" lon="2.13878">
        <ele>128.88</ele>
        <time>2021-11-07T13:28:28Z</time>
      </trkpt>
      <trkpt lat="48.68352" lon="2.139">
        <ele>126.37</ele>
        <time>2021-11-07T13:28:46Z</time>
      </trkpt>
      <trkpt lat="48.68355" lon="2.13908">
        <ele>124.14</ele>
        <time>2021-11-07T13:28:58Z</time>
      </trkpt>
      <trkpt lat="48.68357" lon="2.1393">
        <ele>122.73</ele>
        <time>2021-11-07T13:29:13Z</time>
      </trkpt>
      <trkpt lat="48.68358" lon="2.13953">
        <ele>121.15</ele>
        <time>2021-11-07T13:29:29Z</time>
      </trkpt>
      <trkpt lat="48.68362" lon="2.13971">
        <ele>121.98</ele>
        <time>2021-11-07T13:29:40Z</time>
      </trkpt>
      <trkpt lat="48.68359" lon="2.13981">
        <ele>123.03</ele>
        <time>2021-11-07T13:29:45Z</time>
      </trkpt>
      <trkpt lat="48.68367" lon="2.13982">
        <ele>122.42</ele>
        <time>2021-11-07T13:29:56Z</time>
      </trkpt>
      <trkpt lat="48.68378" lon="2.13974">
        <ele>121.48</ele>
        <time>2021-11-07T13:30:08Z</time>
      </trkpt>
      <trkpt lat="48.6838" lon="2.13971">
        <ele>121.22</ele>
        <time>2021-11-07T13:30:11Z</time>
      </trkpt>
      <trkpt lat="48.68388" lon="2.13962">
        <ele>119.53</ele>
        <time>2021-11-07T13:30:20Z</time>
      </trkpt>
      <trkpt lat="48.68398" lon="2.13952">
        <ele>117.64</ele>
        <time>2021-11-07T13:30:32Z</time>
      </trkpt>
      <trkpt lat="48.68408" lon="2.13942">
        <ele>116.47</ele>
        <time>2021-11-07T13:30:45Z</time>
      </trkpt>
      <trkpt lat="48.6841" lon="2.13939">
        <ele>116.16</ele>
        <time>2021-11-07T13:30:47Z</time>
      </trkpt>
      <trkpt lat="48.68417" lon="2.13926">
        <ele>115.48</ele>
        <time>2021-11-07T13:30:57Z</time>
      </trkpt>
      <trkpt lat="48.68422" lon="2.13918">
        <ele>115.47</ele>
        <time>2021-11-07T13:31:03Z</time>
      </trkpt>
      <trkpt lat="48.68428" lon="2.13904">
        <ele>116.4</ele>
        <time>2021-11-07T13:31:13Z</time>
      </trkpt>
      <trkpt lat="48.68431" lon="2.13899">
        <ele>116.47</ele>
        <time>2021-11-07T13:31:17Z</time>
      </trkpt>
      <trkpt lat="48.68434" lon="2.13892">
        <ele>116.56</ele>
        <time>2021-11-07T13:31:22Z</time>
      </trkpt>
      <trkpt lat="48.6844" lon="2.13879">
        <ele>116.66</ele>
        <time>2021-11-07T13:31:31Z</time>
      </trkpt>
      <trkpt lat="48.68448" lon="2.13863">
        <ele>116.47</ele>
        <time>2021-11-07T13:31:42Z</time>
      </trkpt>
      <trkpt lat="48.68457" lon="2.13849">
        <ele>114.82</ele>
        <time>2021-11-07T13:31:54Z</time>
      </trkpt>
      <trkpt lat="48.68458" lon="2.13847">
        <ele>114.3</ele>
        <time>2021-11-07T13:31:56Z</time>
      </trkpt>
      <trkpt lat="48.68461" lon="2.13841">
        <ele>113.47</ele>
        <time>2021-11-07T13:32:01Z</time>
      </trkpt>
      <trkpt lat="48.68464" lon="2.13835">
        <ele>112.61</ele>
        <time>2021-11-07T13:32:05Z</time>
      </trkpt>
      <trkpt lat="48.68467" lon="2.13831">
        <ele>111.89</ele>
        <time>2021-11-07T13:32:09Z</time>
      </trkpt>
      <trkpt lat="48.68473" lon="2.13821">
        <ele>110.48</ele>
        <time>2021-11-07T13:32:16Z</time>
      </trkpt>
      <trkpt lat="48.68481" lon="2.13807">
        <ele>108.26</ele>
        <time>2021-11-07T13:32:27Z</time>
      </trkpt>
      <trkpt lat="48.68491" lon="2.13796">
        <ele>108.4</ele>
        <time>2021-11-07T13:32:36Z</time>
      </trkpt>
      <trkpt lat="48.68498" lon="2.13788">
        <ele>108.3</ele>
        <time>2021-11-07T13:32:45Z</time>
      </trkpt>
      <trkpt lat="48.68505" lon="2.13778">
        <ele>109.14</ele>
        <time>2021-11-07T13:32:55Z</time>
      </trkpt>
      <trkpt lat="48.68511" lon="2.13773">
        <ele>108.08</ele>
        <time>2021-11-07T13:33:01Z</time>
      </trkpt>
      <trkpt lat="48.6852" lon="2.13762">
        <ele>108.44</ele>
        <time>2021-11-07T13:33:13Z</time>
      </trkpt>
      <trkpt lat="48.68534" lon="2.13747">
        <ele>107.86</ele>
        <time>2021-11-07T13:33:27Z</time>
      </trkpt>
      <trkpt lat="48.68547" lon="2.13736">
        <ele>106.7</ele>
        <time>2021-11-07T13:33:39Z</time>
      </trkpt>
      <trkpt lat="48.68557" lon="2.13724">
        <ele>104.77</ele>
        <time>2021-11-07T13:33:56Z</time>
      </trkpt>
      <trkpt lat="48.68565" lon="2.13714">
        <ele>101.42</ele>
        <time>2021-11-07T13:34:07Z</time>
      </trkpt>
      <trkpt lat="48.68574" lon="2.13697">
        <ele>101.38</ele>
        <time>2021-11-07T13:34:22Z</time>
      </trkpt>
      <trkpt lat="48.6858" lon="2.13697">
        <ele>100.52</ele>
        <time>2021-11-07T13:34:37Z</time>
      </trkpt>
      <trkpt lat="48.68586" lon="2.13694">
        <ele>101.01</ele>
        <time>2021-11-07T13:34:55Z</time>
      </trkpt>
      <trkpt lat="48.6859" lon="2.1369">
        <ele>102.07</ele>
        <time>2021-11-07T13:34:59Z</time>
      </trkpt>
      <trkpt lat="48.68592" lon="2.13671">
        <ele>101.91</ele>
        <time>2021-11-07T13:35:14Z</time>
      </trkpt>
      <trkpt lat="48.68592" lon="2.13651">
        <ele>103.12</ele>
        <time>2021-11-07T13:35:29Z</time>
      </trkpt>
      <trkpt lat="48.6859" lon="2.13634">
        <ele>103.91</ele>
        <time>2021-11-07T13:35:46Z</time>
      </trkpt>
      <trkpt lat="48.6859" lon="2.13616">
        <ele>104.24</ele>
        <time>2021-11-07T13:36:02Z</time>
      </trkpt>
      <trkpt lat="48.68595" lon="2.13595">
        <ele>106.23</ele>
        <time>2021-11-07T13:36:18Z</time>
      </trkpt>
      <trkpt lat="48.68595" lon="2.1358">
        <ele>107.62</ele>
        <time>2021-11-07T13:36:33Z</time>
      </trkpt>
      <trkpt lat="48.68598" lon="2.13564">
        <ele>109.59</ele>
        <time>2021-11-07T13:36:47Z</time>
      </trkpt>
      <trkpt lat="48.686" lon="2.13549">
        <ele>110</ele>
        <time>2021-11-07T13:37:00Z</time>
      </trkpt>
      <trkpt lat="48.68604" lon="2.13534">
        <ele>111.65</ele>
        <time>2021-11-07T13:37:15Z</time>
      </trkpt>
      <trkpt lat="48.68611" lon="2.13524">
        <ele>112.72</ele>
        <time>2021-11-07T13:37:28Z</time>
      </trkpt>
      <trkpt lat="48.6862" lon="2.13512">
        <ele>114.34</ele>
        <time>2021-11-07T13:37:44Z</time>
      </trkpt>
      <trkpt lat="48.68631" lon="2.13502">
        <ele>116.35</ele>
        <time>2021-11-07T13:37:58Z</time>
      </trkpt>
      <trkpt lat="48.68636" lon="2.13493">
        <ele>118.19</ele>
        <time>2021-11-07T13:38:13Z</time>
      </trkpt>
      <trkpt lat="48.68642" lon="2.13476">
        <ele>120.75</ele>
        <time>2021-11-07T13:38:31Z</time>
      </trkpt>
      <trkpt lat="48.68645" lon="2.13468">
        <ele>121.81</ele>
        <time>2021-11-07T13:38:41Z</time>
      </trkpt>
      <trkpt lat="48.68653" lon="2.13447">
        <ele>122.59</ele>
        <time>2021-11-07T13:38:58Z</time>
      </trkpt>
      <trkpt lat="48.68656" lon="2.13446">
        <ele>123.9</ele>
        <time>2021-11-07T13:39:00Z</time>
      </trkpt>
      <trkpt lat="48.68662" lon="2.1343">
        <ele>124.56</ele>
        <time>2021-11-07T13:39:17Z</time>
      </trkpt>
      <trkpt lat="48.6867" lon="2.13411">
        <ele>125.75</ele>
        <time>2021-11-07T13:39:33Z</time>
      </trkpt>
      <trkpt lat="48.68672" lon="2.13387">
        <ele>127</ele>
        <time>2021-11-07T13:39:51Z</time>
      </trkpt>
      <trkpt lat="48.68679" lon="2.13371">
        <ele>128.45</ele>
        <time>2021-11-07T13:40:07Z</time>
      </trkpt>
      <trkpt lat="48.68686" lon="2.13355">
        <ele>129.67</ele>
        <time>2021-11-07T13:40:23Z</time>
      </trkpt>
      <trkpt lat="48.68722" lon="2.13299">
        <ele>144.95</ele>
        <time>2021-11-07T13:41:11Z</time>
      </trkpt>
      <trkpt lat="48.68709" lon="2.13302">
        <ele>145.67</ele>
        <time>2021-11-07T13:41:20Z</time>
      </trkpt>
      <trkpt lat="48.68714" lon="2.13294">
        <ele>148.58</ele>
        <time>2021-11-07T13:41:39Z</time>
      </trkpt>
      <trkpt lat="48.68723" lon="2.13287">
        <ele>150.46</ele>
        <time>2021-11-07T13:41:58Z</time>
      </trkpt>
      <trkpt lat="48.68727" lon="2.13281">
        <ele>150.92</ele>
        <time>2021-11-07T13:42:14Z</time>
      </trkpt>
      <trkpt lat="48.68725" lon="2.13274">
        <ele>151.25</ele>
        <time>2021-11-07T13:42:30Z</time>
      </trkpt>
      <trkpt lat="48.68729" lon="2.13271">
        <ele>151.68</ele>
        <time>2021-11-07T13:42:52Z</time>
      </trkpt>
      <trkpt lat="48.68734" lon="2.1327">
        <ele>152.9</ele>
        <time>2021-11-07T13:43:09Z</time>
      </trkpt>
      <trkpt lat="48.68736" lon="2.13276">
        <ele>153.09</ele>
        <time>2021-11-07T13:43:28Z</time>
      </trkpt>
      <trkpt lat="48.68737" lon="2.13279">
        <ele>153.34</ele>
        <time>2021-11-07T13:43:50Z</time>
      </trkpt>
      <trkpt lat="48.68741" lon="2.13281">
        <ele>153.11</ele>
        <time>2021-11-07T13:44:08Z</time>
      </trkpt>
      <trkpt lat="48.68744" lon="2.13283">
        <ele>153.59</ele>
        <time>2021-11-07T13:44:31Z</time>
      </trkpt>
      <trkpt lat="48.68741" lon="2.13282">
        <ele>153.35</ele>
        <time>2021-11-07T13:44:52Z</time>
      </trkpt>
      <trkpt lat="48.68739" lon="2.13283">
        <ele>153.67</ele>
        <time>2021-11-07T13:45:14Z</time>
      </trkpt>
      <trkpt lat="48.68743" lon="2.13279">
        <ele>153.31</ele>
        <time>2021-11-07T13:45:34Z</time>
      </trkpt>
      <trkpt lat="48.68738" lon="2.13282">
        <ele>153.12</ele>
        <time>2021-11-07T13:45:58Z</time>
      </trkpt>
      <trkpt lat="48.68739" lon="2.13283">
        <ele>153.67</ele>
        <time>2021-11-07T13:46:19Z</time>
      </trkpt>
      <trkpt lat="48.68739" lon="2.13283">
        <ele>153.53</ele>
        <time>2021-11-07T13:46:40Z</time>
      </trkpt>
      <trkpt lat="48.68739" lon="2.13277">
        <ele>153.24</ele>
        <time>2021-11-07T13:46:58Z</time>
      </trkpt>
      <trkpt lat="48.6874" lon="2.1328">
        <ele>153.5</ele>
        <time>2021-11-07T13:47:17Z</time>
      </trkpt>
      <trkpt lat="48.6874" lon="2.13281">
        <ele>154.37</ele>
        <time>2021-11-07T13:47:36Z</time>
      </trkpt>
      <trkpt lat="48.68738" lon="2.13293">
        <ele>154.94</ele>
        <time>2021-11-07T13:47:51Z</time>
      </trkpt>
      <trkpt lat="48.68741" lon="2.13302">
        <ele>154.85</ele>
        <time>2021-11-07T13:48:00Z</time>
      </trkpt>
      <trkpt lat="48.68742" lon="2.13325">
        <ele>156.01</ele>
        <time>2021-11-07T13:48:17Z</time>
      </trkpt>
      <trkpt lat="48.68744" lon="2.13349">
        <ele>156.86</ele>
        <time>2021-11-07T13:48:33Z</time>
      </trkpt>
      <trkpt lat="48.68748" lon="2.13367">
        <ele>156.84</ele>
        <time>2021-11-07T13:48:49Z</time>
      </trkpt>
      <trkpt lat="48.68749" lon="2.13371">
        <ele>156.89</ele>
        <time>2021-11-07T13:48:53Z</time>
      </trkpt>
      <trkpt lat="48.68752" lon="2.13395">
        <ele>156.74</ele>
        <time>2021-11-07T13:49:06Z</time>
      </trkpt>
      <trkpt lat="48.68755" lon="2.13415">
        <ele>156.63</ele>
        <time>2021-11-07T13:49:21Z</time>
      </trkpt>
      <trkpt lat="48.68759" lon="2.13441">
        <ele>156.58</ele>
        <time>2021-11-07T13:49:39Z</time>
      </trkpt>
      <trkpt lat="48.68762" lon="2.13467">
        <ele>156.5</ele>
        <time>2021-11-07T13:49:53Z</time>
      </trkpt>
      <trkpt lat="48.68766" lon="2.1349">
        <ele>156.47</ele>
        <time>2021-11-07T13:50:07Z</time>
      </trkpt>
      <trkpt lat="48.68766" lon="2.135">
        <ele>156.17</ele>
        <time>2021-11-07T13:50:12Z</time>
      </trkpt>
      <trkpt lat="48.68772" lon="2.13527">
        <ele>155.83</ele>
        <time>2021-11-07T13:50:28Z</time>
      </trkpt>
      <trkpt lat="48.68774" lon="2.13547">
        <ele>155.62</ele>
        <time>2021-11-07T13:50:41Z</time>
      </trkpt>
      <trkpt lat="48.68777" lon="2.13568">
        <ele>155.27</ele>
        <time>2021-11-07T13:50:56Z</time>
      </trkpt>
      <trkpt lat="48.68779" lon="2.13595">
        <ele>154.93</ele>
        <time>2021-11-07T13:51:13Z</time>
      </trkpt>
      <trkpt lat="48.6878" lon="2.13618">
        <ele>154.7</ele>
        <time>2021-11-07T13:51:28Z</time>
      </trkpt>
      <trkpt lat="48.68784" lon="2.13641">
        <ele>154.32</ele>
        <time>2021-11-07T13:51:45Z</time>
      </trkpt>
      <trkpt lat="48.68786" lon="2.13675">
        <ele>154.04</ele>
        <time>2021-11-07T13:52:02Z</time>
      </trkpt>
      <trkpt lat="48.68786" lon="2.13693">
        <ele>154.55</ele>
        <time>2021-11-07T13:52:14Z</time>
      </trkpt>
      <trkpt lat="48.68788" lon="2.13702">
        <ele>154.09</ele>
        <time>2021-11-07T13:52:34Z</time>
      </trkpt>
      <trkpt lat="48.68791" lon="2.13697">
        <ele>153.39</ele>
        <time>2021-11-07T13:52:48Z</time>
      </trkpt>
      <trkpt lat="48.68789" lon="2.13697">
        <ele>153.94</ele>
        <time>2021-11-07T13:53:08Z</time>
      </trkpt>
      <trkpt lat="48.68791" lon="2.13701">
        <ele>153.63</ele>
        <time>2021-11-07T13:53:27Z</time>
      </trkpt>
      <trkpt lat="48.68793" lon="2.13702">
        <ele>153.58</ele>
        <time>2021-11-07T13:53:41Z</time>
      </trkpt>
      <trkpt lat="48.68798" lon="2.13704">
        <ele>153.36</ele>
        <time>2021-11-07T13:53:58Z</time>
      </trkpt>
      <trkpt lat="48.68804" lon="2.13701">
        <ele>153.79</ele>
        <time>2021-11-07T13:54:15Z</time>
      </trkpt>
      <trkpt lat="48.68809" lon="2.13697">
        <ele>153.71</ele>
        <time>2021-11-07T13:54:29Z</time>
      </trkpt>
      <trkpt lat="48.68816" lon="2.13696">
        <ele>153.56</ele>
        <time>2021-11-07T13:54:43Z</time>
      </trkpt>
      <trkpt lat="48.6883" lon="2.13692">
        <ele>153.9</ele>
        <time>2021-11-07T13:55:00Z</time>
      </trkpt>
      <trkpt lat="48.68835" lon="2.13689">
        <ele>153.78</ele>
        <time>2021-11-07T13:55:05Z</time>
      </trkpt>
      <trkpt lat="48.68845" lon="2.13686">
        <ele>154.06</ele>
        <time>2021-11-07T13:55:21Z</time>
      </trkpt>
      <trkpt lat="48.68848" lon="2.13683">
        <ele>153.46</ele>
        <time>2021-11-07T13:55:26Z</time>
      </trkpt>
      <trkpt lat="48.6886" lon="2.1367">
        <ele>153.34</ele>
        <time>2021-11-07T13:55:44Z</time>
      </trkpt>
      <trkpt lat="48.68891" lon="2.13651">
        <ele>153.7</ele>
        <time>2021-11-07T13:56:00Z</time>
      </trkpt>
      <trkpt lat="48.68899" lon="2.13644">
        <ele>153.38</ele>
        <time>2021-11-07T13:56:07Z</time>
      </trkpt>
      <trkpt lat="48.68914" lon="2.13635">
        <ele>153.35</ele>
        <time>2021-11-07T13:56:19Z</time>
      </trkpt>
      <trkpt lat="48.68937" lon="2.13615">
        <ele>153.58</ele>
        <time>2021-11-07T13:56:36Z</time>
      </trkpt>
      <trkpt lat="48.68944" lon="2.13609">
        <ele>152.68</ele>
        <time>2021-11-07T13:56:48Z</time>
      </trkpt>
      <trkpt lat="48.68957" lon="2.13599">
        <ele>153.07</ele>
        <time>2021-11-07T13:57:05Z</time>
      </trkpt>
      <trkpt lat="48.68975" lon="2.13588">
        <ele>152.4</ele>
        <time>2021-11-07T13:57:24Z</time>
      </trkpt>
      <trkpt lat="48.6899" lon="2.13578">
        <ele>152.23</ele>
        <time>2021-11-07T13:57:39Z</time>
      </trkpt>
      <trkpt lat="48.69008" lon="2.13571">
        <ele>151.09</ele>
        <time>2021-11-07T13:57:55Z</time>
      </trkpt>
      <trkpt lat="48.69024" lon="2.1356">
        <ele>150.18</ele>
        <time>2021-11-07T13:58:14Z</time>
      </trkpt>
      <trkpt lat="48.6904" lon="2.13551">
        <ele>150.38</ele>
        <time>2021-11-07T13:58:27Z</time>
      </trkpt>
      <trkpt lat="48.69052" lon="2.13541">
        <ele>150.5</ele>
        <time>2021-11-07T13:58:43Z</time>
      </trkpt>
      <trkpt lat="48.6907" lon="2.13528">
        <ele>150.29</ele>
        <time>2021-11-07T13:59:00Z</time>
      </trkpt>
      <trkpt lat="48.69095" lon="2.13515">
        <ele>149.79</ele>
        <time>2021-11-07T13:59:17Z</time>
      </trkpt>
      <trkpt lat="48.69121" lon="2.13504">
        <ele>149.3</ele>
        <time>2021-11-07T13:59:33Z</time>
      </trkpt>
      <trkpt lat="48.69136" lon="2.13493">
        <ele>148.92</ele>
        <time>2021-11-07T13:59:47Z</time>
      </trkpt>
      <trkpt lat="48.69157" lon="2.13483">
        <ele>148.41</ele>
        <time>2021-11-07T14:00:04Z</time>
      </trkpt>
      <trkpt lat="48.69172" lon="2.13475">
        <ele>147.46</ele>
        <time>2021-11-07T14:00:17Z</time>
      </trkpt>
      <trkpt lat="48.69191" lon="2.13463">
        <ele>147.4</ele>
        <time>2021-11-07T14:00:35Z</time>
      </trkpt>
      <trkpt lat="48.69192" lon="2.13462">
        <ele>147.22</ele>
        <time>2021-11-07T14:00:36Z</time>
      </trkpt>
      <trkpt lat="48.69193" lon="2.1346">
        <ele>146.85</ele>
        <time>2021-11-07T14:00:39Z</time>
      </trkpt>
      <trkpt lat="48.69212" lon="2.1345">
        <ele>146.89</ele>
        <time>2021-11-07T14:00:57Z</time>
      </trkpt>
      <trkpt lat="48.69217" lon="2.1345">
        <ele>145.7</ele>
        <time>2021-11-07T14:01:01Z</time>
      </trkpt>
      <trkpt lat="48.6923" lon="2.13443">
        <ele>145.67</ele>
        <time>2021-11-07T14:01:18Z</time>
      </trkpt>
      <trkpt lat="48.69238" lon="2.13439">
        <ele>145.49</ele>
        <time>2021-11-07T14:01:32Z</time>
      </trkpt>
      <trkpt lat="48.69239" lon="2.13439">
        <ele>145.08</ele>
        <time>2021-11-07T14:01:39Z</time>
      </trkpt>
      <trkpt lat="48.69243" lon="2.13439">
        <ele>145</ele>
        <time>2021-11-07T14:01:46Z</time>
      </trkpt>
      <trkpt lat="48.69251" lon="2.1344">
        <ele>144.99</ele>
        <time>2021-11-07T14:02:07Z</time>
      </trkpt>
      <trkpt lat="48.69252" lon="2.13444">
        <ele>145.25</ele>
        <time>2021-11-07T14:02:28Z</time>
      </trkpt>
      <trkpt lat="48.69254" lon="2.13446">
        <ele>144.85</ele>
        <time>2021-11-07T14:02:49Z</time>
      </trkpt>
      <trkpt lat="48.6926" lon="2.13462">
        <ele>144.32</ele>
        <time>2021-11-07T14:03:07Z</time>
      </trkpt>
      <trkpt lat="48.69271" lon="2.13473">
        <ele>142.93</ele>
        <time>2021-11-07T14:03:23Z</time>
      </trkpt>
      <trkpt lat="48.69278" lon="2.13485">
        <ele>142.22</ele>
        <time>2021-11-07T14:03:39Z</time>
      </trkpt>
      <trkpt lat="48.69286" lon="2.13499">
        <ele>141.16</ele>
        <time>2021-11-07T14:03:57Z</time>
      </trkpt>
      <trkpt lat="48.69296" lon="2.1351">
        <ele>139.98</ele>
        <time>2021-11-07T14:04:13Z</time>
      </trkpt>
      <trkpt lat="48.69304" lon="2.13526">
        <ele>138.07</ele>
        <time>2021-11-07T14:04:31Z</time>
      </trkpt>
      <trkpt lat="48.69308" lon="2.13532">
        <ele>137.04</ele>
        <time>2021-11-07T14:04:38Z</time>
      </trkpt>
      <trkpt lat="48.69318" lon="2.13543">
        <ele>133.55</ele>
        <time>2021-11-07T14:04:56Z</time>
      </trkpt>
      <trkpt lat="48.69326" lon="2.13559">
        <ele>130.2</ele>
        <time>2021-11-07T14:05:12Z</time>
      </trkpt>
      <trkpt lat="48.69336" lon="2.13575">
        <ele>126.83</ele>
        <time>2021-11-07T14:05:30Z</time>
      </trkpt>
      <trkpt lat="48.69347" lon="2.13588">
        <ele>125.06</ele>
        <time>2021-11-07T14:05:46Z</time>
      </trkpt>
      <trkpt lat="48.69355" lon="2.13602">
        <ele>121.6</ele>
        <time>2021-11-07T14:06:02Z</time>
      </trkpt>
      <trkpt lat="48.69361" lon="2.13617">
        <ele>118.32</ele>
        <time>2021-11-07T14:06:18Z</time>
      </trkpt>
      <trkpt lat="48.6937" lon="2.13626">
        <ele>116.14</ele>
        <time>2021-11-07T14:06:32Z</time>
      </trkpt>
      <trkpt lat="48.69373" lon="2.13614">
        <ele>113.12</ele>
        <time>2021-11-07T14:06:48Z</time>
      </trkpt>
      <trkpt lat="48.69378" lon="2.13595">
        <ele>110.7</ele>
        <time>2021-11-07T14:07:03Z</time>
      </trkpt>
      <trkpt lat="48.69384" lon="2.13578">
        <ele>107.66</ele>
        <time>2021-11-07T14:07:17Z</time>
      </trkpt>
      <trkpt lat="48.69392" lon="2.13558">
        <ele>105.19</ele>
        <time>2021-11-07T14:07:33Z</time>
      </trkpt>
      <trkpt lat="48.694" lon="2.13544">
        <ele>101.9</ele>
        <time>2021-11-07T14:07:50Z</time>
      </trkpt>
      <trkpt lat="48.69411" lon="2.13531">
        <ele>98.58</ele>
        <time>2021-11-07T14:08:06Z</time>
      </trkpt>
      <trkpt lat="48.69421" lon="2.1352">
        <ele>96.63</ele>
        <time>2021-11-07T14:08:21Z</time>
      </trkpt>
      <trkpt lat="48.69434" lon="2.13508">
        <ele>93.67</ele>
        <time>2021-11-07T14:08:41Z</time>
      </trkpt>
      <trkpt lat="48.69446" lon="2.13508">
        <ele>91.35</ele>
        <time>2021-11-07T14:08:58Z</time>
      </trkpt>
      <trkpt lat="48.69461" lon="2.1351">
        <ele>90.65</ele>
        <time>2021-11-07T14:09:14Z</time>
      </trkpt>
      <trkpt lat="48.69472" lon="2.13512">
        <ele>89.78</ele>
        <time>2021-11-07T14:09:27Z</time>
      </trkpt>
      <trkpt lat="48.69487" lon="2.1352">
        <ele>87.37</ele>
        <time>2021-11-07T14:09:40Z</time>
      </trkpt>
      <trkpt lat="48.69507" lon="2.13525">
        <ele>84.2</ele>
        <time>2021-11-07T14:09:57Z</time>
      </trkpt>
      <trkpt lat="48.69522" lon="2.13526">
        <ele>80.83</ele>
        <time>2021-11-07T14:10:13Z</time>
      </trkpt>
      <trkpt lat="48.69536" lon="2.13528">
        <ele>79.8</ele>
        <time>2021-11-07T14:10:23Z</time>
      </trkpt>
      <trkpt lat="48.69543" lon="2.13528">
        <ele>79.35</ele>
        <time>2021-11-07T14:10:34Z</time>
      </trkpt>
      <trkpt lat="48.69554" lon="2.1353">
        <ele>77.72</ele>
        <time>2021-11-07T14:10:46Z</time>
      </trkpt>
      <trkpt lat="48.69569" lon="2.13534">
        <ele>77.16</ele>
        <time>2021-11-07T14:11:03Z</time>
      </trkpt>
      <trkpt lat="48.69584" lon="2.13536">
        <ele>76.42</ele>
        <time>2021-11-07T14:11:17Z</time>
      </trkpt>
      <trkpt lat="48.69602" lon="2.13539">
        <ele>75.26</ele>
        <time>2021-11-07T14:11:33Z</time>
      </trkpt>
      <trkpt lat="48.6961" lon="2.13538">
        <ele>75.21</ele>
        <time>2021-11-07T14:11:52Z</time>
      </trkpt>
      <trkpt lat="48.6962" lon="2.13544">
        <ele>73.68</ele>
        <time>2021-11-07T14:12:07Z</time>
      </trkpt>
      <trkpt lat="48.6963" lon="2.13556">
        <ele>73.06</ele>
        <time>2021-11-07T14:12:22Z</time>
      </trkpt>
      <trkpt lat="48.69636" lon="2.13569">
        <ele>72.61</ele>
        <time>2021-11-07T14:12:33Z</time>
      </trkpt>
      <trkpt lat="48.69644" lon="2.13591">
        <ele>73.03</ele>
        <time>2021-11-07T14:12:51Z</time>
      </trkpt>
      <trkpt lat="48.69647" lon="2.13605">
        <ele>71.92</ele>
        <time>2021-11-07T14:13:03Z</time>
      </trkpt>
      <trkpt lat="48.69651" lon="2.13621">
        <ele>71.62</ele>
        <time>2021-11-07T14:13:15Z</time>
      </trkpt>
      <trkpt lat="48.69658" lon="2.13647">
        <ele>70.82</ele>
        <time>2021-11-07T14:13:31Z</time>
      </trkpt>
      <trkpt lat="48.69664" lon="2.13665">
        <ele>70.02</ele>
        <time>2021-11-07T14:13:45Z</time>
      </trkpt>
      <trkpt lat="48.69675" lon="2.13672">
        <ele>68.57</ele>
        <time>2021-11-07T14:13:59Z</time>
      </trkpt>
      <trkpt lat="48.69684" lon="2.13674">
        <ele>67.4</ele>
        <time>2021-11-07T14:14:08Z</time>
      </trkpt>
      <trkpt lat="48.69698" lon="2.13678">
        <ele>66.59</ele>
        <time>2021-11-07T14:14:23Z</time>
      </trkpt>
      <trkpt lat="48.6971" lon="2.1368">
        <ele>65.29</ele>
        <time>2021-11-07T14:14:35Z</time>
      </trkpt>
      <trkpt lat="48.69724" lon="2.13683">
        <ele>64.16</ele>
        <time>2021-11-07T14:14:49Z</time>
      </trkpt>
      <trkpt lat="48.69746" lon="2.13683">
        <ele>63.41</ele>
        <time>2021-11-07T14:15:07Z</time>
      </trkpt>
      <trkpt lat="48.69753" lon="2.13689">
        <ele>63.07</ele>
        <time>2021-11-07T14:15:17Z</time>
      </trkpt>
      <trkpt lat="48.6976" lon="2.13687">
        <ele>61.93</ele>
        <time>2021-11-07T14:15:33Z</time>
      </trkpt>
      <trkpt lat="48.69766" lon="2.13687">
        <ele>61.46</ele>
        <time>2021-11-07T14:15:48Z</time>
      </trkpt>
      <trkpt lat="48.69768" lon="2.13695">
        <ele>58.42</ele>
        <time>2021-11-07T14:16:00Z</time>
      </trkpt>
      <trkpt lat="48.6977" lon="2.13705">
        <ele>56.85</ele>
        <time>2021-11-07T14:16:18Z</time>
      </trkpt>
      <trkpt lat="48.69775" lon="2.13707">
        <ele>55.84</ele>
        <time>2021-11-07T14:16:36Z</time>
      </trkpt>
      <trkpt lat="48.69785" lon="2.13709">
        <ele>56.58</ele>
        <time>2021-11-07T14:16:49Z</time>
      </trkpt>
      <trkpt lat="48.69802" lon="2.13711">
        <ele>55.69</ele>
        <time>2021-11-07T14:17:05Z</time>
      </trkpt>
      <trkpt lat="48.69808" lon="2.13723">
        <ele>56.12</ele>
        <time>2021-11-07T14:17:18Z</time>
      </trkpt>
      <trkpt lat="48.6981" lon="2.1373">
        <ele>56.12</ele>
        <time>2021-11-07T14:17:32Z</time>
      </trkpt>
      <trkpt lat="48.69811" lon="2.13741">
        <ele>55.03</ele>
        <time>2021-11-07T14:17:46Z</time>
      </trkpt>
      <trkpt lat="48.69812" lon="2.13745">
        <ele>54.69</ele>
        <time>2021-11-07T14:17:59Z</time>
      </trkpt>
      <trkpt lat="48.69814" lon="2.13744">
        <ele>54.55</ele>
        <time>2021-11-07T14:18:01Z</time>
      </trkpt>
      <trkpt lat="48.69814" lon="2.13737">
        <ele>52.58</ele>
        <time>2021-11-07T14:18:17Z</time>
      </trkpt>
      <trkpt lat="48.6984" lon="2.13715">
        <ele>54.98</ele>
        <time>2021-11-07T14:18:52Z</time>
      </trkpt>
      <trkpt lat="48.69837" lon="2.13697">
        <ele>56.37</ele>
        <time>2021-11-07T14:19:05Z</time>
      </trkpt>
      <trkpt lat="48.69833" lon="2.13691">
        <ele>56.89</ele>
        <time>2021-11-07T14:19:20Z</time>
      </trkpt>
      <trkpt lat="48.69832" lon="2.13689">
        <ele>56.33</ele>
        <time>2021-11-07T14:19:35Z</time>
      </trkpt>
      <trkpt lat="48.69835" lon="2.13685">
        <ele>57.01</ele>
        <time>2021-11-07T14:19:52Z</time>
      </trkpt>
      <trkpt lat="48.69833" lon="2.13688">
        <ele>57.04</ele>
        <time>2021-11-07T14:19:58Z</time>
      </trkpt>
      <trkpt lat="48.69833" lon="2.13689">
        <ele>56.94</ele>
        <time>2021-11-07T14:20:20Z</time>
      </trkpt>
      <trkpt lat="48.69834" lon="2.13687">
        <ele>56.73</ele>
        <time>2021-11-07T14:20:36Z</time>
      </trkpt>
      <trkpt lat="48.69833" lon="2.13686">
        <ele>56.95</ele>
        <time>2021-11-07T14:21:01Z</time>
      </trkpt>
      <trkpt lat="48.69831" lon="2.13687">
        <ele>56.36</ele>
        <time>2021-11-07T14:21:24Z</time>
      </trkpt>
      <trkpt lat="48.6983" lon="2.1369">
        <ele>56.56</ele>
        <time>2021-11-07T14:21:44Z</time>
      </trkpt>
      <trkpt lat="48.69832" lon="2.1369">
        <ele>56.61</ele>
        <time>2021-11-07T14:22:05Z</time>
      </trkpt>
      <trkpt lat="48.69835" lon="2.13688">
        <ele>55.65</ele>
        <time>2021-11-07T14:22:23Z</time>
      </trkpt>
      <trkpt lat="48.69845" lon="2.13679">
        <ele>54.79</ele>
        <time>2021-11-07T14:22:40Z</time>
      </trkpt>
      <trkpt lat="48.69853" lon="2.13666">
        <ele>54.56</ele>
        <time>2021-11-07T14:22:53Z</time>
      </trkpt>
      <trkpt lat="48.69866" lon="2.13658">
        <ele>53.49</ele>
        <time>2021-11-07T14:23:11Z</time>
      </trkpt>
      <trkpt lat="48.69881" lon="2.13653">
        <ele>52.7</ele>
        <time>2021-11-07T14:23:27Z</time>
      </trkpt>
      <trkpt lat="48.69897" lon="2.13652">
        <ele>51.38</ele>
        <time>2021-11-07T14:23:42Z</time>
      </trkpt>
      <trkpt lat="48.69905" lon="2.13649">
        <ele>50.66</ele>
        <time>2021-11-07T14:23:50Z</time>
      </trkpt>
      <trkpt lat="48.69911" lon="2.1365">
        <ele>50.43</ele>
        <time>2021-11-07T14:23:54Z</time>
      </trkpt>
      <trkpt lat="48.69922" lon="2.1366">
        <ele>49.17</ele>
        <time>2021-11-07T14:24:07Z</time>
      </trkpt>
      <trkpt lat="48.69932" lon="2.13658">
        <ele>48.75</ele>
        <time>2021-11-07T14:24:17Z</time>
      </trkpt>
      <trkpt lat="48.69943" lon="2.13647">
        <ele>48.25</ele>
        <time>2021-11-07T14:24:31Z</time>
      </trkpt>
      <trkpt lat="48.69951" lon="2.13649">
        <ele>48.43</ele>
        <time>2021-11-07T14:24:44Z</time>
      </trkpt>
      <trkpt lat="48.69961" lon="2.13656">
        <ele>48.5</ele>
        <time>2021-11-07T14:24:58Z</time>
      </trkpt>
      <trkpt lat="48.69968" lon="2.13658">
        <ele>48.14</ele>
        <time>2021-11-07T14:25:14Z</time>
      </trkpt>
      <trkpt lat="48.69976" lon="2.13666">
        <ele>48.19</ele>
        <time>2021-11-07T14:25:30Z</time>
      </trkpt>
      <trkpt lat="48.69982" lon="2.13669">
        <ele>47.57</ele>
        <time>2021-11-07T14:25:46Z</time>
      </trkpt>
      <trkpt lat="48.6999" lon="2.13683">
        <ele>47.12</ele>
        <time>2021-11-07T14:26:02Z</time>
      </trkpt>
      <trkpt lat="48.69998" lon="2.13697">
        <ele>46.89</ele>
        <time>2021-11-07T14:26:17Z</time>
      </trkpt>
      <trkpt lat="48.7001" lon="2.13707">
        <ele>46.86</ele>
        <time>2021-11-07T14:26:28Z</time>
      </trkpt>
      <trkpt lat="48.70014" lon="2.13709">
        <ele>46.77</ele>
        <time>2021-11-07T14:26:31Z</time>
      </trkpt>
      <trkpt lat="48.70023" lon="2.13715">
        <ele>46.3</ele>
        <time>2021-11-07T14:26:40Z</time>
      </trkpt>
      <trkpt lat="48.70032" lon="2.13729">
        <ele>46.24</ele>
        <time>2021-11-07T14:26:53Z</time>
      </trkpt>
      <trkpt lat="48.70045" lon="2.13739">
        <ele>46.71</ele>
        <time>2021-11-07T14:27:07Z</time>
      </trkpt>
      <trkpt lat="48.70058" lon="2.13739">
        <ele>46.5</ele>
        <time>2021-11-07T14:27:18Z</time>
      </trkpt>
      <trkpt lat="48.70068" lon="2.13741">
        <ele>46.55</ele>
        <time>2021-11-07T14:27:25Z</time>
      </trkpt>
      <trkpt lat="48.70083" lon="2.13741">
        <ele>46.31</ele>
        <time>2021-11-07T14:27:34Z</time>
      </trkpt>
      <trkpt lat="48.70087" lon="2.13718">
        <ele>46.22</ele>
        <time>2021-11-07T14:27:52Z</time>
      </trkpt>
      <trkpt lat="48.7008" lon="2.13685">
        <ele>46.35</ele>
        <time>2021-11-07T14:28:12Z</time>
      </trkpt>
      <trkpt lat="48.70068" lon="2.1367">
        <ele>45.16</ele>
        <time>2021-11-07T14:28:28Z</time>
      </trkpt>
      <trkpt lat="48.70062" lon="2.13647">
        <ele>45.74</ele>
        <time>2021-11-07T14:28:38Z</time>
      </trkpt>
      <trkpt lat="48.70056" lon="2.1364">
        <ele>45.16</ele>
        <time>2021-11-07T14:28:48Z</time>
      </trkpt>
      <trkpt lat="48.70048" lon="2.13633">
        <ele>45.66</ele>
        <time>2021-11-07T14:28:56Z</time>
      </trkpt>
      <trkpt lat="48.70037" lon="2.13619">
        <ele>44.5</ele>
        <time>2021-11-07T14:29:11Z</time>
      </trkpt>
      <trkpt lat="48.70029" lon="2.13612">
        <ele>45.55</ele>
        <time>2021-11-07T14:29:29Z</time>
      </trkpt>
      <trkpt lat="48.70021" lon="2.13596">
        <ele>45.43</ele>
        <time>2021-11-07T14:29:36Z</time>
      </trkpt>
      <trkpt lat="48.70017" lon="2.13596">
        <ele>45.85</ele>
        <time>2021-11-07T14:29:40Z</time>
      </trkpt>
      <trkpt lat="48.70006" lon="2.13601">
        <ele>46.62</ele>
        <time>2021-11-07T14:29:57Z</time>
      </trkpt>
      <trkpt lat="48.70001" lon="2.13602">
        <ele>46.29</ele>
        <time>2021-11-07T14:30:13Z</time>
      </trkpt>
      <trkpt lat="48.69994" lon="2.13595">
        <ele>46.45</ele>
        <time>2021-11-07T14:30:32Z</time>
      </trkpt>
      <trkpt lat="48.69985" lon="2.13582">
        <ele>47.22</ele>
        <time>2021-11-07T14:30:48Z</time>
      </trkpt>
      <trkpt lat="48.6997" lon="2.13568">
        <ele>46.67</ele>
        <time>2021-11-07T14:31:04Z</time>
      </trkpt>
      <trkpt lat="48.69963" lon="2.13562">
        <ele>46.73</ele>
        <time>2021-11-07T14:31:10Z</time>
      </trkpt>
      <trkpt lat="48.69959" lon="2.13557">
        <ele>46.6</ele>
        <time>2021-11-07T14:31:14Z</time>
      </trkpt>
      <trkpt lat="48.69949" lon="2.13548">
        <ele>46.91</ele>
        <time>2021-11-07T14:31:24Z</time>
      </trkpt>
      <trkpt lat="48.69943" lon="2.13529">
        <ele>46.62</ele>
        <time>2021-11-07T14:31:34Z</time>
      </trkpt>
      <trkpt lat="48.69943" lon="2.13513">
        <ele>47.01</ele>
        <time>2021-11-07T14:31:45Z</time>
      </trkpt>
      <trkpt lat="48.69938" lon="2.13493">
        <ele>47.58</ele>
        <time>2021-11-07T14:32:00Z</time>
      </trkpt>
      <trkpt lat="48.69933" lon="2.13486">
        <ele>47.45</ele>
        <time>2021-11-07T14:32:06Z</time>
      </trkpt>
      <trkpt lat="48.6992" lon="2.13458">
        <ele>47.71</ele>
        <time>2021-11-07T14:32:24Z</time>
      </trkpt>
      <trkpt lat="48.69908" lon="2.13431">
        <ele>47.69</ele>
        <time>2021-11-07T14:32:41Z</time>
      </trkpt>
      <trkpt lat="48.699" lon="2.13407">
        <ele>47.51</ele>
        <time>2021-11-07T14:32:56Z</time>
      </trkpt>
      <trkpt lat="48.69887" lon="2.13389">
        <ele>47.3</ele>
        <time>2021-11-07T14:33:10Z</time>
      </trkpt>
      <trkpt lat="48.69874" lon="2.13373">
        <ele>47.35</ele>
        <time>2021-11-07T14:33:24Z</time>
      </trkpt>
      <trkpt lat="48.69859" lon="2.13352">
        <ele>47.39</ele>
        <time>2021-11-07T14:33:40Z</time>
      </trkpt>
      <trkpt lat="48.69859" lon="2.13348">
        <ele>47.58</ele>
        <time>2021-11-07T14:33:42Z</time>
      </trkpt>
      <trkpt lat="48.69858" lon="2.13326">
        <ele>47.21</ele>
        <time>2021-11-07T14:33:53Z</time>
      </trkpt>
      <trkpt lat="48.69858" lon="2.13314">
        <ele>47.7</ele>
        <time>2021-11-07T14:33:58Z</time>
      </trkpt>
      <trkpt lat="48.69857" lon="2.13299">
        <ele>47.35</ele>
        <time>2021-11-07T14:34:07Z</time>
      </trkpt>
      <trkpt lat="48.69856" lon="2.13284">
        <ele>47.82</ele>
        <time>2021-11-07T14:34:16Z</time>
      </trkpt>
      <trkpt lat="48.69855" lon="2.13259">
        <ele>48.77</ele>
        <time>2021-11-07T14:34:31Z</time>
      </trkpt>
      <trkpt lat="48.69851" lon="2.13234">
        <ele>48.52</ele>
        <time>2021-11-07T14:34:48Z</time>
      </trkpt>
      <trkpt lat="48.69845" lon="2.13211">
        <ele>48.97</ele>
        <time>2021-11-07T14:35:02Z</time>
      </trkpt>
      <trkpt lat="48.69843" lon="2.13208">
        <ele>49.01</ele>
        <time>2021-11-07T14:35:04Z</time>
      </trkpt>
      <trkpt lat="48.69838" lon="2.13187">
        <ele>49.43</ele>
        <time>2021-11-07T14:35:18Z</time>
      </trkpt>
      <trkpt lat="48.69832" lon="2.13159">
        <ele>49.06</ele>
        <time>2021-11-07T14:35:35Z</time>
      </trkpt>
      <trkpt lat="48.6983" lon="2.13146">
        <ele>48.66</ele>
        <time>2021-11-07T14:35:44Z</time>
      </trkpt>
      <trkpt lat="48.69826" lon="2.1312">
        <ele>49.42</ele>
        <time>2021-11-07T14:35:55Z</time>
      </trkpt>
      <trkpt lat="48.69823" lon="2.131">
        <ele>49.37</ele>
        <time>2021-11-07T14:36:11Z</time>
      </trkpt>
      <trkpt lat="48.69823" lon="2.1308">
        <ele>49.58</ele>
        <time>2021-11-07T14:36:23Z</time>
      </trkpt>
      <trkpt lat="48.69823" lon="2.13057">
        <ele>48.83</ele>
        <time>2021-11-07T14:36:35Z</time>
      </trkpt>
      <trkpt lat="48.69825" lon="2.13043">
        <ele>49.61</ele>
        <time>2021-11-07T14:36:46Z</time>
      </trkpt>
      <trkpt lat="48.69826" lon="2.13036">
        <ele>49.67</ele>
        <time>2021-11-07T14:37:04Z</time>
      </trkpt>
      <trkpt lat="48.69829" lon="2.13031">
        <ele>50.07</ele>
        <time>2021-11-07T14:37:09Z</time>
      </trkpt>
      <trkpt lat="48.69833" lon="2.13024">
        <ele>48.91</ele>
        <time>2021-11-07T14:37:22Z</time>
      </trkpt>
      <trkpt lat="48.69839" lon="2.13017">
        <ele>49.51</ele>
        <time>2021-11-07T14:37:42Z</time>
      </trkpt>
      <trkpt lat="48.69839" lon="2.13014">
        <ele>49.26</ele>
        <time>2021-11-07T14:37:44Z</time>
      </trkpt>
      <trkpt lat="48.69844" lon="2.12997">
        <ele>49.93</ele>
        <time>2021-11-07T14:37:54Z</time>
      </trkpt>
      <trkpt lat="48.69845" lon="2.12993">
        <ele>49.95</ele>
        <time>2021-11-07T14:37:57Z</time>
      </trkpt>
      <trkpt lat="48.69849" lon="2.12978">
        <ele>50.35</ele>
        <time>2021-11-07T14:38:09Z</time>
      </trkpt>
      <trkpt lat="48.69854" lon="2.12969">
        <ele>49.79</ele>
        <time>2021-11-07T14:38:25Z</time>
      </trkpt>
      <trkpt lat="48.6986" lon="2.12961">
        <ele>51.03</ele>
        <time>2021-11-07T14:38:35Z</time>
      </trkpt>
      <trkpt lat="48.69861" lon="2.12962">
        <ele>50.69</ele>
        <time>2021-11-07T14:38:48Z</time>
      </trkpt>
      <trkpt lat="48.69864" lon="2.12966">
        <ele>50.01</ele>
        <time>2021-11-07T14:38:52Z</time>
      </trkpt>
      <trkpt lat="48.69876" lon="2.12979">
        <ele>50.76</ele>
        <time>2021-11-07T14:39:06Z</time>
      </trkpt>
      <trkpt lat="48.69883" lon="2.12988">
        <ele>50.89</ele>
        <time>2021-11-07T14:39:17Z</time>
      </trkpt>
      <trkpt lat="48.69896" lon="2.12993">
        <ele>50.83</ele>
        <time>2021-11-07T14:39:31Z</time>
      </trkpt>
      <trkpt lat="48.69909" lon="2.13004">
        <ele>50.2</ele>
        <time>2021-11-07T14:39:45Z</time>
      </trkpt>
      <trkpt lat="48.69918" lon="2.13019">
        <ele>49.6</ele>
        <time>2021-11-07T14:39:58Z</time>
      </trkpt>
      <trkpt lat="48.69922" lon="2.13022">
        <ele>50.05</ele>
        <time>2021-11-07T14:40:03Z</time>
      </trkpt>
      <trkpt lat="48.69937" lon="2.13007">
        <ele>50.39</ele>
        <time>2021-11-07T14:40:16Z</time>
      </trkpt>
      <trkpt lat="48.69943" lon="2.12988">
        <ele>51.19</ele>
        <time>2021-11-07T14:40:28Z</time>
      </trkpt>
      <trkpt lat="48.69946" lon="2.12968">
        <ele>51.16</ele>
        <time>2021-11-07T14:40:39Z</time>
      </trkpt>
      <trkpt lat="48.69945" lon="2.12964">
        <ele>50.81</ele>
        <time>2021-11-07T14:40:41Z</time>
      </trkpt>
      <trkpt lat="48.69941" lon="2.12948">
        <ele>51.41</ele>
        <time>2021-11-07T14:40:52Z</time>
      </trkpt>
      <trkpt lat="48.69936" lon="2.12929">
        <ele>51.18</ele>
        <time>2021-11-07T14:41:04Z</time>
      </trkpt>
      <trkpt lat="48.69936" lon="2.12925">
        <ele>51.2</ele>
        <time>2021-11-07T14:41:07Z</time>
      </trkpt>
      <trkpt lat="48.69935" lon="2.12908">
        <ele>50.76</ele>
        <time>2021-11-07T14:41:19Z</time>
      </trkpt>
      <trkpt lat="48.69934" lon="2.12901">
        <ele>50.49</ele>
        <time>2021-11-07T14:41:30Z</time>
      </trkpt>
      <trkpt lat="48.69933" lon="2.12899">
        <ele>51.19</ele>
        <time>2021-11-07T14:41:49Z</time>
      </trkpt>
      <trkpt lat="48.69936" lon="2.12895">
        <ele>51.41</ele>
        <time>2021-11-07T14:42:02Z</time>
      </trkpt>
      <trkpt lat="48.69938" lon="2.12889">
        <ele>51</ele>
        <time>2021-11-07T14:42:06Z</time>
      </trkpt>
      <trkpt lat="48.69945" lon="2.12868">
        <ele>50.09</ele>
        <time>2021-11-07T14:42:19Z</time>
      </trkpt>
      <trkpt lat="48.6995" lon="2.12851">
        <ele>50.75</ele>
        <time>2021-11-07T14:42:29Z</time>
      </trkpt>
      <trkpt lat="48.69954" lon="2.12836">
        <ele>50.89</ele>
        <time>2021-11-07T14:42:39Z</time>
      </trkpt>
      <trkpt lat="48.69961" lon="2.12821">
        <ele>49.97</ele>
        <time>2021-11-07T14:42:53Z</time>
      </trkpt>
      <trkpt lat="48.69966" lon="2.12803">
        <ele>50.55</ele>
        <time>2021-11-07T14:43:04Z</time>
      </trkpt>
      <trkpt lat="48.69968" lon="2.12791">
        <ele>50.48</ele>
        <time>2021-11-07T14:43:10Z</time>
      </trkpt>
      <trkpt lat="48.69972" lon="2.12773">
        <ele>50.7</ele>
        <time>2021-11-07T14:43:19Z</time>
      </trkpt>
      <trkpt lat="48.69973" lon="2.1277">
        <ele>50.48</ele>
        <time>2021-11-07T14:43:21Z</time>
      </trkpt>
      <trkpt lat="48.69974" lon="2.12762">
        <ele>50.72</ele>
        <time>2021-11-07T14:43:26Z</time>
      </trkpt>
      <trkpt lat="48.69983" lon="2.12741">
        <ele>50.4</ele>
        <time>2021-11-07T14:43:39Z</time>
      </trkpt>
      <trkpt lat="48.69994" lon="2.12724">
        <ele>50.55</ele>
        <time>2021-11-07T14:43:52Z</time>
      </trkpt>
      <trkpt lat="48.69998" lon="2.12714">
        <ele>50.52</ele>
        <time>2021-11-07T14:43:59Z</time>
      </trkpt>
      <trkpt lat="48.70003" lon="2.127">
        <ele>50.9</ele>
        <time>2021-11-07T14:44:11Z</time>
      </trkpt>
      <trkpt lat="48.70013" lon="2.12681">
        <ele>51.25</ele>
        <time>2021-11-07T14:44:25Z</time>
      </trkpt>
      <trkpt lat="48.70026" lon="2.12663">
        <ele>50.54</ele>
        <time>2021-11-07T14:44:40Z</time>
      </trkpt>
      <trkpt lat="48.70037" lon="2.12647">
        <ele>51.41</ele>
        <time>2021-11-07T14:44:57Z</time>
      </trkpt>
      <trkpt lat="48.70052" lon="2.12636">
        <ele>51.69</ele>
        <time>2021-11-07T14:45:08Z</time>
      </trkpt>
      <trkpt lat="48.70066" lon="2.12617">
        <ele>51.6</ele>
        <time>2021-11-07T14:45:27Z</time>
      </trkpt>
      <trkpt lat="48.70072" lon="2.12602">
        <ele>50.78</ele>
        <time>2021-11-07T14:45:42Z</time>
      </trkpt>
      <trkpt lat="48.7009" lon="2.12581">
        <ele>50.68</ele>
        <time>2021-11-07T14:45:56Z</time>
      </trkpt>
      <trkpt lat="48.70099" lon="2.1257">
        <ele>50.96</ele>
        <time>2021-11-07T14:46:05Z</time>
      </trkpt>
      <trkpt lat="48.70101" lon="2.12568">
        <ele>50.76</ele>
        <time>2021-11-07T14:46:06Z</time>
      </trkpt>
      <trkpt lat="48.70113" lon="2.12553">
        <ele>51.99</ele>
        <time>2021-11-07T14:46:20Z</time>
      </trkpt>
      <trkpt lat="48.7012" lon="2.12527">
        <ele>51.52</ele>
        <time>2021-11-07T14:46:40Z</time>
      </trkpt>
      <trkpt lat="48.70123" lon="2.12512">
        <ele>49.54</ele>
        <time>2021-11-07T14:46:53Z</time>
      </trkpt>
      <trkpt lat="48.70127" lon="2.12489">
        <ele>50.04</ele>
        <time>2021-11-07T14:47:06Z</time>
      </trkpt>
      <trkpt lat="48.70122" lon="2.12473">
        <ele>51.18</ele>
        <time>2021-11-07T14:47:19Z</time>
      </trkpt>
      <trkpt lat="48.70108" lon="2.12469">
        <ele>51.04</ele>
        <time>2021-11-07T14:47:34Z</time>
      </trkpt>
      <trkpt lat="48.70105" lon="2.12467">
        <ele>50.67</ele>
        <time>2021-11-07T14:47:39Z</time>
      </trkpt>
      <trkpt lat="48.70091" lon="2.12463">
        <ele>51.14</ele>
        <time>2021-11-07T14:47:51Z</time>
      </trkpt>
      <trkpt lat="48.7008" lon="2.12455">
        <ele>51.18</ele>
        <time>2021-11-07T14:48:01Z</time>
      </trkpt>
      <trkpt lat="48.70073" lon="2.12452">
        <ele>50.8</ele>
        <time>2021-11-07T14:48:09Z</time>
      </trkpt>
      <trkpt lat="48.70056" lon="2.12443">
        <ele>50.38</ele>
        <time>2021-11-07T14:48:25Z</time>
      </trkpt>
      <trkpt lat="48.70044" lon="2.12437">
        <ele>51.17</ele>
        <time>2021-11-07T14:48:36Z</time>
      </trkpt>
      <trkpt lat="48.70043" lon="2.12436">
        <ele>51.02</ele>
        <time>2021-11-07T14:48:37Z</time>
      </trkpt>
      <trkpt lat="48.70031" lon="2.12424">
        <ele>50.45</ele>
        <time>2021-11-07T14:48:49Z</time>
      </trkpt>
      <trkpt lat="48.70031" lon="2.1242">
        <ele>50.76</ele>
        <time>2021-11-07T14:48:52Z</time>
      </trkpt>
      <trkpt lat="48.70033" lon="2.1241">
        <ele>50.3</ele>
        <time>2021-11-07T14:48:59Z</time>
      </trkpt>
      <trkpt lat="48.70034" lon="2.124">
        <ele>50.65</ele>
        <time>2021-11-07T14:49:04Z</time>
      </trkpt>
      <trkpt lat="48.70034" lon="2.12391">
        <ele>50.73</ele>
        <time>2021-11-07T14:49:08Z</time>
      </trkpt>
      <trkpt lat="48.70039" lon="2.12376">
        <ele>50.96</ele>
        <time>2021-11-07T14:49:20Z</time>
      </trkpt>
      <trkpt lat="48.7004" lon="2.12369">
        <ele>50.87</ele>
        <time>2021-11-07T14:49:24Z</time>
      </trkpt>
      <trkpt lat="48.70047" lon="2.12351">
        <ele>50.93</ele>
        <time>2021-11-07T14:49:34Z</time>
      </trkpt>
      <trkpt lat="48.70055" lon="2.12333">
        <ele>50.93</ele>
        <time>2021-11-07T14:49:46Z</time>
      </trkpt>
      <trkpt lat="48.70055" lon="2.12332">
        <ele>51.01</ele>
        <time>2021-11-07T14:49:47Z</time>
      </trkpt>
      <trkpt lat="48.70058" lon="2.12327">
        <ele>50.91</ele>
        <time>2021-11-07T14:49:50Z</time>
      </trkpt>
      <trkpt lat="48.70059" lon="2.12324">
        <ele>50.67</ele>
        <time>2021-11-07T14:49:52Z</time>
      </trkpt>
      <trkpt lat="48.70063" lon="2.12317">
        <ele>50.6</ele>
        <time>2021-11-07T14:49:57Z</time>
      </trkpt>
      <trkpt lat="48.70068" lon="2.123">
        <ele>50.68</ele>
        <time>2021-11-07T14:50:08Z</time>
      </trkpt>
      <trkpt lat="48.70075" lon="2.12283">
        <ele>50.77</ele>
        <time>2021-11-07T14:50:18Z</time>
      </trkpt>
      <trkpt lat="48.70081" lon="2.12272">
        <ele>50.11</ele>
        <time>2021-11-07T14:50:27Z</time>
      </trkpt>
      <trkpt lat="48.7009" lon="2.12248">
        <ele>50.4</ele>
        <time>2021-11-07T14:50:40Z</time>
      </trkpt>
      <trkpt lat="48.70096" lon="2.12221">
        <ele>50.06</ele>
        <time>2021-11-07T14:50:55Z</time>
      </trkpt>
      <trkpt lat="48.70101" lon="2.12199">
        <ele>50.15</ele>
        <time>2021-11-07T14:51:08Z</time>
      </trkpt>
      <trkpt lat="48.70102" lon="2.12198">
        <ele>49.92</ele>
        <time>2021-11-07T14:51:09Z</time>
      </trkpt>
      <trkpt lat="48.70101" lon="2.1219">
        <ele>50.12</ele>
        <time>2021-11-07T14:51:13Z</time>
      </trkpt>
      <trkpt lat="48.70106" lon="2.12169">
        <ele>50.14</ele>
        <time>2021-11-07T14:51:24Z</time>
      </trkpt>
      <trkpt lat="48.70109" lon="2.12165">
        <ele>50.37</ele>
        <time>2021-11-07T14:51:26Z</time>
      </trkpt>
      <trkpt lat="48.70112" lon="2.12138">
        <ele>50.62</ele>
        <time>2021-11-07T14:51:39Z</time>
      </trkpt>
      <trkpt lat="48.70113" lon="2.12133">
        <ele>50.16</ele>
        <time>2021-11-07T14:51:42Z</time>
      </trkpt>
      <trkpt lat="48.70115" lon="2.12117">
        <ele>50.19</ele>
        <time>2021-11-07T14:51:52Z</time>
      </trkpt>
      <trkpt lat="48.70115" lon="2.12096">
        <ele>50.31</ele>
        <time>2021-11-07T14:52:05Z</time>
      </trkpt>
      <trkpt lat="48.7011" lon="2.12077">
        <ele>50.49</ele>
        <time>2021-11-07T14:52:18Z</time>
      </trkpt>
      <trkpt lat="48.70106" lon="2.1206">
        <ele>50.4</ele>
        <time>2021-11-07T14:52:28Z</time>
      </trkpt>
      <trkpt lat="48.701" lon="2.12035">
        <ele>50.65</ele>
        <time>2021-11-07T14:52:42Z</time>
      </trkpt>
      <trkpt lat="48.701" lon="2.12024">
        <ele>50.8</ele>
        <time>2021-11-07T14:52:57Z</time>
      </trkpt>
      <trkpt lat="48.70099" lon="2.11999">
        <ele>50.44</ele>
        <time>2021-11-07T14:53:09Z</time>
      </trkpt>
      <trkpt lat="48.70096" lon="2.11981">
        <ele>50.74</ele>
        <time>2021-11-07T14:53:20Z</time>
      </trkpt>
      <trkpt lat="48.70096" lon="2.11972">
        <ele>50.67</ele>
        <time>2021-11-07T14:53:26Z</time>
      </trkpt>
      <trkpt lat="48.70093" lon="2.11956">
        <ele>50.27</ele>
        <time>2021-11-07T14:53:36Z</time>
      </trkpt>
      <trkpt lat="48.7009" lon="2.11935">
        <ele>50.39</ele>
        <time>2021-11-07T14:53:49Z</time>
      </trkpt>
      <trkpt lat="48.70089" lon="2.11934">
        <ele>50.55</ele>
        <time>2021-11-07T14:53:50Z</time>
      </trkpt>
      <trkpt lat="48.70084" lon="2.1191">
        <ele>51.12</ele>
        <time>2021-11-07T14:54:03Z</time>
      </trkpt>
      <trkpt lat="48.70079" lon="2.11891">
        <ele>50.43</ele>
        <time>2021-11-07T14:54:15Z</time>
      </trkpt>
      <trkpt lat="48.70078" lon="2.11883">
        <ele>50.42</ele>
        <time>2021-11-07T14:54:20Z</time>
      </trkpt>
      <trkpt lat="48.70076" lon="2.11876">
        <ele>50.49</ele>
        <time>2021-11-07T14:54:22Z</time>
      </trkpt>
      <trkpt lat="48.70074" lon="2.11869">
        <ele>50.63</ele>
        <time>2021-11-07T14:54:26Z</time>
      </trkpt>
      <trkpt lat="48.70074" lon="2.11865">
        <ele>50.8</ele>
        <time>2021-11-07T14:54:29Z</time>
      </trkpt>
      <trkpt lat="48.70069" lon="2.11849">
        <ele>51.43</ele>
        <time>2021-11-07T14:54:40Z</time>
      </trkpt>
      <trkpt lat="48.70063" lon="2.11818">
        <ele>51.16</ele>
        <time>2021-11-07T14:54:55Z</time>
      </trkpt>
      <trkpt lat="48.70062" lon="2.11795">
        <ele>50.76</ele>
        <time>2021-11-07T14:55:06Z</time>
      </trkpt>
      <trkpt lat="48.70062" lon="2.11789">
        <ele>50.66</ele>
        <time>2021-11-07T14:55:09Z</time>
      </trkpt>
      <trkpt lat="48.70066" lon="2.11765">
        <ele>51.05</ele>
        <time>2021-11-07T14:55:22Z</time>
      </trkpt>
      <trkpt lat="48.70065" lon="2.11751">
        <ele>51.69</ele>
        <time>2021-11-07T14:55:32Z</time>
      </trkpt>
      <trkpt lat="48.70064" lon="2.11732">
        <ele>51.47</ele>
        <time>2021-11-07T14:55:49Z</time>
      </trkpt>
      <trkpt lat="48.70069" lon="2.11705">
        <ele>51.51</ele>
        <time>2021-11-07T14:56:05Z</time>
      </trkpt>
      <trkpt lat="48.70072" lon="2.11684">
        <ele>51.44</ele>
        <time>2021-11-07T14:56:21Z</time>
      </trkpt>
      <trkpt lat="48.70079" lon="2.11653">
        <ele>51.49</ele>
        <time>2021-11-07T14:56:40Z</time>
      </trkpt>
      <trkpt lat="48.70088" lon="2.11632">
        <ele>51.32</ele>
        <time>2021-11-07T14:56:54Z</time>
      </trkpt>
      <trkpt lat="48.70096" lon="2.11599">
        <ele>51.91</ele>
        <time>2021-11-07T14:57:11Z</time>
      </trkpt>
      <trkpt lat="48.70101" lon="2.11578">
        <ele>51.16</ele>
        <time>2021-11-07T14:57:24Z</time>
      </trkpt>
      <trkpt lat="48.70108" lon="2.11552">
        <ele>51.42</ele>
        <time>2021-11-07T14:57:39Z</time>
      </trkpt>
      <trkpt lat="48.7011" lon="2.11517">
        <ele>50.65</ele>
        <time>2021-11-07T14:57:57Z</time>
      </trkpt>
      <trkpt lat="48.70113" lon="2.11491">
        <ele>51.45</ele>
        <time>2021-11-07T14:58:12Z</time>
      </trkpt>
      <trkpt lat="48.7012" lon="2.11462">
        <ele>50.8</ele>
        <time>2021-11-07T14:58:27Z</time>
      </trkpt>
      <trkpt lat="48.70128" lon="2.11444">
        <ele>50.17</ele>
        <time>2021-11-07T14:58:43Z</time>
      </trkpt>
      <trkpt lat="48.70138" lon="2.11449">
        <ele>50.88</ele>
        <time>2021-11-07T14:58:57Z</time>
      </trkpt>
      <trkpt lat="48.70154" lon="2.11455">
        <ele>50.97</ele>
        <time>2021-11-07T14:59:14Z</time>
      </trkpt>
      <trkpt lat="48.70171" lon="2.1146">
        <ele>51.61</ele>
        <time>2021-11-07T14:59:31Z</time>
      </trkpt>
      <trkpt lat="48.70198" lon="2.11469">
        <ele>52.38</ele>
        <time>2021-11-07T14:59:51Z</time>
      </trkpt>
      <trkpt lat="48.70219" lon="2.11454">
        <ele>52.13</ele>
        <time>2021-11-07T15:00:04Z</time>
      </trkpt>
      <trkpt lat="48.70226" lon="2.11441">
        <ele>51.67</ele>
        <time>2021-11-07T15:00:13Z</time>
      </trkpt>
      <trkpt lat="48.70234" lon="2.11418">
        <ele>52.1</ele>
        <time>2021-11-07T15:00:27Z</time>
      </trkpt>
      <trkpt lat="48.7024" lon="2.11391">
        <ele>51.7</ele>
        <time>2021-11-07T15:00:44Z</time>
      </trkpt>
      <trkpt lat="48.70243" lon="2.11374">
        <ele>51.43</ele>
        <time>2021-11-07T15:00:57Z</time>
      </trkpt>
      <trkpt lat="48.70247" lon="2.11348">
        <ele>51.45</ele>
        <time>2021-11-07T15:01:13Z</time>
      </trkpt>
      <trkpt lat="48.70247" lon="2.11339">
        <ele>51.78</ele>
        <time>2021-11-07T15:01:30Z</time>
      </trkpt>
      <trkpt lat="48.7025" lon="2.11332">
        <ele>51.91</ele>
        <time>2021-11-07T15:01:48Z</time>
      </trkpt>
      <trkpt lat="48.70252" lon="2.11321">
        <ele>51.84</ele>
        <time>2021-11-07T15:02:07Z</time>
      </trkpt>
      <trkpt lat="48.70255" lon="2.11297">
        <ele>52.92</ele>
        <time>2021-11-07T15:02:26Z</time>
      </trkpt>
      <trkpt lat="48.7026" lon="2.11272">
        <ele>52.75</ele>
        <time>2021-11-07T15:02:43Z</time>
      </trkpt>
      <trkpt lat="48.70267" lon="2.11262">
        <ele>53.67</ele>
        <time>2021-11-07T15:02:54Z</time>
      </trkpt>
      <trkpt lat="48.70271" lon="2.11256">
        <ele>52.84</ele>
        <time>2021-11-07T15:03:08Z</time>
      </trkpt>
      <trkpt lat="48.70274" lon="2.11241">
        <ele>52.9</ele>
        <time>2021-11-07T15:03:21Z</time>
      </trkpt>
      <trkpt lat="48.70277" lon="2.11226">
        <ele>52.95</ele>
        <time>2021-11-07T15:03:35Z</time>
      </trkpt>
      <trkpt lat="48.7028" lon="2.11198">
        <ele>53.65</ele>
        <time>2021-11-07T15:03:53Z</time>
      </trkpt>
      <trkpt lat="48.70278" lon="2.11179">
        <ele>53.63</ele>
        <time>2021-11-07T15:04:09Z</time>
      </trkpt>
      <trkpt lat="48.70281" lon="2.11159">
        <ele>53.8</ele>
        <time>2021-11-07T15:04:24Z</time>
      </trkpt>
      <trkpt lat="48.70283" lon="2.11139">
        <ele>53.8</ele>
        <time>2021-11-07T15:04:36Z</time>
      </trkpt>
      <trkpt lat="48.70284" lon="2.11131">
        <ele>54.73</ele>
        <time>2021-11-07T15:04:53Z</time>
      </trkpt>
      <trkpt lat="48.70278" lon="2.11122">
        <ele>54.23</ele>
        <time>2021-11-07T15:05:05Z</time>
      </trkpt>
      <trkpt lat="48.70264" lon="2.11125">
        <ele>53.9</ele>
        <time>2021-11-07T15:05:21Z</time>
      </trkpt>
      <trkpt lat="48.70248" lon="2.11134">
        <ele>53.99</ele>
        <time>2021-11-07T15:05:38Z</time>
      </trkpt>
      <trkpt lat="48.7024" lon="2.11133">
        <ele>53.81</ele>
        <time>2021-11-07T15:05:53Z</time>
      </trkpt>
      <trkpt lat="48.70239" lon="2.11121">
        <ele>53.12</ele>
        <time>2021-11-07T15:06:08Z</time>
      </trkpt>
      <trkpt lat="48.7024" lon="2.11099">
        <ele>53.4</ele>
        <time>2021-11-07T15:06:24Z</time>
      </trkpt>
      <trkpt lat="48.70245" lon="2.11084">
        <ele>53.82</ele>
        <time>2021-11-07T15:06:42Z</time>
      </trkpt>
      <trkpt lat="48.70233" lon="2.1107">
        <ele>52.42</ele>
        <time>2021-11-07T15:06:58Z</time>
      </trkpt>
      <trkpt lat="48.70224" lon="2.11049">
        <ele>53.44</ele>
        <time>2021-11-07T15:07:14Z</time>
      </trkpt>
      <trkpt lat="48.70224" lon="2.11037">
        <ele>53.38</ele>
        <time>2021-11-07T15:07:21Z</time>
      </trkpt>
      <trkpt lat="48.70224" lon="2.11032">
        <ele>53</ele>
        <time>2021-11-07T15:07:24Z</time>
      </trkpt>
      <trkpt lat="48.70223" lon="2.1102">
        <ele>52.5</ele>
        <time>2021-11-07T15:07:47Z</time>
      </trkpt>
      <trkpt lat="48.70211" lon="2.11019">
        <ele>52.96</ele>
        <time>2021-11-07T15:07:59Z</time>
      </trkpt>
      <trkpt lat="48.70195" lon="2.1101">
        <ele>53.69</ele>
        <time>2021-11-07T15:08:14Z</time>
      </trkpt>
      <trkpt lat="48.70194" lon="2.11007">
        <ele>53.6</ele>
        <time>2021-11-07T15:08:17Z</time>
      </trkpt>
      <trkpt lat="48.70198" lon="2.10983">
        <ele>53.46</ele>
        <time>2021-11-07T15:08:31Z</time>
      </trkpt>
      <trkpt lat="48.70198" lon="2.10981">
        <ele>53.46</ele>
        <time>2021-11-07T15:08:32Z</time>
      </trkpt>
      <trkpt lat="48.70203" lon="2.10971">
        <ele>53.58</ele>
        <time>2021-11-07T15:08:43Z</time>
      </trkpt>
      <trkpt lat="48.70209" lon="2.10947">
        <ele>53.39</ele>
        <time>2021-11-07T15:08:55Z</time>
      </trkpt>
      <trkpt lat="48.70216" lon="2.10927">
        <ele>53.43</ele>
        <time>2021-11-07T15:09:08Z</time>
      </trkpt>
      <trkpt lat="48.70223" lon="2.10914">
        <ele>53.08</ele>
        <time>2021-11-07T15:09:17Z</time>
      </trkpt>
      <trkpt lat="48.70227" lon="2.10904">
        <ele>52.62</ele>
        <time>2021-11-07T15:09:23Z</time>
      </trkpt>
      <trkpt lat="48.70228" lon="2.10899">
        <ele>52.63</ele>
        <time>2021-11-07T15:09:25Z</time>
      </trkpt>
      <trkpt lat="48.70229" lon="2.10892">
        <ele>53.09</ele>
        <time>2021-11-07T15:09:28Z</time>
      </trkpt>
      <trkpt lat="48.70236" lon="2.10867">
        <ele>52.96</ele>
        <time>2021-11-07T15:09:42Z</time>
      </trkpt>
      <trkpt lat="48.7024" lon="2.10844">
        <ele>52.92</ele>
        <time>2021-11-07T15:09:53Z</time>
      </trkpt>
      <trkpt lat="48.70247" lon="2.10822">
        <ele>53.45</ele>
        <time>2021-11-07T15:10:06Z</time>
      </trkpt>
      <trkpt lat="48.70251" lon="2.10815">
        <ele>53.37</ele>
        <time>2021-11-07T15:10:10Z</time>
      </trkpt>
      <trkpt lat="48.70258" lon="2.10794">
        <ele>53.45</ele>
        <time>2021-11-07T15:10:24Z</time>
      </trkpt>
      <trkpt lat="48.70257" lon="2.10791">
        <ele>53.55</ele>
        <time>2021-11-07T15:10:26Z</time>
      </trkpt>
      <trkpt lat="48.70259" lon="2.10765">
        <ele>53.32</ele>
        <time>2021-11-07T15:10:37Z</time>
      </trkpt>
      <trkpt lat="48.70261" lon="2.10746">
        <ele>54.06</ele>
        <time>2021-11-07T15:10:47Z</time>
      </trkpt>
      <trkpt lat="48.70258" lon="2.10726">
        <ele>54.59</ele>
        <time>2021-11-07T15:10:59Z</time>
      </trkpt>
      <trkpt lat="48.70255" lon="2.10714">
        <ele>54.9</ele>
        <time>2021-11-07T15:11:05Z</time>
      </trkpt>
      <trkpt lat="48.70252" lon="2.1069">
        <ele>54.88</ele>
        <time>2021-11-07T15:11:17Z</time>
      </trkpt>
      <trkpt lat="48.70252" lon="2.10664">
        <ele>52.77</ele>
        <time>2021-11-07T15:11:34Z</time>
      </trkpt>
      <trkpt lat="48.70254" lon="2.10648">
        <ele>52.66</ele>
        <time>2021-11-07T15:11:46Z</time>
      </trkpt>
      <trkpt lat="48.70248" lon="2.10625">
        <ele>55.15</ele>
        <time>2021-11-07T15:11:59Z</time>
      </trkpt>
      <trkpt lat="48.7024" lon="2.10608">
        <ele>54.08</ele>
        <time>2021-11-07T15:12:14Z</time>
      </trkpt>
      <trkpt lat="48.70238" lon="2.10581">
        <ele>54.6</ele>
        <time>2021-11-07T15:12:29Z</time>
      </trkpt>
      <trkpt lat="48.70229" lon="2.10547">
        <ele>54.59</ele>
        <time>2021-11-07T15:12:45Z</time>
      </trkpt>
      <trkpt lat="48.70226" lon="2.10524">
        <ele>54.72</ele>
        <time>2021-11-07T15:12:56Z</time>
      </trkpt>
      <trkpt lat="48.70224" lon="2.10504">
        <ele>54.79</ele>
        <time>2021-11-07T15:13:10Z</time>
      </trkpt>
      <trkpt lat="48.70218" lon="2.10485">
        <ele>54.66</ele>
        <time>2021-11-07T15:13:15Z</time>
      </trkpt>
      <trkpt lat="48.70216" lon="2.10464">
        <ele>54.75</ele>
        <time>2021-11-07T15:13:26Z</time>
      </trkpt>
      <trkpt lat="48.70215" lon="2.10458">
        <ele>55.58</ele>
        <time>2021-11-07T15:13:32Z</time>
      </trkpt>
      <trkpt lat="48.70211" lon="2.10435">
        <ele>55.06</ele>
        <time>2021-11-07T15:13:46Z</time>
      </trkpt>
      <trkpt lat="48.70203" lon="2.10412">
        <ele>54.9</ele>
        <time>2021-11-07T15:14:04Z</time>
      </trkpt>
      <trkpt lat="48.70201" lon="2.10405">
        <ele>55.33</ele>
        <time>2021-11-07T15:14:07Z</time>
      </trkpt>
      <trkpt lat="48.70198" lon="2.10381">
        <ele>54.3</ele>
        <time>2021-11-07T15:14:19Z</time>
      </trkpt>
      <trkpt lat="48.70196" lon="2.10364">
        <ele>54.78</ele>
        <time>2021-11-07T15:14:27Z</time>
      </trkpt>
      <trkpt lat="48.70196" lon="2.1035">
        <ele>55.2</ele>
        <time>2021-11-07T15:14:33Z</time>
      </trkpt>
      <trkpt lat="48.70196" lon="2.10344">
        <ele>55.05</ele>
        <time>2021-11-07T15:14:36Z</time>
      </trkpt>
      <trkpt lat="48.70198" lon="2.10326">
        <ele>54.88</ele>
        <time>2021-11-07T15:14:46Z</time>
      </trkpt>
      <trkpt lat="48.70202" lon="2.10311">
        <ele>54.89</ele>
        <time>2021-11-07T15:14:55Z</time>
      </trkpt>
      <trkpt lat="48.70211" lon="2.10295">
        <ele>54.37</ele>
        <time>2021-11-07T15:15:06Z</time>
      </trkpt>
      <trkpt lat="48.70214" lon="2.10291">
        <ele>54.9</ele>
        <time>2021-11-07T15:15:09Z</time>
      </trkpt>
      <trkpt lat="48.70214" lon="2.10288">
        <ele>54.38</ele>
        <time>2021-11-07T15:15:11Z</time>
      </trkpt>
      <trkpt lat="48.70222" lon="2.1027">
        <ele>55.06</ele>
        <time>2021-11-07T15:15:22Z</time>
      </trkpt>
      <trkpt lat="48.70229" lon="2.10248">
        <ele>55.42</ele>
        <time>2021-11-07T15:15:34Z</time>
      </trkpt>
      <trkpt lat="48.70233" lon="2.10232">
        <ele>55.2</ele>
        <time>2021-11-07T15:15:45Z</time>
      </trkpt>
      <trkpt lat="48.70234" lon="2.10226">
        <ele>55.1</ele>
        <time>2021-11-07T15:15:49Z</time>
      </trkpt>
      <trkpt lat="48.70234" lon="2.10221">
        <ele>54.53</ele>
        <time>2021-11-07T15:15:52Z</time>
      </trkpt>
      <trkpt lat="48.70235" lon="2.10201">
        <ele>55.66</ele>
        <time>2021-11-07T15:16:02Z</time>
      </trkpt>
      <trkpt lat="48.70235" lon="2.10189">
        <ele>55.62</ele>
        <time>2021-11-07T15:16:09Z</time>
      </trkpt>
      <trkpt lat="48.70233" lon="2.10175">
        <ele>55.93</ele>
        <time>2021-11-07T15:16:17Z</time>
      </trkpt>
      <trkpt lat="48.70229" lon="2.10159">
        <ele>55.89</ele>
        <time>2021-11-07T15:16:29Z</time>
      </trkpt>
      <trkpt lat="48.70225" lon="2.10131">
        <ele>56.05</ele>
        <time>2021-11-07T15:16:45Z</time>
      </trkpt>
      <trkpt lat="48.70226" lon="2.10128">
        <ele>56.04</ele>
        <time>2021-11-07T15:16:47Z</time>
      </trkpt>
      <trkpt lat="48.70226" lon="2.10117">
        <ele>56.52</ele>
        <time>2021-11-07T15:16:55Z</time>
      </trkpt>
      <trkpt lat="48.70216" lon="2.10106">
        <ele>56.97</ele>
        <time>2021-11-07T15:17:06Z</time>
      </trkpt>
      <trkpt lat="48.7021" lon="2.10099">
        <ele>56.67</ele>
        <time>2021-11-07T15:17:23Z</time>
      </trkpt>
      <trkpt lat="48.7021" lon="2.10094">
        <ele>56.71</ele>
        <time>2021-11-07T15:17:50Z</time>
      </trkpt>
      <trkpt lat="48.70206" lon="2.10088">
        <ele>57.1</ele>
        <time>2021-11-07T15:18:12Z</time>
      </trkpt>
      <trkpt lat="48.70198" lon="2.10077">
        <ele>57.35</ele>
        <time>2021-11-07T15:18:27Z</time>
      </trkpt>
      <trkpt lat="48.70197" lon="2.10076">
        <ele>57.33</ele>
        <time>2021-11-07T15:18:29Z</time>
      </trkpt>
      <trkpt lat="48.70184" lon="2.10054">
        <ele>58.92</ele>
        <time>2021-11-07T15:18:50Z</time>
      </trkpt>
      <trkpt lat="48.70174" lon="2.10034">
        <ele>60.49</ele>
        <time>2021-11-07T15:19:07Z</time>
      </trkpt>
      <trkpt lat="48.70172" lon="2.10028">
        <ele>60.29</ele>
        <time>2021-11-07T15:19:11Z</time>
      </trkpt>
      <trkpt lat="48.70169" lon="2.1001">
        <ele>61.4</ele>
        <time>2021-11-07T15:19:24Z</time>
      </trkpt>
      <trkpt lat="48.70165" lon="2.10006">
        <ele>61.61</ele>
        <time>2021-11-07T15:19:28Z</time>
      </trkpt>
      <trkpt lat="48.70163" lon="2.10005">
        <ele>61.53</ele>
        <time>2021-11-07T15:19:30Z</time>
      </trkpt>
      <trkpt lat="48.70155" lon="2.09992">
        <ele>62.54</ele>
        <time>2021-11-07T15:19:42Z</time>
      </trkpt>
      <trkpt lat="48.70153" lon="2.09991">
        <ele>62.68</ele>
        <time>2021-11-07T15:19:55Z</time>
      </trkpt>
      <trkpt lat="48.70143" lon="2.0998">
        <ele>63.76</ele>
        <time>2021-11-07T15:20:09Z</time>
      </trkpt>
      <trkpt lat="48.70141" lon="2.09977">
        <ele>63.78</ele>
        <time>2021-11-07T15:20:12Z</time>
      </trkpt>
      <trkpt lat="48.70134" lon="2.09966">
        <ele>64.9</ele>
        <time>2021-11-07T15:20:24Z</time>
      </trkpt>
      <trkpt lat="48.70133" lon="2.09964">
        <ele>65.18</ele>
        <time>2021-11-07T15:20:26Z</time>
      </trkpt>
      <trkpt lat="48.70129" lon="2.09954">
        <ele>65.19</ele>
        <time>2021-11-07T15:20:33Z</time>
      </trkpt>
      <trkpt lat="48.70124" lon="2.09947">
        <ele>65.89</ele>
        <time>2021-11-07T15:20:39Z</time>
      </trkpt>
      <trkpt lat="48.70116" lon="2.09938">
        <ele>66.16</ele>
        <time>2021-11-07T15:20:52Z</time>
      </trkpt>
      <trkpt lat="48.70106" lon="2.09931">
        <ele>66.66</ele>
        <time>2021-11-07T15:21:08Z</time>
      </trkpt>
      <trkpt lat="48.701" lon="2.09924">
        <ele>67.2</ele>
        <time>2021-11-07T15:21:22Z</time>
      </trkpt>
      <trkpt lat="48.70096" lon="2.09925">
        <ele>66.99</ele>
        <time>2021-11-07T15:21:35Z</time>
      </trkpt>
      <trkpt lat="48.70095" lon="2.09931">
        <ele>64.18</ele>
        <time>2021-11-07T15:21:52Z</time>
      </trkpt>
      <trkpt lat="48.70087" lon="2.09937">
        <ele>65.17</ele>
        <time>2021-11-07T15:22:02Z</time>
      </trkpt>
      <trkpt lat="48.70084" lon="2.09928">
        <ele>66.9</ele>
        <time>2021-11-07T15:22:10Z</time>
      </trkpt>
      <trkpt lat="48.70076" lon="2.09921">
        <ele>67.99</ele>
        <time>2021-11-07T15:22:25Z</time>
      </trkpt>
      <trkpt lat="48.70068" lon="2.09918">
        <ele>68.17</ele>
        <time>2021-11-07T15:22:33Z</time>
      </trkpt>
      <trkpt lat="48.7006" lon="2.09914">
        <ele>68.95</ele>
        <time>2021-11-07T15:22:43Z</time>
      </trkpt>
      <trkpt lat="48.70049" lon="2.09909">
        <ele>69.96</ele>
        <time>2021-11-07T15:22:57Z</time>
      </trkpt>
      <trkpt lat="48.70039" lon="2.09904">
        <ele>71.89</ele>
        <time>2021-11-07T15:23:10Z</time>
      </trkpt>
      <trkpt lat="48.70026" lon="2.09904">
        <ele>72.83</ele>
        <time>2021-11-07T15:23:21Z</time>
      </trkpt>
      <trkpt lat="48.70014" lon="2.09904">
        <ele>74</ele>
        <time>2021-11-07T15:23:33Z</time>
      </trkpt>
      <trkpt lat="48.70013" lon="2.09903">
        <ele>73.63</ele>
        <time>2021-11-07T15:23:34Z</time>
      </trkpt>
      <trkpt lat="48.70005" lon="2.09897">
        <ele>75.52</ele>
        <time>2021-11-07T15:23:44Z</time>
      </trkpt>
      <trkpt lat="48.69995" lon="2.09891">
        <ele>76.27</ele>
        <time>2021-11-07T15:23:55Z</time>
      </trkpt>
      <trkpt lat="48.69986" lon="2.09886">
        <ele>77.11</ele>
        <time>2021-11-07T15:24:05Z</time>
      </trkpt>
      <trkpt lat="48.69975" lon="2.09881">
        <ele>78.43</ele>
        <time>2021-11-07T15:24:16Z</time>
      </trkpt>
      <trkpt lat="48.69969" lon="2.09875">
        <ele>78.25</ele>
        <time>2021-11-07T15:24:25Z</time>
      </trkpt>
      <trkpt lat="48.69967" lon="2.09856">
        <ele>78.56</ele>
        <time>2021-11-07T15:24:32Z</time>
      </trkpt>
      <trkpt lat="48.6997" lon="2.09842">
        <ele>79.18</ele>
        <time>2021-11-07T15:24:41Z</time>
      </trkpt>
      <trkpt lat="48.69974" lon="2.09824">
        <ele>79.28</ele>
        <time>2021-11-07T15:24:53Z</time>
      </trkpt>
      <trkpt lat="48.69977" lon="2.09812">
        <ele>80.59</ele>
        <time>2021-11-07T15:25:00Z</time>
      </trkpt>
      <trkpt lat="48.69978" lon="2.09809">
        <ele>80.11</ele>
        <time>2021-11-07T15:25:02Z</time>
      </trkpt>
      <trkpt lat="48.69981" lon="2.09795">
        <ele>80.76</ele>
        <time>2021-11-07T15:25:12Z</time>
      </trkpt>
      <trkpt lat="48.69985" lon="2.09778">
        <ele>80.74</ele>
        <time>2021-11-07T15:25:25Z</time>
      </trkpt>
      <trkpt lat="48.69988" lon="2.09758">
        <ele>81.7</ele>
        <time>2021-11-07T15:25:37Z</time>
      </trkpt>
      <trkpt lat="48.69989" lon="2.0975">
        <ele>81.91</ele>
        <time>2021-11-07T15:25:42Z</time>
      </trkpt>
      <trkpt lat="48.69992" lon="2.09735">
        <ele>81.31</ele>
        <time>2021-11-07T15:25:53Z</time>
      </trkpt>
      <trkpt lat="48.69997" lon="2.09715">
        <ele>81.33</ele>
        <time>2021-11-07T15:26:07Z</time>
      </trkpt>
      <trkpt lat="48.69999" lon="2.09703">
        <ele>81.21</ele>
        <time>2021-11-07T15:26:14Z</time>
      </trkpt>
      <trkpt lat="48.70002" lon="2.09684">
        <ele>81.11</ele>
        <time>2021-11-07T15:26:25Z</time>
      </trkpt>
      <trkpt lat="48.70005" lon="2.09671">
        <ele>81.65</ele>
        <time>2021-11-07T15:26:31Z</time>
      </trkpt>
      <trkpt lat="48.70011" lon="2.09647">
        <ele>80.74</ele>
        <time>2021-11-07T15:26:43Z</time>
      </trkpt>
      <trkpt lat="48.70015" lon="2.09624">
        <ele>81.14</ele>
        <time>2021-11-07T15:26:55Z</time>
      </trkpt>
      <trkpt lat="48.70018" lon="2.09609">
        <ele>81.25</ele>
        <time>2021-11-07T15:27:06Z</time>
      </trkpt>
      <trkpt lat="48.70021" lon="2.09602">
        <ele>80.98</ele>
        <time>2021-11-07T15:27:23Z</time>
      </trkpt>
      <trkpt lat="48.70025" lon="2.09589">
        <ele>80.77</ele>
        <time>2021-11-07T15:27:39Z</time>
      </trkpt>
      <trkpt lat="48.70032" lon="2.09573">
        <ele>79.98</ele>
        <time>2021-11-07T15:27:54Z</time>
      </trkpt>
      <trkpt lat="48.70034" lon="2.09568">
        <ele>80.61</ele>
        <time>2021-11-07T15:28:07Z</time>
      </trkpt>
      <trkpt lat="48.70034" lon="2.09564">
        <ele>80.03</ele>
        <time>2021-11-07T15:28:20Z</time>
      </trkpt>
      <trkpt lat="48.70039" lon="2.09549">
        <ele>80.2</ele>
        <time>2021-11-07T15:28:36Z</time>
      </trkpt>
      <trkpt lat="48.70047" lon="2.09526">
        <ele>80.24</ele>
        <time>2021-11-07T15:28:50Z</time>
      </trkpt>
      <trkpt lat="48.70052" lon="2.09504">
        <ele>79.78</ele>
        <time>2021-11-07T15:29:04Z</time>
      </trkpt>
      <trkpt lat="48.70056" lon="2.09491">
        <ele>79.82</ele>
        <time>2021-11-07T15:29:15Z</time>
      </trkpt>
      <trkpt lat="48.70062" lon="2.09472">
        <ele>79.38</ele>
        <time>2021-11-07T15:29:30Z</time>
      </trkpt>
      <trkpt lat="48.70066" lon="2.09455">
        <ele>78.82</ele>
        <time>2021-11-07T15:29:42Z</time>
      </trkpt>
      <trkpt lat="48.70071" lon="2.09446">
        <ele>78.36</ele>
        <time>2021-11-07T15:29:54Z</time>
      </trkpt>
      <trkpt lat="48.70073" lon="2.0944">
        <ele>78.43</ele>
        <time>2021-11-07T15:30:09Z</time>
      </trkpt>
      <trkpt lat="48.70074" lon="2.09437">
        <ele>78.31</ele>
        <time>2021-11-07T15:30:26Z</time>
      </trkpt>
      <trkpt lat="48.70079" lon="2.09421">
        <ele>77.69</ele>
        <time>2021-11-07T15:30:40Z</time>
      </trkpt>
      <trkpt lat="48.70079" lon="2.09418">
        <ele>77.97</ele>
        <time>2021-11-07T15:30:53Z</time>
      </trkpt>
      <trkpt lat="48.7008" lon="2.09417">
        <ele>78.25</ele>
        <time>2021-11-07T15:31:19Z</time>
      </trkpt>
      <trkpt lat="48.70081" lon="2.09412">
        <ele>78.79</ele>
        <time>2021-11-07T15:31:43Z</time>
      </trkpt>
      <trkpt lat="48.70081" lon="2.09413">
        <ele>78.98</ele>
        <time>2021-11-07T15:32:19Z</time>
      </trkpt>
      <trkpt lat="48.70081" lon="2.09412">
        <ele>79.1</ele>
        <time>2021-11-07T15:32:41Z</time>
      </trkpt>
      <trkpt lat="48.70083" lon="2.09413">
        <ele>79.14</ele>
        <time>2021-11-07T15:33:06Z</time>
      </trkpt>
      <trkpt lat="48.70087" lon="2.09407">
        <ele>78.8</ele>
        <time>2021-11-07T15:33:13Z</time>
      </trkpt>
      <trkpt lat="48.70089" lon="2.09399">
        <ele>78.71</ele>
        <time>2021-11-07T15:33:18Z</time>
      </trkpt>
      <trkpt lat="48.70094" lon="2.0938">
        <ele>78.69</ele>
        <time>2021-11-07T15:33:31Z</time>
      </trkpt>
      <trkpt lat="48.70096" lon="2.09372">
        <ele>78.26</ele>
        <time>2021-11-07T15:33:37Z</time>
      </trkpt>
      <trkpt lat="48.70101" lon="2.09355">
        <ele>78.72</ele>
        <time>2021-11-07T15:33:50Z</time>
      </trkpt>
      <trkpt lat="48.70104" lon="2.09338">
        <ele>78.67</ele>
        <time>2021-11-07T15:34:07Z</time>
      </trkpt>
      <trkpt lat="48.70109" lon="2.0932">
        <ele>78.79</ele>
        <time>2021-11-07T15:34:19Z</time>
      </trkpt>
      <trkpt lat="48.70113" lon="2.09308">
        <ele>78.54</ele>
        <time>2021-11-07T15:34:28Z</time>
      </trkpt>
      <trkpt lat="48.70118" lon="2.09292">
        <ele>79.01</ele>
        <time>2021-11-07T15:34:43Z</time>
      </trkpt>
      <trkpt lat="48.70125" lon="2.09272">
        <ele>79.16</ele>
        <time>2021-11-07T15:34:56Z</time>
      </trkpt>
      <trkpt lat="48.70126" lon="2.09269">
        <ele>79.18</ele>
        <time>2021-11-07T15:34:58Z</time>
      </trkpt>
      <trkpt lat="48.70129" lon="2.09258">
        <ele>79.08</ele>
        <time>2021-11-07T15:35:08Z</time>
      </trkpt>
      <trkpt lat="48.70133" lon="2.09235">
        <ele>78.99</ele>
        <time>2021-11-07T15:35:25Z</time>
      </trkpt>
      <trkpt lat="48.70137" lon="2.09215">
        <ele>79.25</ele>
        <time>2021-11-07T15:35:39Z</time>
      </trkpt>
      <trkpt lat="48.70149" lon="2.09193">
        <ele>78.87</ele>
        <time>2021-11-07T15:35:56Z</time>
      </trkpt>
      <trkpt lat="48.70155" lon="2.09172">
        <ele>78.14</ele>
        <time>2021-11-07T15:36:11Z</time>
      </trkpt>
      <trkpt lat="48.70163" lon="2.09159">
        <ele>77.59</ele>
        <time>2021-11-07T15:36:24Z</time>
      </trkpt>
      <trkpt lat="48.70171" lon="2.09136">
        <ele>77.16</ele>
        <time>2021-11-07T15:36:37Z</time>
      </trkpt>
      <trkpt lat="48.70177" lon="2.09122">
        <ele>76.6</ele>
        <time>2021-11-07T15:36:52Z</time>
      </trkpt>
      <trkpt lat="48.70181" lon="2.09102">
        <ele>75.93</ele>
        <time>2021-11-07T15:37:07Z</time>
      </trkpt>
      <trkpt lat="48.70184" lon="2.09065">
        <ele>75.23</ele>
        <time>2021-11-07T15:37:21Z</time>
      </trkpt>
      <trkpt lat="48.70187" lon="2.09045">
        <ele>74.21</ele>
        <time>2021-11-07T15:37:34Z</time>
      </trkpt>
      <trkpt lat="48.70191" lon="2.09031">
        <ele>74.2</ele>
        <time>2021-11-07T15:37:50Z</time>
      </trkpt>
      <trkpt lat="48.70191" lon="2.09031">
        <ele>74.26</ele>
        <time>2021-11-07T15:37:51Z</time>
      </trkpt>
      <trkpt lat="48.70187" lon="2.0902">
        <ele>73.68</ele>
        <time>2021-11-07T15:38:12Z</time>
      </trkpt>
      <trkpt lat="48.70187" lon="2.09019">
        <ele>74.37</ele>
        <time>2021-11-07T15:38:33Z</time>
      </trkpt>
      <trkpt lat="48.70187" lon="2.09018">
        <ele>74.14</ele>
        <time>2021-11-07T15:38:53Z</time>
      </trkpt>
      <trkpt lat="48.70187" lon="2.09023">
        <ele>74.47</ele>
        <time>2021-11-07T15:39:12Z</time>
      </trkpt>
      <trkpt lat="48.70189" lon="2.0902">
        <ele>73.47</ele>
        <time>2021-11-07T15:39:37Z</time>
      </trkpt>
      <trkpt lat="48.70193" lon="2.09001">
        <ele>73.18</ele>
        <time>2021-11-07T15:39:52Z</time>
      </trkpt>
      <trkpt lat="48.70202" lon="2.08974">
        <ele>71.46</ele>
        <time>2021-11-07T15:40:06Z</time>
      </trkpt>
      <trkpt lat="48.70206" lon="2.08968">
        <ele>71.53</ele>
        <time>2021-11-07T15:40:11Z</time>
      </trkpt>
      <trkpt lat="48.70214" lon="2.08964">
        <ele>70.32</ele>
        <time>2021-11-07T15:40:17Z</time>
      </trkpt>
      <trkpt lat="48.70224" lon="2.08963">
        <ele>70.46</ele>
        <time>2021-11-07T15:40:31Z</time>
      </trkpt>
      <trkpt lat="48.70235" lon="2.08961">
        <ele>69.66</ele>
        <time>2021-11-07T15:40:48Z</time>
      </trkpt>
      <trkpt lat="48.70239" lon="2.0896">
        <ele>68.65</ele>
        <time>2021-11-07T15:40:56Z</time>
      </trkpt>
      <trkpt lat="48.70249" lon="2.08959">
        <ele>68.01</ele>
        <time>2021-11-07T15:41:07Z</time>
      </trkpt>
      <trkpt lat="48.70267" lon="2.08953">
        <ele>66.95</ele>
        <time>2021-11-07T15:41:25Z</time>
      </trkpt>
      <trkpt lat="48.70269" lon="2.0895">
        <ele>66.83</ele>
        <time>2021-11-07T15:41:27Z</time>
      </trkpt>
      <trkpt lat="48.70285" lon="2.08939">
        <ele>66.19</ele>
        <time>2021-11-07T15:41:39Z</time>
      </trkpt>
      <trkpt lat="48.70287" lon="2.08925">
        <ele>65.76</ele>
        <time>2021-11-07T15:41:51Z</time>
      </trkpt>
      <trkpt lat="48.70289" lon="2.08919">
        <ele>65.43</ele>
        <time>2021-11-07T15:42:00Z</time>
      </trkpt>
      <trkpt lat="48.70292" lon="2.08901">
        <ele>65.06</ele>
        <time>2021-11-07T15:42:18Z</time>
      </trkpt>
      <trkpt lat="48.70292" lon="2.089">
        <ele>65.16</ele>
        <time>2021-11-07T15:42:20Z</time>
      </trkpt>
      <trkpt lat="48.70298" lon="2.08885">
        <ele>64.27</ele>
        <time>2021-11-07T15:42:39Z</time>
      </trkpt>
      <trkpt lat="48.70307" lon="2.08868">
        <ele>63.96</ele>
        <time>2021-11-07T15:42:53Z</time>
      </trkpt>
      <trkpt lat="48.70318" lon="2.08868">
        <ele>63.89</ele>
        <time>2021-11-07T15:43:08Z</time>
      </trkpt>
      <trkpt lat="48.70333" lon="2.08867">
        <ele>64.55</ele>
        <time>2021-11-07T15:43:27Z</time>
      </trkpt>
      <trkpt lat="48.70351" lon="2.0886">
        <ele>63.54</ele>
        <time>2021-11-07T15:43:43Z</time>
      </trkpt>
      <trkpt lat="48.70365" lon="2.08853">
        <ele>62.93</ele>
        <time>2021-11-07T15:43:59Z</time>
      </trkpt>
      <trkpt lat="48.70366" lon="2.08834">
        <ele>62.82</ele>
        <time>2021-11-07T15:44:14Z</time>
      </trkpt>
      <trkpt lat="48.70364" lon="2.08812">
        <ele>63.41</ele>
        <time>2021-11-07T15:44:28Z</time>
      </trkpt>
      <trkpt lat="48.70361" lon="2.08795">
        <ele>61.5</ele>
        <time>2021-11-07T15:44:39Z</time>
      </trkpt>
      <trkpt lat="48.70361" lon="2.08758">
        <ele>62.57</ele>
        <time>2021-11-07T15:44:55Z</time>
      </trkpt>
      <trkpt lat="48.70366" lon="2.08744">
        <ele>62.54</ele>
        <time>2021-11-07T15:45:06Z</time>
      </trkpt>
      <trkpt lat="48.70367" lon="2.08723">
        <ele>62.8</ele>
        <time>2021-11-07T15:45:20Z</time>
      </trkpt>
      <trkpt lat="48.7037" lon="2.08704">
        <ele>63.11</ele>
        <time>2021-11-07T15:45:35Z</time>
      </trkpt>
      <trkpt lat="48.70374" lon="2.08682">
        <ele>63.24</ele>
        <time>2021-11-07T15:45:52Z</time>
      </trkpt>
      <trkpt lat="48.70377" lon="2.08661">
        <ele>62.98</ele>
        <time>2021-11-07T15:46:08Z</time>
      </trkpt>
      <trkpt lat="48.70378" lon="2.08634">
        <ele>63.39</ele>
        <time>2021-11-07T15:46:23Z</time>
      </trkpt>
      <trkpt lat="48.70378" lon="2.08606">
        <ele>63.53</ele>
        <time>2021-11-07T15:46:38Z</time>
      </trkpt>
      <trkpt lat="48.70379" lon="2.08586">
        <ele>63.37</ele>
        <time>2021-11-07T15:46:52Z</time>
      </trkpt>
      <trkpt lat="48.7038" lon="2.08556">
        <ele>63.19</ele>
        <time>2021-11-07T15:47:10Z</time>
      </trkpt>
      <trkpt lat="48.70382" lon="2.08535">
        <ele>62.97</ele>
        <time>2021-11-07T15:47:26Z</time>
      </trkpt>
      <trkpt lat="48.70384" lon="2.08513">
        <ele>63.13</ele>
        <time>2021-11-07T15:47:39Z</time>
      </trkpt>
      <trkpt lat="48.70386" lon="2.08493">
        <ele>62.8</ele>
        <time>2021-11-07T15:47:48Z</time>
      </trkpt>
      <trkpt lat="48.70385" lon="2.08483">
        <ele>63.64</ele>
        <time>2021-11-07T15:47:54Z</time>
      </trkpt>
      <trkpt lat="48.70376" lon="2.08475">
        <ele>63.12</ele>
        <time>2021-11-07T15:48:06Z</time>
      </trkpt>
      <trkpt lat="48.70363" lon="2.08472">
        <ele>63.35</ele>
        <time>2021-11-07T15:48:24Z</time>
      </trkpt>
      <trkpt lat="48.7036" lon="2.08471">
        <ele>63.41</ele>
        <time>2021-11-07T15:48:26Z</time>
      </trkpt>
      <trkpt lat="48.70349" lon="2.08467">
        <ele>63.67</ele>
        <time>2021-11-07T15:48:39Z</time>
      </trkpt>
      <trkpt lat="48.70332" lon="2.08461">
        <ele>64.25</ele>
        <time>2021-11-07T15:48:59Z</time>
      </trkpt>
      <trkpt lat="48.70321" lon="2.08448">
        <ele>64.09</ele>
        <time>2021-11-07T15:49:13Z</time>
      </trkpt>
      <trkpt lat="48.70311" lon="2.0844">
        <ele>64.21</ele>
        <time>2021-11-07T15:49:26Z</time>
      </trkpt>
      <trkpt lat="48.70306" lon="2.08428">
        <ele>64.76</ele>
        <time>2021-11-07T15:49:45Z</time>
      </trkpt>
      <trkpt lat="48.70298" lon="2.08425">
        <ele>64.23</ele>
        <time>2021-11-07T15:50:04Z</time>
      </trkpt>
      <trkpt lat="48.70284" lon="2.08424">
        <ele>64.96</ele>
        <time>2021-11-07T15:50:16Z</time>
      </trkpt>
      <trkpt lat="48.70274" lon="2.08423">
        <ele>65.72</ele>
        <time>2021-11-07T15:50:28Z</time>
      </trkpt>
      <trkpt lat="48.70258" lon="2.08416">
        <ele>66.15</ele>
        <time>2021-11-07T15:50:45Z</time>
      </trkpt>
      <trkpt lat="48.7025" lon="2.08407">
        <ele>67.61</ele>
        <time>2021-11-07T15:50:59Z</time>
      </trkpt>
      <trkpt lat="48.70245" lon="2.08387">
        <ele>68.52</ele>
        <time>2021-11-07T15:51:13Z</time>
      </trkpt>
      <trkpt lat="48.70244" lon="2.08381">
        <ele>68.55</ele>
        <time>2021-11-07T15:51:16Z</time>
      </trkpt>
      <trkpt lat="48.70244" lon="2.08357">
        <ele>68.34</ele>
        <time>2021-11-07T15:51:29Z</time>
      </trkpt>
      <trkpt lat="48.70243" lon="2.08345">
        <ele>67.85</ele>
        <time>2021-11-07T15:51:42Z</time>
      </trkpt>
      <trkpt lat="48.70242" lon="2.08314">
        <ele>68.71</ele>
        <time>2021-11-07T15:51:54Z</time>
      </trkpt>
      <trkpt lat="48.70243" lon="2.08298">
        <ele>68.92</ele>
        <time>2021-11-07T15:52:06Z</time>
      </trkpt>
      <trkpt lat="48.70245" lon="2.08274">
        <ele>69.19</ele>
        <time>2021-11-07T15:52:21Z</time>
      </trkpt>
      <trkpt lat="48.70247" lon="2.08252">
        <ele>70.15</ele>
        <time>2021-11-07T15:52:37Z</time>
      </trkpt>
      <trkpt lat="48.70248" lon="2.08244">
        <ele>70.38</ele>
        <time>2021-11-07T15:52:43Z</time>
      </trkpt>
      <trkpt lat="48.70251" lon="2.08222">
        <ele>71.58</ele>
        <time>2021-11-07T15:52:55Z</time>
      </trkpt>
      <trkpt lat="48.70251" lon="2.08215">
        <ele>71.96</ele>
        <time>2021-11-07T15:53:00Z</time>
      </trkpt>
      <trkpt lat="48.70253" lon="2.08199">
        <ele>72.81</ele>
        <time>2021-11-07T15:53:12Z</time>
      </trkpt>
      <trkpt lat="48.70256" lon="2.08185">
        <ele>72.48</ele>
        <time>2021-11-07T15:53:23Z</time>
      </trkpt>
      <trkpt lat="48.70258" lon="2.08172">
        <ele>73.34</ele>
        <time>2021-11-07T15:53:38Z</time>
      </trkpt>
      <trkpt lat="48.70261" lon="2.08156">
        <ele>73.12</ele>
        <time>2021-11-07T15:53:50Z</time>
      </trkpt>
      <trkpt lat="48.70263" lon="2.08138">
        <ele>72.09</ele>
        <time>2021-11-07T15:54:05Z</time>
      </trkpt>
      <trkpt lat="48.70267" lon="2.08123">
        <ele>73.45</ele>
        <time>2021-11-07T15:54:15Z</time>
      </trkpt>
      <trkpt lat="48.70272" lon="2.08102">
        <ele>73.2</ele>
        <time>2021-11-07T15:54:29Z</time>
      </trkpt>
      <trkpt lat="48.70273" lon="2.08099">
        <ele>73.2</ele>
        <time>2021-11-07T15:54:31Z</time>
      </trkpt>
      <trkpt lat="48.70273" lon="2.08083">
        <ele>73.92</ele>
        <time>2021-11-07T15:54:42Z</time>
      </trkpt>
      <trkpt lat="48.70273" lon="2.08075">
        <ele>73.99</ele>
        <time>2021-11-07T15:54:46Z</time>
      </trkpt>
      <trkpt lat="48.70274" lon="2.08056">
        <ele>74.12</ele>
        <time>2021-11-07T15:54:58Z</time>
      </trkpt>
      <trkpt lat="48.70275" lon="2.08034">
        <ele>74.06</ele>
        <time>2021-11-07T15:55:10Z</time>
      </trkpt>
      <trkpt lat="48.70276" lon="2.08019">
        <ele>74.13</ele>
        <time>2021-11-07T15:55:20Z</time>
      </trkpt>
      <trkpt lat="48.70275" lon="2.08001">
        <ele>73.73</ele>
        <time>2021-11-07T15:55:31Z</time>
      </trkpt>
      <trkpt lat="48.70275" lon="2.07992">
        <ele>74.17</ele>
        <time>2021-11-07T15:55:36Z</time>
      </trkpt>
      <trkpt lat="48.70275" lon="2.07983">
        <ele>73.98</ele>
        <time>2021-11-07T15:55:41Z</time>
      </trkpt>
      <trkpt lat="48.70275" lon="2.0798">
        <ele>74.12</ele>
        <time>2021-11-07T15:55:43Z</time>
      </trkpt>
      <trkpt lat="48.70277" lon="2.07964">
        <ele>74.59</ele>
        <time>2021-11-07T15:55:54Z</time>
      </trkpt>
      <trkpt lat="48.70278" lon="2.07956">
        <ele>73.91</ele>
        <time>2021-11-07T15:55:59Z</time>
      </trkpt>
      <trkpt lat="48.7028" lon="2.07943">
        <ele>73.89</ele>
        <time>2021-11-07T15:56:10Z</time>
      </trkpt>
      <trkpt lat="48.7028" lon="2.07932">
        <ele>73.71</ele>
        <time>2021-11-07T15:56:19Z</time>
      </trkpt>
      <trkpt lat="48.70281" lon="2.07927">
        <ele>73.01</ele>
        <time>2021-11-07T15:56:22Z</time>
      </trkpt>
      <trkpt lat="48.7028" lon="2.07919">
        <ele>73.55</ele>
        <time>2021-11-07T15:56:26Z</time>
      </trkpt>
      <trkpt lat="48.7028" lon="2.07916">
        <ele>73.18</ele>
        <time>2021-11-07T15:56:28Z</time>
      </trkpt>
      <trkpt lat="48.7028" lon="2.0791">
        <ele>73.12</ele>
        <time>2021-11-07T15:56:31Z</time>
      </trkpt>
      <trkpt lat="48.70281" lon="2.07901">
        <ele>73.28</ele>
        <time>2021-11-07T15:56:36Z</time>
      </trkpt>
      <trkpt lat="48.70283" lon="2.07887">
        <ele>72.88</ele>
        <time>2021-11-07T15:56:44Z</time>
      </trkpt>
      <trkpt lat="48.70284" lon="2.07861">
        <ele>72.68</ele>
        <time>2021-11-07T15:56:58Z</time>
      </trkpt>
      <trkpt lat="48.70286" lon="2.07851">
        <ele>72.92</ele>
        <time>2021-11-07T15:57:04Z</time>
      </trkpt>
      <trkpt lat="48.70287" lon="2.07829">
        <ele>72.42</ele>
        <time>2021-11-07T15:57:15Z</time>
      </trkpt>
      <trkpt lat="48.70289" lon="2.07807">
        <ele>72.81</ele>
        <time>2021-11-07T15:57:26Z</time>
      </trkpt>
      <trkpt lat="48.70293" lon="2.07787">
        <ele>72.84</ele>
        <time>2021-11-07T15:57:36Z</time>
      </trkpt>
      <trkpt lat="48.70293" lon="2.07784">
        <ele>73.19</ele>
        <time>2021-11-07T15:57:38Z</time>
      </trkpt>
      <trkpt lat="48.70293" lon="2.07772">
        <ele>72.84</ele>
        <time>2021-11-07T15:57:44Z</time>
      </trkpt>
      <trkpt lat="48.70292" lon="2.07755">
        <ele>73.1</ele>
        <time>2021-11-07T15:57:54Z</time>
      </trkpt>
      <trkpt lat="48.70293" lon="2.07747">
        <ele>72.94</ele>
        <time>2021-11-07T15:57:58Z</time>
      </trkpt>
      <trkpt lat="48.70295" lon="2.07727">
        <ele>73.88</ele>
        <time>2021-11-07T15:58:09Z</time>
      </trkpt>
      <trkpt lat="48.70296" lon="2.07718">
        <ele>73.44</ele>
        <time>2021-11-07T15:58:14Z</time>
      </trkpt>
      <trkpt lat="48.70297" lon="2.07708">
        <ele>73.78</ele>
        <time>2021-11-07T15:58:20Z</time>
      </trkpt>
      <trkpt lat="48.70296" lon="2.07692">
        <ele>73.75</ele>
        <time>2021-11-07T15:58:29Z</time>
      </trkpt>
      <trkpt lat="48.70296" lon="2.0768">
        <ele>74.37</ele>
        <time>2021-11-07T15:58:36Z</time>
      </trkpt>
      <trkpt lat="48.70295" lon="2.07671">
        <ele>74.29</ele>
        <time>2021-11-07T15:58:41Z</time>
      </trkpt>
      <trkpt lat="48.70295" lon="2.0765">
        <ele>74.05</ele>
        <time>2021-11-07T15:58:53Z</time>
      </trkpt>
      <trkpt lat="48.70296" lon="2.07641">
        <ele>74.84</ele>
        <time>2021-11-07T15:58:58Z</time>
      </trkpt>
      <trkpt lat="48.70295" lon="2.0762">
        <ele>74.7</ele>
        <time>2021-11-07T15:59:10Z</time>
      </trkpt>
      <trkpt lat="48.7029" lon="2.07601">
        <ele>75.34</ele>
        <time>2021-11-07T15:59:21Z</time>
      </trkpt>
      <trkpt lat="48.70285" lon="2.07583">
        <ele>74.82</ele>
        <time>2021-11-07T15:59:33Z</time>
      </trkpt>
      <trkpt lat="48.70277" lon="2.07565">
        <ele>74.8</ele>
        <time>2021-11-07T15:59:44Z</time>
      </trkpt>
      <trkpt lat="48.70269" lon="2.07552">
        <ele>75.23</ele>
        <time>2021-11-07T15:59:55Z</time>
      </trkpt>
      <trkpt lat="48.70266" lon="2.07547">
        <ele>74.96</ele>
        <time>2021-11-07T15:59:58Z</time>
      </trkpt>
      <trkpt lat="48.70258" lon="2.07533">
        <ele>75.12</ele>
        <time>2021-11-07T16:00:08Z</time>
      </trkpt>
      <trkpt lat="48.70248" lon="2.0752">
        <ele>75.17</ele>
        <time>2021-11-07T16:00:19Z</time>
      </trkpt>
      <trkpt lat="48.70247" lon="2.07519">
        <ele>75.09</ele>
        <time>2021-11-07T16:00:20Z</time>
      </trkpt>
      <trkpt lat="48.7024" lon="2.0751">
        <ele>74.84</ele>
        <time>2021-11-07T16:00:27Z</time>
      </trkpt>
      <trkpt lat="48.7023" lon="2.07498">
        <ele>75.55</ele>
        <time>2021-11-07T16:00:39Z</time>
      </trkpt>
      <trkpt lat="48.7022" lon="2.07489">
        <ele>75.65</ele>
        <time>2021-11-07T16:00:49Z</time>
      </trkpt>
      <trkpt lat="48.70209" lon="2.0748">
        <ele>76.76</ele>
        <time>2021-11-07T16:01:00Z</time>
      </trkpt>
      <trkpt lat="48.702" lon="2.07462">
        <ele>78.18</ele>
        <time>2021-11-07T16:01:12Z</time>
      </trkpt>
      <trkpt lat="48.70192" lon="2.07443">
        <ele>78.73</ele>
        <time>2021-11-07T16:01:25Z</time>
      </trkpt>
      <trkpt lat="48.7019" lon="2.07434">
        <ele>78.76</ele>
        <time>2021-11-07T16:01:30Z</time>
      </trkpt>
      <trkpt lat="48.70188" lon="2.07421">
        <ele>79.99</ele>
        <time>2021-11-07T16:01:40Z</time>
      </trkpt>
      <trkpt lat="48.70185" lon="2.07399">
        <ele>80.48</ele>
        <time>2021-11-07T16:01:53Z</time>
      </trkpt>
      <trkpt lat="48.70182" lon="2.0738">
        <ele>80.49</ele>
        <time>2021-11-07T16:02:04Z</time>
      </trkpt>
      <trkpt lat="48.70174" lon="2.07351">
        <ele>80.22</ele>
        <time>2021-11-07T16:02:18Z</time>
      </trkpt>
      <trkpt lat="48.70169" lon="2.07333">
        <ele>80.46</ele>
        <time>2021-11-07T16:02:28Z</time>
      </trkpt>
      <trkpt lat="48.70167" lon="2.07327">
        <ele>80.29</ele>
        <time>2021-11-07T16:02:32Z</time>
      </trkpt>
      <trkpt lat="48.70167" lon="2.07325">
        <ele>80.44</ele>
        <time>2021-11-07T16:02:34Z</time>
      </trkpt>
      <trkpt lat="48.70166" lon="2.07316">
        <ele>79.99</ele>
        <time>2021-11-07T16:02:51Z</time>
      </trkpt>
      <trkpt lat="48.7016" lon="2.07303">
        <ele>80.87</ele>
        <time>2021-11-07T16:03:03Z</time>
      </trkpt>
      <trkpt lat="48.70156" lon="2.07291">
        <ele>81.24</ele>
        <time>2021-11-07T16:03:13Z</time>
      </trkpt>
      <trkpt lat="48.70151" lon="2.07272">
        <ele>81.73</ele>
        <time>2021-11-07T16:03:24Z</time>
      </trkpt>
      <trkpt lat="48.70142" lon="2.07248">
        <ele>82.09</ele>
        <time>2021-11-07T16:03:38Z</time>
      </trkpt>
      <trkpt lat="48.7014" lon="2.07238">
        <ele>81.81</ele>
        <time>2021-11-07T16:03:43Z</time>
      </trkpt>
      <trkpt lat="48.70135" lon="2.07224">
        <ele>82.47</ele>
        <time>2021-11-07T16:03:51Z</time>
      </trkpt>
      <trkpt lat="48.70133" lon="2.07219">
        <ele>81.74</ele>
        <time>2021-11-07T16:03:54Z</time>
      </trkpt>
      <trkpt lat="48.70125" lon="2.07204">
        <ele>82.19</ele>
        <time>2021-11-07T16:04:06Z</time>
      </trkpt>
      <trkpt lat="48.70118" lon="2.07192">
        <ele>81.69</ele>
        <time>2021-11-07T16:04:15Z</time>
      </trkpt>
      <trkpt lat="48.70117" lon="2.07191">
        <ele>81.73</ele>
        <time>2021-11-07T16:04:16Z</time>
      </trkpt>
      <trkpt lat="48.70108" lon="2.07169">
        <ele>81.96</ele>
        <time>2021-11-07T16:04:29Z</time>
      </trkpt>
      <trkpt lat="48.70105" lon="2.07153">
        <ele>81.09</ele>
        <time>2021-11-07T16:04:39Z</time>
      </trkpt>
      <trkpt lat="48.70105" lon="2.07152">
        <ele>81.03</ele>
        <time>2021-11-07T16:04:40Z</time>
      </trkpt>
      <trkpt lat="48.70105" lon="2.07147">
        <ele>80.76</ele>
        <time>2021-11-07T16:04:43Z</time>
      </trkpt>
      <trkpt lat="48.70112" lon="2.07133">
        <ele>80.52</ele>
        <time>2021-11-07T16:04:55Z</time>
      </trkpt>
      <trkpt lat="48.70116" lon="2.0712">
        <ele>79.06</ele>
        <time>2021-11-07T16:05:05Z</time>
      </trkpt>
      <trkpt lat="48.70122" lon="2.07106">
        <ele>78.89</ele>
        <time>2021-11-07T16:05:18Z</time>
      </trkpt>
      <trkpt lat="48.70126" lon="2.07093">
        <ele>78.3</ele>
        <time>2021-11-07T16:05:29Z</time>
      </trkpt>
      <trkpt lat="48.70135" lon="2.07078">
        <ele>77.5</ele>
        <time>2021-11-07T16:05:40Z</time>
      </trkpt>
      <trkpt lat="48.70138" lon="2.07073">
        <ele>77.87</ele>
        <time>2021-11-07T16:05:44Z</time>
      </trkpt>
      <trkpt lat="48.70148" lon="2.0706">
        <ele>76.93</ele>
        <time>2021-11-07T16:05:55Z</time>
      </trkpt>
      <trkpt lat="48.70151" lon="2.07058">
        <ele>76.62</ele>
        <time>2021-11-07T16:05:57Z</time>
      </trkpt>
      <trkpt lat="48.70162" lon="2.0704">
        <ele>76.1</ele>
        <time>2021-11-07T16:06:10Z</time>
      </trkpt>
      <trkpt lat="48.7017" lon="2.07023">
        <ele>74.63</ele>
        <time>2021-11-07T16:06:21Z</time>
      </trkpt>
      <trkpt lat="48.70174" lon="2.07013">
        <ele>74.09</ele>
        <time>2021-11-07T16:06:28Z</time>
      </trkpt>
      <trkpt lat="48.70181" lon="2.06998">
        <ele>73.54</ele>
        <time>2021-11-07T16:06:40Z</time>
      </trkpt>
      <trkpt lat="48.70188" lon="2.06991">
        <ele>73.11</ele>
        <time>2021-11-07T16:06:50Z</time>
      </trkpt>
      <trkpt lat="48.70192" lon="2.06984">
        <ele>73.12</ele>
        <time>2021-11-07T16:06:58Z</time>
      </trkpt>
      <trkpt lat="48.70194" lon="2.06978">
        <ele>73.18</ele>
        <time>2021-11-07T16:07:07Z</time>
      </trkpt>
      <trkpt lat="48.70195" lon="2.06976">
        <ele>72.99</ele>
        <time>2021-11-07T16:07:09Z</time>
      </trkpt>
      <trkpt lat="48.702" lon="2.06971">
        <ele>73.1</ele>
        <time>2021-11-07T16:07:14Z</time>
      </trkpt>
      <trkpt lat="48.7021" lon="2.0697">
        <ele>72.21</ele>
        <time>2021-11-07T16:07:23Z</time>
      </trkpt>
      <trkpt lat="48.7022" lon="2.06968">
        <ele>71.22</ele>
        <time>2021-11-07T16:07:34Z</time>
      </trkpt>
      <trkpt lat="48.70229" lon="2.06967">
        <ele>71.11</ele>
        <time>2021-11-07T16:07:40Z</time>
      </trkpt>
      <trkpt lat="48.70243" lon="2.06966">
        <ele>69.84</ele>
        <time>2021-11-07T16:07:51Z</time>
      </trkpt>
      <trkpt lat="48.70256" lon="2.06966">
        <ele>69.14</ele>
        <time>2021-11-07T16:08:02Z</time>
      </trkpt>
      <trkpt lat="48.70267" lon="2.06968">
        <ele>69.22</ele>
        <time>2021-11-07T16:08:15Z</time>
      </trkpt>
      <trkpt lat="48.70269" lon="2.06969">
        <ele>69.08</ele>
        <time>2021-11-07T16:08:21Z</time>
      </trkpt>
      <trkpt lat="48.70272" lon="2.06974">
        <ele>68.91</ele>
        <time>2021-11-07T16:08:27Z</time>
      </trkpt>
      <trkpt lat="48.70274" lon="2.06981">
        <ele>68.72</ele>
        <time>2021-11-07T16:08:33Z</time>
      </trkpt>
      <trkpt lat="48.70275" lon="2.06987">
        <ele>68.97</ele>
        <time>2021-11-07T16:08:36Z</time>
      </trkpt>
      <trkpt lat="48.70278" lon="2.07008">
        <ele>69.38</ele>
        <time>2021-11-07T16:08:50Z</time>
      </trkpt>
      <trkpt lat="48.70279" lon="2.07013">
        <ele>68.94</ele>
        <time>2021-11-07T16:08:53Z</time>
      </trkpt>
      <trkpt lat="48.70279" lon="2.07023">
        <ele>69.05</ele>
        <time>2021-11-07T16:08:59Z</time>
      </trkpt>
      <trkpt lat="48.70281" lon="2.07031">
        <ele>69.45</ele>
        <time>2021-11-07T16:09:04Z</time>
      </trkpt>
      <trkpt lat="48.70281" lon="2.07045">
        <ele>69.85</ele>
        <time>2021-11-07T16:09:16Z</time>
      </trkpt>
      <trkpt lat="48.7028" lon="2.07051">
        <ele>70.39</ele>
        <time>2021-11-07T16:09:31Z</time>
      </trkpt>
      <trkpt lat="48.7028" lon="2.07052">
        <ele>70.46</ele>
        <time>2021-11-07T16:09:44Z</time>
      </trkpt>
      <trkpt lat="48.70282" lon="2.07052">
        <ele>69.87</ele>
        <time>2021-11-07T16:10:07Z</time>
      </trkpt>
      <trkpt lat="48.70282" lon="2.07052">
        <ele>70.44</ele>
        <time>2021-11-07T16:10:29Z</time>
      </trkpt>
      <trkpt lat="48.70282" lon="2.07052">
        <ele>71.03</ele>
        <time>2021-11-07T16:10:55Z</time>
      </trkpt>
      <trkpt lat="48.70281" lon="2.07055">
        <ele>70.76</ele>
        <time>2021-11-07T16:11:11Z</time>
      </trkpt>
    </trkseg>
  </trk>
</gpx>